[[{"header":{"parameterUnit":"m.s-1","parameterCategory":1,"la1":30.6,"la2":28.766,"lo1":-90.7593,"lo2":-88.6598,"dy":0.0162,"dx":0.0183,"nx":116,"ny":114,"refTime":"2023-09-13T12:00:00:Z","depth":0,"parameterNumber":2,"parameterNumberName":"U-component_of_WINDS"},"data":[0.0,0.0,0.0,0.0,0.0,0.0,0.0,0.0,0.0,0.0,0.0,0.0,0.0,0.0,0.0,0.0,0.0,0.0,0.0,0.0,0.0,0.0,0.0,0.0,0.0,0.0,0.0,0.0,0.0,0.0,0.0,0.0,0.0,0.0,0.0,0.0,0.0,0.0,0.0,0.0,0.0,0.0,0.0,0.0,0.0,0.0,0.0,0.0,0.0,0.0,0.0,0.0,0.0,0.0,0.0,0.0,0.0,0.0,0.0,0.0,0.0,0.0,0.0,0.0,0.0,0.0,0.0,0.0,0.0,0.0,0.0,0.0,0.0,0.0,0.0,0.0,0.0,0.0,0.0,0.0,0.0,0.0,0.0,0.0,0.0,0.0,0.0,0.0,0.0,0.0,0.0,0.0,0.0,0.0,0.0,0.0,0.0,0.0,0.0,0.0,0.0,0.0,0.0,0.0,0.0,0.0,0.0,0.0,0.0,0.0,0.0,0.0,0.0,0.0,0.0,0.0,0.0,0.0,0.0,0.0,0.0,0.0,0.0,0.0,0.0,0.0,0.0,0.0,0.0,0.0,0.0,0.0,0.0,0.0,0.0,0.0,0.0,0.0,0.0,0.0,0.0,0.0,0.0,0.0,0.0,0.0,0.0,0.0,0.0,0.0,0.0,0.0,0.0,0.0,0.0,0.0,0.0,0.0,0.0,0.0,0.0,0.0,0.0,0.0,0.0,0.0,0.0,0.0,0.0,0.0,0.0,0.0,0.0,0.0,0.0,0.0,0.0,0.0,0.0,0.0,0.0,0.0,0.0,0.0,0.0,0.0,0.0,0.0,0.0,0.0,0.0,0.0,0.0,0.0,0.0,0.0,0.0,0.0,0.0,0.0,0.0,0.0,0.0,0.0,0.0,0.0,0.0,0.0,0.0,0.0,0.0,0.0,0.0,0.0,0.0,0.0,0.0,0.0,0.0,0.0,0.0,0.0,0.0,0.0,0.0,0.0,0.0,0.0,0.0,0.0,0.0,0.0,0.0,0.0,0.0,0.0,0.0,0.0,0.0,0.0,0.0,0.0,0.0,0.0,0.0,0.0,0.0,0.0,0.0,0.0,0.0,0.0,0.0,0.0,0.0,0.0,0.0,0.0,0.0,0.0,0.0,0.0,0.0,0.0,0.0,0.0,0.0,0.0,0.0,0.0,0.0,0.0,0.0,0.0,0.0,0.0,0.0,0.0,0.0,0.0,0.0,0.0,0.0,0.0,0.0,0.0,0.0,0.0,0.0,0.0,0.0,0.0,0.0,0.0,0.0,0.0,0.0,0.0,0.0,0.0,0.0,0.0,0.0,0.0,0.0,0.0,0.0,0.0,0.0,0.0,0.0,0.0,0.0,0.0,0.0,0.0,0.0,0.0,0.0,0.0,0.0,0.0,0.0,0.0,0.0,0.0,0.0,0.0,0.0,0.0,0.0,0.0,0.0,0.0,0.0,0.0,0.0,0.0,0.0,0.0,0.0,0.0,0.0,0.0,0.0,0.0,0.0,0.0,0.0,0.0,0.0,0.0,0.0,0.0,0.0,0.0,0.0,0.0,0.0,0.0,0.0,0.0,0.0,0.0,0.0,0.0,0.0,0.0,0.0,0.0,0.0,0.0,0.0,0.0,0.0,0.0,0.0,0.0,0.0,0.0,0.0,0.0,0.0,0.0,0.0,0.0,0.0,0.0,0.0,0.0,0.0,0.0,0.0,0.0,0.0,0.0,0.0,0.0,0.0,0.0,0.0,0.0,0.0,0.0,0.0,0.0,0.0,0.0,0.0,0.0,0.0,0.0,0.0,0.0,0.0,0.0,0.0,0.0,0.0,0.0,0.0,0.0,0.0,0.0,0.0,0.0,0.0,0.0,0.0,0.0,0.0,0.0,0.0,0.0,0.0,0.0,0.0,0.0,0.0,0.0,0.0,0.0,0.0,0.0,0.0,0.0,0.0,0.0,0.0,0.0,0.0,0.0,0.0,0.0,0.0,0.0,0.0,0.0,0.0,0.0,0.0,0.0,0.0,0.0,0.0,0.0,0.0,0.0,0.0,0.0,0.0,0.0,0.0,0.0,0.0,0.0,0.0,0.0,0.0,0.0,0.0,0.0,0.0,0.0,0.0,0.0,0.0,0.0,0.0,0.0,0.0,0.0,0.0,0.0,0.0,0.0,0.0,0.0,0.0,0.0,0.0,0.0,0.0,0.0,0.0,0.0,0.0,0.0,0.0,0.0,0.0,0.0,0.0,0.0,0.0,0.0,0.0,0.0,0.0,0.0,0.0,0.0,0.0,0.0,0.0,0.0,0.0,0.0,0.0,0.0,0.0,0.0,0.0,0.0,0.0,0.0,0.0,0.0,0.0,0.0,0.0,0.0,0.0,0.0,0.0,0.0,0.0,0.0,0.0,0.0,0.0,0.0,0.0,0.0,0.0,0.0,0.0,0.0,0.0,0.0,0.0,0.0,0.0,0.0,0.0,0.0,0.0,0.0,0.0,0.0,0.0,0.0,0.0,0.0,0.0,0.0,0.0,0.0,0.0,0.0,0.0,0.0,0.0,0.0,0.0,0.0,0.0,0.0,0.0,0.0,0.0,0.0,0.0,0.0,0.0,0.0,0.0,0.0,0.0,0.0,0.0,0.0,0.0,0.0,0.0,0.0,0.0,0.0,0.0,0.0,0.0,0.0,0.0,0.0,0.0,0.0,0.0,0.0,0.0,0.0,0.0,0.0,0.0,0.0,0.0,0.0,0.0,0.0,0.0,0.0,0.0,0.0,0.0,0.0,0.0,0.0,0.0,0.0,0.0,0.0,0.0,0.0,0.0,0.0,0.0,0.0,0.0,0.0,0.0,0.0,0.0,0.0,0.0,0.0,0.0,0.0,0.0,0.0,0.0,0.0,0.0,0.0,0.0,0.0,0.0,0.0,0.0,0.0,0.0,0.0,0.0,0.0,0.0,0.0,0.0,0.0,0.0,0.0,0.0,0.0,0.0,0.0,0.0,0.0,0.0,0.0,0.0,0.0,0.0,0.0,0.0,0.0,0.0,0.0,0.0,0.0,0.0,0.0,0.0,0.0,0.0,0.0,0.0,0.0,0.0,0.0,0.0,0.0,0.0,0.0,0.0,0.0,0.0,0.0,0.0,0.0,0.0,0.0,0.0,0.0,0.0,0.0,0.0,0.0,0.0,0.0,0.0,0.0,0.0,0.0,0.0,0.0,0.0,0.0,0.0,0.0,0.0,0.0,0.0,0.0,0.0,0.0,0.0,0.0,0.0,0.0,0.0,0.0,0.0,0.0,0.0,0.0,0.0,0.0,0.0,0.0,0.0,0.0,0.0,0.0,0.0,0.0,0.0,0.0,0.0,0.0,0.0,0.0,0.0,0.0,0.0,0.0,0.0,0.0,0.0,0.0,0.0,0.0,0.0,0.0,0.0,0.0,0.0,0.0,0.0,0.0,0.0,0.0,0.0,0.0,0.0,0.0,0.0,0.0,0.0,0.0,0.0,0.0,0.0,0.0,0.0,0.0,0.0,0.0,0.0,0.0,0.0,0.0,0.0,0.0,0.0,0.0,0.0,0.0,0.0,0.0,0.0,0.0,0.0,0.0,0.0,0.0,0.0,0.0,0.0,0.0,0.0,0.0,0.0,0.0,0.0,0.0,0.0,0.0,0.0,0.0,0.0,0.0,0.0,0.0,0.0,0.0,0.0,0.0,0.0,0.0,0.0,0.0,0.0,0.0,0.0,0.0,0.0,0.0,0.0,0.0,0.0,0.0,0.0,0.0,0.0,0.0,0.0,0.0,0.0,0.0,0.0,0.0,0.0,0.0,0.0,0.0,0.0,0.0,0.0,0.0,0.0,0.0,0.0,0.0,0.0,0.0,0.0,0.0,0.0,0.0,0.0,0.0,0.0,0.0,0.0,0.0,0.0,0.0,0.0,0.0,0.0,0.0,0.0,0.0,0.0,0.0,0.0,0.0,0.0,0.0,0.0,0.0,0.0,0.0,0.0,0.0,0.0,0.0,0.0,0.0,0.0,0.0,0.0,0.0,0.0,0.0,0.0,0.0,0.0,0.0,0.0,0.0,0.0,0.0,0.0,0.0,0.0,0.0,0.0,0.0,0.0,0.0,0.0,0.0,0.0,0.0,0.0,0.0,0.0,0.0,0.0,0.0,0.0,0.0,0.0,0.0,0.0,0.0,0.0,0.0,0.0,0.0,0.0,0.0,0.0,0.0,0.0,0.0,0.0,0.0,0.0,0.0,0.0,0.0,0.0,0.0,0.0,0.0,0.0,0.0,0.0,0.0,0.0,0.0,0.0,0.0,0.0,0.0,0.0,0.0,0.0,0.0,0.0,0.0,0.0,0.0,0.0,0.0,0.0,0.0,0.0,0.0,0.0,0.0,0.0,0.0,0.0,0.0,0.0,0.0,0.0,0.0,0.0,0.0,0.0,0.0,0.0,0.0,0.0,0.0,0.0,0.0,0.0,0.0,0.0,0.0,0.0,0.0,0.0,0.0,0.0,0.0,0.0,0.0,0.0,0.0,0.0,0.0,0.0,0.0,0.0,0.0,0.0,0.0,0.0,0.0,0.0,0.0,0.0,0.0,0.0,0.0,0.0,0.0,0.0,0.0,0.0,0.0,0.0,0.0,0.0,0.0,0.0,0.0,0.0,0.0,0.0,0.0,0.0,0.0,0.0,0.0,0.0,0.0,0.0,0.0,0.0,0.0,0.0,0.0,0.0,0.0,0.0,0.0,0.0,0.0,0.0,0.0,0.0,0.0,0.0,0.0,0.0,0.0,0.0,0.0,0.0,0.0,0.0,0.0,0.0,0.0,0.0,0.0,0.0,0.0,0.0,0.0,0.0,0.0,0.0,0.0,0.0,0.0,0.0,0.0,0.0,0.0,0.0,0.0,0.0,0.0,0.0,0.0,0.0,0.0,0.0,0.0,0.0,0.0,0.0,0.0,0.0,0.0,0.0,0.0,0.0,0.0,0.0,0.0,0.0,0.0,0.0,0.0,0.0,0.0,0.0,0.0,0.0,0.0,0.0,0.0,0.0,0.0,0.0,0.0,0.0,0.0,0.0,0.0,0.0,0.0,0.0,0.0,0.0,0.0,0.0,0.0,0.0,0.0,0.0,0.0,0.0,0.0,0.0,0.0,0.0,0.0,0.0,0.0,0.0,0.0,0.0,0.0,0.0,0.0,0.0,0.0,0.0,0.0,0.0,0.0,0.0,0.0,0.0,0.0,0.0,0.0,0.0,0.0,0.0,0.0,0.0,0.0,0.0,0.0,0.0,0.0,0.0,0.0,0.0,0.0,0.0,0.0,0.0,0.0,0.0,0.0,0.0,0.0,0.0,0.0,0.0,0.0,0.0,0.0,0.0,0.0,0.0,0.0,0.0,0.0,0.0,0.0,0.0,0.0,0.0,0.0,0.0,0.0,0.0,0.0,0.0,0.0,0.0,0.0,0.0,0.0,0.0,0.0,0.0,0.0,0.0,0.0,0.0,0.0,0.0,0.0,0.0,0.0,0.0,0.0,0.0,0.0,0.0,0.0,0.0,0.0,0.0,0.0,0.0,0.0,0.0,0.0,0.0,0.0,0.0,0.0,0.0,0.0,0.0,0.0,0.0,0.0,0.0,0.0,0.0,0.0,0.0,0.0,0.0,0.0,0.0,0.0,0.0,0.0,0.0,0.0,0.0,0.0,0.0,0.0,0.0,0.0,0.0,0.0,0.0,0.0,0.0,0.0,0.0,0.0,0.0,0.0,0.0,0.0,0.0,0.0,0.0,0.0,0.0,0.0,0.0,0.0,0.0,0.0,0.0,0.0,0.0,0.0,0.0,0.0,0.0,0.0,0.0,0.0,0.0,0.0,0.0,0.0,0.0,0.0,0.0,0.0,0.0,0.0,0.0,0.0,0.0,0.0,0.0,0.0,0.0,0.0,0.0,0.0,0.0,0.0,0.0,0.0,0.0,0.0,0.0,0.0,0.0,0.0,0.0,0.0,0.0,0.0,0.0,0.0,0.0,0.0,0.0,0.0,0.0,0.0,0.0,0.0,0.0,0.0,0.0,0.0,1.8437,0.0,0.0,0.0,0.0,0.0,0.0,0.0,0.0,0.0,0.0,0.0,0.0,0.0,0.0,0.0,0.0,0.0,0.0,0.0,0.0,0.0,0.0,0.0,0.0,0.0,0.0,0.0,0.0,0.0,0.0,0.0,0.0,0.0,0.0,0.0,0.0,0.0,0.0,0.0,0.0,0.0,0.0,0.0,0.0,0.0,0.0,0.0,0.0,0.0,0.0,0.0,0.0,0.0,0.0,0.0,0.0,0.0,0.0,0.0,0.0,0.0,0.0,0.0,0.0,0.0,0.0,0.0,0.0,0.0,0.0,0.0,0.0,0.0,0.0,0.0,0.0,0.0,0.0,0.0,0.0,0.0,0.0,0.0,0.0,0.0,0.0,0.0,0.0,0.0,0.0,0.0,0.0,0.0,0.0,0.0,0.0,0.0,0.0,0.0,0.0,0.0,0.0,0.0,0.0,0.0,0.0,0.0,0.0,0.0,0.0,0.0,0.0,0.0,0.0,0.0,0.0,1.9463,0.0,0.0,0.0,0.0,0.0,0.0,0.0,0.0,0.0,0.0,0.0,0.0,0.0,0.0,0.0,0.0,0.0,0.0,0.0,0.0,0.0,0.0,0.0,0.0,0.0,0.0,0.0,0.0,0.0,0.0,0.0,0.0,0.0,0.0,0.0,0.0,0.0,0.0,0.0,0.0,0.0,0.0,0.0,0.0,0.0,0.0,0.0,0.0,0.0,0.0,0.0,0.0,0.0,0.0,0.0,0.0,0.0,0.0,0.0,0.0,0.0,0.0,0.0,0.0,0.0,0.0,0.0,0.0,0.0,0.0,0.0,0.0,0.0,0.0,0.0,0.0,0.0,0.0,0.0,0.0,0.0,0.0,0.0,0.0,0.0,0.0,0.0,0.0,0.0,0.0,0.0,0.0,0.0,0.0,0.0,0.0,0.0,0.0,0.0,0.0,0.0,0.0,0.0,0.0,0.0,0.0,0.0,0.0,2.1201,2.1992,2.2526,2.3022,2.2969,2.2425,2.185,2.144,2.1178,2.1199,0.0,0.0,0.0,0.0,0.0,0.0,0.0,0.0,0.0,0.0,0.0,0.0,0.0,0.0,0.0,0.0,0.0,0.0,0.0,0.0,0.0,0.0,0.0,0.0,0.0,0.0,0.0,0.0,0.0,0.0,0.0,0.0,0.0,0.0,0.0,0.0,0.0,0.0,1.6428,1.6289,1.6577,1.7197,1.7344,0.0,0.0,0.0,0.0,0.0,0.0,0.0,0.0,0.0,0.0,0.0,0.0,0.0,0.0,0.0,0.0,0.0,0.0,0.0,0.0,0.0,0.0,0.0,0.0,0.0,0.0,0.0,0.0,0.0,0.0,0.0,0.0,0.0,0.0,0.0,0.0,0.0,0.0,0.0,0.0,0.0,0.0,0.0,1.4328,1.4932,0.0,0.0,0.0,0.0,0.0,0.0,0.0,0.0,0.0,0.0,0.0,0.0,0.0,2.0656,2.2179,2.2588,2.2845,2.2962,2.3489,2.3494,2.2992,2.3111,2.3371,2.3884,2.4426,0.0,2.1864,2.0625,0.0,0.0,0.0,0.0,0.0,0.0,0.0,0.0,0.0,0.0,0.0,0.0,0.0,0.0,0.0,0.0,0.0,0.0,0.0,0.0,0.0,0.0,0.0,0.0,0.0,0.0,0.0,0.0,0.0,0.0,0.0,0.0,0.0,0.0,0.0,0.0,1.5277,1.593,1.6225,1.6542,1.705,1.7609,1.7677,1.7793,1.7856,1.7571,0.0,0.0,0.0,0.0,0.0,0.0,0.0,0.0,0.0,0.0,0.0,0.0,0.0,0.0,0.0,0.0,0.0,0.0,0.0,0.0,0.0,0.0,0.0,0.0,0.0,0.0,0.0,0.0,0.0,0.0,0.0,0.0,0.0,0.0,0.0,0.0,0.0,0.0,0.0,1.5061,1.5421,1.529,1.5744,1.6264,0.0,0.0,0.0,0.0,0.0,0.0,0.0,0.0,0.0,2.0498,2.1121,2.1801,2.2544,2.3058,2.3254,2.3263,2.4086,2.4339,2.4046,2.4343,2.4747,2.5114,2.5181,2.4899,2.4364,2.3242,2.2755,2.2551,0.0,0.0,0.0,0.0,2.0637,2.1551,0.0,0.0,0.0,0.0,0.0,0.0,0.0,0.0,0.0,0.0,0.0,0.0,0.0,0.0,0.0,1.7448,0.0,0.0,0.0,0.0,0.0,0.0,0.0,0.0,0.0,0.0,0.0,0.0,1.6396,1.7114,1.6715,1.7225,1.7725,1.8235,1.8219,1.8091,1.7843,1.7309,1.728,0.0,0.0,0.0,0.0,0.0,0.0,0.0,0.0,0.0,0.0,0.0,0.0,0.0,0.0,0.0,0.0,0.0,0.0,0.0,0.0,0.0,0.0,0.0,0.0,0.0,0.0,0.0,0.0,0.0,0.0,0.0,0.0,0.0,0.0,0.0,0.0,0.0,0.0,1.5207,1.5737,1.5482,1.5965,1.6611,0.0,0.0,0.0,0.0,0.0,0.0,1.8773,1.9904,2.1036,2.2083,2.2603,2.3055,2.3354,2.3638,2.3825,2.3991,2.4845,2.5247,2.5259,2.5636,2.5904,2.6024,2.5713,2.5882,2.6378,2.5342,2.4396,2.359,2.2463,2.2152,2.2259,2.1677,2.2254,2.3348,0.0,0.0,0.0,0.0,0.0,0.0,0.0,0.0,0.0,0.0,0.0,0.0,0.0,0.0,1.7214,1.9193,1.8156,1.7906,0.0,0.0,0.0,0.0,0.0,0.0,0.0,0.0,0.0,1.7292,1.712,1.7599,1.8643,1.83,1.8417,1.892,1.843,1.8469,1.8869,1.775,1.7248,1.7232,0.0,0.0,0.0,0.0,0.0,0.0,0.0,0.0,0.0,0.0,0.0,0.0,0.0,0.0,0.0,0.0,0.0,0.0,0.0,0.0,0.0,0.0,0.0,0.0,0.0,0.0,0.0,0.0,0.0,0.0,0.0,0.0,0.0,0.0,0.0,0.0,0.0,0.0,0.0,1.4833,1.524,0.0,0.0,0.0,0.0,1.7375,1.7997,1.9145,2.1056,2.1666,2.2557,2.3851,2.3927,2.4722,2.6257,2.5753,2.5778,2.6357,2.642,2.6445,2.6445,2.6471,2.6471,2.6476,2.6726,2.6867,2.6817,2.5185,2.4593,2.4656,2.3963,2.3803,2.3998,2.4138,2.4346,2.4639,0.0,0.0,0.0,0.0,0.0,0.0,0.0,0.0,0.0,0.0,0.0,0.0,0.0,1.8735,1.9318,2.002,1.9912,1.9653,1.923,0.0,0.0,0.0,0.0,0.0,0.0,0.0,1.8106,1.7191,1.7923,1.8662,1.9444,1.8931,1.9409,2.0589,2.0037,1.9674,1.9392,1.7574,1.718,1.7706,1.6429,1.6351,0.0,0.0,0.0,0.0,0.0,0.0,0.0,0.0,0.0,0.0,0.0,0.0,0.0,0.0,0.0,0.0,0.0,0.0,0.0,0.0,0.0,0.0,0.0,0.0,0.0,0.0,0.0,0.0,0.0,0.0,0.0,0.0,0.0,0.0,0.0,0.0,0.0,1.5538,1.6001,0.0,1.7063,1.6692,1.6898,1.8111,1.8433,1.9159,2.0544,2.1093,2.2214,2.405,2.4493,2.5399,2.6979,2.6791,2.6791,2.6979,2.6628,2.6533,2.6533,2.6533,2.6533,2.6483,2.5815,2.613,2.6909,2.5632,2.5445,2.5886,2.5227,2.5002,2.5093,2.5153,2.547,2.5971,0.0,0.0,0.0,0.0,0.0,0.0,0.0,0.0,0.0,0.0,0.0,1.738,1.8754,1.977,2.0518,2.1001,2.0892,2.0611,2.022,0.0,0.0,0.0,0.0,0.0,0.0,1.9045,1.8856,1.7922,1.8844,1.9636,2.0363,1.9823,2.0363,2.1744,2.1192,2.0627,1.9987,1.8329,1.7626,1.7531,1.6242,1.6357,1.7238,0.0,0.0,0.0,0.0,0.0,0.0,0.0,0.0,0.0,0.0,0.0,0.0,0.0,0.0,0.0,0.0,0.0,0.0,0.0,0.0,0.0,0.0,0.0,0.0,0.0,0.0,0.0,0.0,0.0,0.0,0.0,0.0,0.0,0.0,0.0,1.5591,1.6578,1.6954,1.7489,1.8226,1.7655,1.769,1.8762,1.9109,1.9836,2.1162,2.1738,2.2745,2.4397,2.4655,2.542,2.6816,2.6643,2.671,2.7005,2.6697,2.6533,2.6533,2.6533,2.6533,2.6471,2.5297,2.5647,2.6937,2.5825,2.6026,2.6871,2.6437,2.6273,2.6303,2.6527,2.6752,2.7063,0.0,0.0,0.0,0.0,0.0,0.0,0.0,0.0,0.0,0.0,1.6026,1.7151,1.8412,1.9441,2.066,2.2175,2.0863,2.061,2.2141,1.9808,0.0,0.0,0.0,0.0,1.9332,2.0005,2.0197,1.9809,1.9814,2.036,2.1481,2.097,2.1267,2.2309,2.1757,2.1217,2.0731,2.0125,1.8618,1.6653,1.7015,1.6995,1.675,0.0,0.0,0.0,0.0,0.0,0.0,0.0,0.0,0.0,0.0,0.0,0.0,0.0,0.0,0.0,0.0,0.0,0.0,0.0,0.0,0.0,0.0,0.0,0.0,0.0,0.0,0.0,0.0,0.0,0.0,0.0,0.0,0.0,1.4636,1.5302,1.6318,1.7801,1.7978,1.7981,1.8118,1.8301,1.8651,1.9316,2.0184,2.1424,2.3125,2.3696,2.4248,2.4904,2.4446,2.4716,2.5838,2.535,2.5548,2.6546,2.6533,2.6533,2.6533,2.6533,2.6533,2.6471,2.531,2.566,2.6919,2.5852,2.6244,2.759,2.7575,2.7625,2.77,2.8323,2.8143,2.776,0.0,0.0,0.0,0.0,0.0,0.0,0.0,0.0,0.0,0.0,1.7275,1.8526,1.922,2.0725,2.1854,2.2276,2.0399,1.9695,2.0839,0.0,0.0,0.0,0.0,0.0,2.0074,2.0023,1.9927,1.9794,1.9793,2.0382,2.1481,2.097,2.1468,2.2887,2.2334,2.1995,2.1845,2.1681,2.0564,1.8756,1.7295,1.6915,1.7117,0.0,0.0,0.0,0.0,0.0,0.0,0.0,0.0,0.0,0.0,0.0,0.0,0.0,0.0,0.0,0.0,0.0,0.0,0.0,0.0,0.0,0.0,0.0,0.0,0.0,0.0,0.0,0.0,0.0,0.0,0.0,0.0,1.4617,1.4829,1.5753,1.6707,1.7471,1.8334,1.9033,1.9393,1.978,2.0153,2.0609,2.1232,2.173,2.2281,2.2098,2.2487,2.3711,2.4128,2.4963,2.6273,2.6577,2.6831,2.7055,2.6722,2.6533,2.6533,2.6533,2.6533,2.6483,2.5699,2.5923,2.6684,2.5602,2.6033,2.7384,2.7535,2.7625,2.764,2.7784,2.779,2.771,0.0,0.0,0.0,0.0,0.0,0.0,0.0,0.0,0.0,0.0,1.7538,1.8915,1.9072,2.0752,2.1701,2.1353,2.0196,1.9628,1.9918,0.0,0.0,0.0,0.0,2.0146,2.0709,2.0401,2.0224,2.021,2.0195,2.0614,2.1493,2.1393,2.1995,2.3065,2.2799,2.2523,2.2309,2.2309,2.1619,2.0376,1.8869,1.8325,1.8261,1.7111,1.737,1.8275,1.7548,1.7627,1.7949,1.7486,0.0,0.0,0.0,0.0,0.0,0.0,0.0,0.0,0.0,0.0,0.0,0.0,0.0,0.0,0.0,0.0,0.0,0.0,0.0,0.0,0.0,0.0,0.0,0.0,1.5098,1.5182,1.5597,1.6427,1.7363,1.833,1.9102,1.9795,2.041,2.0693,2.1025,2.1475,2.1904,2.2148,2.2148,2.208,2.229,2.2909,2.3844,2.4659,2.5553,2.6299,2.6776,2.6929,2.6615,2.6533,2.6533,2.6533,2.6533,2.6483,2.5611,2.5818,2.6593,2.5648,2.6061,0.0,0.0,0.0,0.0,0.0,2.7941,2.8423,0.0,0.0,0.0,0.0,0.0,0.0,0.0,0.0,0.0,0.0,0.0,1.8549,1.819,1.9818,2.0662,1.9984,1.9945,1.9728,0.0,0.0,0.0,1.9968,2.0478,2.0887,2.1149,2.1006,2.084,2.0696,2.0692,2.0941,2.1493,2.2058,2.2611,2.3078,2.3078,2.2862,2.2397,2.2397,2.2083,2.1543,2.1054,2.0476,1.9787,1.858,1.9055,2.0187,1.8451,1.8045,1.8218,1.7744,0.0,0.0,0.0,0.0,0.0,0.0,0.0,0.0,0.0,0.0,0.0,0.0,0.0,0.0,0.0,0.0,0.0,0.0,0.0,0.0,0.0,0.0,0.0,0.0,1.5665,1.5898,1.6885,1.7353,1.8154,1.9668,1.9932,2.0312,2.1152,2.1279,2.1475,2.1855,2.2314,2.2539,2.2441,0.0,0.0,0.0,0.0,2.4382,2.4442,2.5483,2.6164,2.6533,2.6533,2.6533,2.6533,2.6533,2.6533,2.6471,2.5423,2.5691,2.6749,2.5914,2.626,2.7291,2.6794,2.7034,2.7625,2.7625,2.8323,2.9234,0.0,0.0,0.0,0.0,0.0,0.0,0.0,0.0,0.0,1.5041,1.6705,1.7587,1.6711,1.8246,1.9338,1.9332,1.8349,1.8012,0.0,0.0,1.9545,2.0865,2.1031,2.1015,2.0887,2.1319,2.1027,2.0003,2.0482,2.0941,2.1493,2.2058,2.2611,2.3078,2.3078,2.3015,2.2975,2.2975,2.2661,2.2146,2.2033,2.1393,2.0467,1.9724,1.9623,1.9838,1.9039,1.9097,1.9362,1.8283,1.8371,1.8774,1.772,0.0,0.0,0.0,0.0,0.0,0.0,0.0,0.0,0.0,0.0,0.0,0.0,0.0,0.0,0.0,0.0,0.0,0.0,0.0,0.0,1.7348,1.6911,1.7021,1.8574,1.8867,1.9043,1.9365,2.0019,2.0654,2.1182,2.1553,2.1797,2.1875,2.2588,2.2725,2.2041,2.2848,2.3412,2.3867,2.4937,2.5709,2.6042,2.6676,2.6851,2.6533,0.0,0.0,2.6533,2.6533,2.6533,2.6521,2.6239,2.6704,2.7433,2.6884,2.6951,2.7429,2.7402,2.7458,2.7625,2.7625,2.775,2.8026,0.0,0.0,0.0,0.0,0.0,0.0,0.0,0.0,0.0,0.0,1.6787,1.7788,1.7213,1.8537,1.9366,1.9119,1.8056,0.0,0.0,1.9393,1.989,2.1161,2.1379,2.138,2.1255,2.124,2.0914,2.0238,2.0803,2.1355,2.192,2.2472,2.2874,2.3078,2.3078,2.3078,2.3078,2.3078,2.2722,2.2103,2.2103,2.1535,2.0664,2.0667,2.0586,2.0379,1.9585,1.9117,1.8783,1.8161,1.8151,1.8267,1.7557,1.735,1.7284,0.0,0.0,0.0,0.0,0.0,0.0,0.0,0.0,0.0,0.0,0.0,0.0,0.0,0.0,1.6582,0.0,0.0,1.7488,1.8175,1.7912,1.8057,1.9131,1.9473,1.96,1.96,2.0176,2.0742,2.1191,2.1426,2.1738,2.2168,2.2393,2.2422,2.2207,2.2459,2.2982,2.3748,2.4781,2.5622,2.602,2.7163,2.7281,2.6533,2.6741,2.6798,2.6533,2.6533,2.6533,2.6508,2.6151,2.6282,2.6659,2.6601,2.7139,2.8012,2.7727,2.7625,2.7625,2.7625,2.7625,2.761,0.0,0.0,0.0,0.0,0.0,0.0,0.0,0.0,0.0,0.0,1.6734,1.7804,1.7678,1.8683,1.9253,0.0,0.0,0.0,0.0,2.0171,2.048,2.1383,2.1602,2.1785,2.1885,2.1307,2.0935,2.0866,2.1259,2.1769,2.2322,2.2874,2.3078,2.3078,2.3078,2.3078,2.3078,2.3078,2.2641,2.1877,2.1877,2.1307,2.0545,2.1019,2.1076,2.0807,1.9672,1.8584,1.7737,1.7635,1.746,1.7226,1.7136,1.7323,1.7472,1.7025,1.6995,0.0,0.0,0.0,0.0,0.0,0.0,0.0,0.0,0.0,1.6562,1.6194,1.6981,1.7665,1.7459,1.8072,1.8633,1.8754,1.8623,1.8691,1.9219,1.9649,1.991,1.9989,2.0328,2.0547,2.083,2.0928,2.1269,2.1953,2.2011,2.2185,2.2359,2.2523,2.2987,2.3731,2.4847,2.5582,2.5924,2.7261,2.7444,2.6533,2.6917,2.6892,2.6533,2.6533,2.6533,2.6496,2.6038,2.5841,2.5923,2.6326,2.7408,2.8712,2.7889,2.77,2.7754,2.767,2.7625,2.7625,0.0,0.0,0.0,0.0,0.0,0.0,0.0,0.0,0.0,0.0,0.0,0.0,0.0,0.0,0.0,0.0,0.0,0.0,2.035,2.0107,2.0605,2.2115,2.1892,2.198,2.2575,2.196,2.1591,2.1511,2.1479,2.1769,2.2322,2.2874,2.3078,2.3078,2.3078,2.3078,2.3078,2.3078,2.2641,2.1877,2.1877,2.1148,1.998,2.0052,2.0041,1.9844,1.8464,1.7665,1.7154,1.6719,1.6574,1.6585,1.6523,1.6966,1.7397,1.6951,0.0,1.6834,1.761,1.7228,0.0,1.6679,1.6388,1.6311,0.0,0.0,1.7082,1.7456,1.7472,1.7531,1.7886,1.7996,1.834,1.9072,1.8574,1.8359,1.917,1.9677,2.0076,2.0492,2.0226,1.9863,1.9541,1.9844,2.0107,2.0195,2.17,2.2424,2.206,2.4055,2.5319,2.5518,2.6529,2.7046,2.7126,2.7272,2.7067,2.6533,2.6596,2.6584,2.6533,2.6533,2.6533,2.6496,2.6687,2.6876,2.7069,2.7272,2.8192,2.934,2.8068,2.7949,2.8412,2.7799,2.7625,2.7625,0.0,0.0,0.0,0.0,0.0,0.0,0.0,0.0,0.0,0.0,0.0,0.0,0.0,0.0,0.0,0.0,0.0,0.0,2.0187,1.9963,2.0423,2.1888,2.1765,2.2004,2.268,2.2053,2.1675,2.1615,2.1549,2.1652,2.1832,2.2071,2.2184,2.2184,2.251,2.2661,2.2602,2.2161,2.1535,2.0703,1.9913,1.8826,1.7645,1.7374,1.7217,1.718,1.7585,1.7102,0.0,0.0,1.6248,1.6611,1.6074,1.6727,1.7513,1.6901,1.7316,0.0,1.7821,0.0,0.0,0.0,1.7472,1.7543,1.7898,1.8008,1.8044,1.7954,1.8004,1.8242,1.8672,1.875,1.8867,0.0,1.8984,1.8789,1.8896,1.9424,1.9625,1.8944,1.94,1.9991,2.0751,2.0984,2.1134,2.1397,2.1889,2.2288,2.228,2.301,2.3896,2.485,2.5308,2.5898,2.6804,2.7118,2.7005,2.6533,2.6791,2.6766,2.6533,2.6533,2.6276,2.5992,2.5753,2.6232,2.7211,2.6946,2.8134,3.0028,2.9101,2.8921,2.9041,2.7964,2.7625,2.7625,0.0,0.0,0.0,0.0,0.0,0.0,0.0,0.0,0.0,0.0,0.0,0.0,0.0,0.0,0.0,0.0,0.0,0.0,0.0,1.9942,2.0336,2.1243,2.1539,2.2018,2.2702,2.22,2.2014,2.2099,2.18,2.1577,2.1517,2.1364,2.1268,2.128,2.1681,2.1945,2.2026,2.1292,2.0497,1.9593,1.8341,1.7042,1.587,1.5298,1.4968,1.5006,1.6341,1.6157,0.0,0.0,1.5834,1.6379,1.6122,1.6872,1.7782,1.7556,1.8366,1.9125,1.7946,0.0,0.0,1.7893,1.8204,1.8386,1.8238,1.8687,1.8879,1.8162,1.8383,1.8796,1.8701,1.8906,1.9033,1.8831,1.9163,1.9243,1.8655,1.9354,1.948,1.8376,1.9108,2.0194,2.1445,2.1293,2.1285,2.1907,2.1913,2.2128,2.2669,2.2731,2.3197,2.4357,2.4502,2.511,2.6214,2.6779,2.6854,2.6533,2.6866,2.6854,2.6521,2.6302,2.5988,2.5573,2.5046,2.5709,2.7166,2.6782,2.8154,3.0447,2.9819,2.9579,2.9445,2.8278,2.779,2.7625,0.0,0.0,0.0,0.0,0.0,0.0,0.0,0.0,0.0,0.0,0.0,0.0,0.0,0.0,0.0,0.0,0.0,0.0,0.0,2.0174,2.0422,2.0258,2.1182,2.1983,2.2697,2.2673,2.2904,2.344,2.2213,2.161,2.1576,2.0923,2.0669,2.0743,2.0756,2.1016,2.1462,2.0746,1.9913,1.903,1.7895,1.6619,1.5351,1.4634,1.4258,1.4179,1.4494,0.0,0.0,1.4875,1.5219,1.5639,1.6858,1.7674,0.0,1.9154,1.9959,2.0097,0.0,0.0,1.8667,1.7539,1.7604,1.8017,1.8037,1.9007,1.9493,1.8202,1.8654,1.8841,1.7487,1.793,1.8304,1.7563,1.8733,1.9397,1.8595,1.947,2.01,1.9971,1.9843,2.006,0.0,1.9668,1.9399,2.0375,2.1348,2.2301,2.3254,2.4198,2.4755,2.4781,2.5269,2.5598,2.5624,2.6201,2.6546,2.6533,2.6546,2.6546,2.6508,2.5875,2.5611,2.5573,2.5046,2.5709,2.7193,2.7179,2.8483,3.0447,2.9819,2.9579,2.9505,2.8816,2.8143,2.7625,0.0,0.0,0.0,0.0,0.0,0.0,0.0,0.0,0.0,0.0,0.0,0.0,0.0,0.0,0.0,0.0,0.0,0.0,0.0,2.0176,2.0174,2.001,2.0911,2.144,2.1365,2.1791,2.1913,2.1642,2.121,2.0633,1.9856,1.9659,1.9352,1.9058,1.9409,1.9673,1.9745,1.8643,1.8111,1.789,1.5404,1.4892,1.5416,1.3943,1.4148,1.5233,0.0,0.0,0.0,1.5286,1.5697,1.6173,1.607,1.689,1.8203,1.9984,1.942,1.8371,1.8826,0.0,1.7935,1.8614,1.9059,1.9194,1.9058,1.9418,1.9191,1.7325,1.7533,1.786,1.693,1.7308,1.7846,1.7942,1.8665,1.8994,1.8447,1.9709,2.0096,1.8301,1.9429,0.0,0.0,0.0,0.0,2.1572,2.1968,2.2468,2.3132,2.3505,2.3879,2.4268,2.4795,2.5247,2.5598,2.6163,2.6533,2.6533,2.6533,2.6264,2.5887,2.6088,2.5774,2.5084,2.5897,2.6827,2.7922,2.8446,2.9406,3.0522,3.0776,3.0073,2.8951,2.9175,2.8532,2.766,0.0,0.0,0.0,0.0,0.0,0.0,0.0,0.0,0.0,0.0,0.0,0.0,0.0,0.0,0.0,0.0,0.0,0.0,0.0,0.0,1.9566,1.9327,1.9948,2.0304,2.0316,2.0631,2.085,2.0903,1.9946,1.9037,1.8125,1.7626,1.7137,1.6731,1.7289,1.7697,1.792,1.6978,1.6589,1.64,1.4322,1.41,1.4845,1.3493,1.4128,0.0,0.0,0.0,1.6462,1.6294,1.6589,1.6987,1.6885,1.7786,1.9074,2.0025,1.9575,1.8983,2.009,1.9813,1.9423,2.0096,2.0481,2.0569,2.0099,1.951,1.8605,1.6859,1.6807,1.6801,1.578,1.6297,1.6974,1.7326,1.8055,1.867,1.8869,2.0037,2.0332,1.9003,1.9608,1.9887,0.0,0.0,0.0,2.1644,2.2083,2.2472,2.2824,2.3025,2.3422,2.4093,2.4847,2.5588,2.6167,2.696,2.7246,2.7051,2.7051,2.6843,2.6492,2.6935,2.6818,2.6335,2.704,2.7982,2.8961,2.9272,2.984,3.0522,3.0746,2.9924,2.8652,2.9071,2.8532,2.766,0.0,0.0,0.0,0.0,0.0,0.0,0.0,0.0,0.0,0.0,0.0,0.0,0.0,0.0,0.0,0.0,0.0,0.0,0.0,0.0,0.0,1.8289,1.8395,1.8776,1.943,1.9227,1.9766,2.1095,1.8553,1.7067,1.6563,1.5196,1.4392,1.4059,1.4631,1.5338,1.6087,1.5793,1.5307,1.475,1.4494,1.4215,1.379,1.3284,0.0,0.0,0.0,0.0,0.0,0.0,0.0,0.0,1.9036,2.0078,2.0639,1.9525,2.0356,2.1617,2.1636,2.2231,2.2651,2.1724,2.1787,2.1735,2.0827,1.9317,1.7789,1.6751,1.6402,1.5806,0.0,0.0,1.5905,1.5835,1.7157,1.8604,1.9962,2.0566,2.1162,0.0,0.0,0.0,0.0,0.0,0.0,2.0749,0.0,2.2297,2.2347,2.2849,2.3543,2.4292,2.5495,2.6445,2.7152,2.8326,2.8553,2.7927,2.7927,2.7913,2.7886,2.8063,2.8457,2.8878,2.8491,2.9092,3.0225,2.968,2.9827,3.0447,2.9864,2.9205,2.8607,2.8607,2.8173,2.766,0.0,0.0,0.0,0.0,0.0,0.0,0.0,0.0,0.0,0.0,0.0,0.0,0.0,0.0,0.0,0.0,0.0,0.0,0.0,0.0,0.0,0.0,0.0,0.0,0.0,0.0,0.0,0.0,1.7568,1.6901,1.6282,1.5773,1.5169,1.453,1.4471,1.456,1.4721,1.4139,1.3976,1.4013,0.0,1.3091,1.4496,0.0,0.0,0.0,0.0,0.0,0.0,0.0,0.0,0.0,0.0,1.837,1.9118,2.0279,2.0524,2.0716,2.2062,2.2381,2.2444,2.29,2.2467,2.1772,2.1005,1.9297,1.7524,1.5884,1.5887,1.5953,0.0,0.0,0.0,1.7644,1.916,0.0,2.1833,2.3666,0.0,2.403,0.0,2.3382,2.2409,2.2774,0.0,0.0,2.1869,2.2058,2.2874,2.3572,2.4118,2.4292,2.5509,2.6239,2.6472,2.7143,2.7418,2.7267,2.7267,2.7047,2.6675,2.763,2.7939,2.7765,2.9124,2.999,3.0315,3.0793,3.0785,3.0492,3.0328,2.9579,2.8607,2.8607,2.8173,2.776,0.0,0.0,0.0,0.0,0.0,0.0,0.0,0.0,0.0,0.0,0.0,0.0,0.0,0.0,0.0,0.0,0.0,0.0,0.0,0.0,0.0,0.0,0.0,0.0,0.0,0.0,0.0,0.0,0.0,0.0,1.5227,1.4668,1.4101,1.3503,1.3426,1.3488,1.3671,1.3434,0.0,0.0,0.0,0.0,0.0,0.0,0.0,0.0,0.0,0.0,0.0,0.0,0.0,1.8663,1.7996,1.8788,2.0202,2.1297,0.0,2.2053,2.365,2.3891,2.3694,2.3779,2.3176,2.2182,2.0541,1.8837,1.7277,1.5935,1.5974,0.0,1.5675,0.0,0.0,0.0,0.0,0.0,2.248,2.4687,2.6026,0.0,2.6028,0.0,2.4867,2.4886,2.4733,0.0,2.3352,2.2913,2.3332,2.3963,2.4488,2.4819,2.6064,2.706,2.7682,2.7683,2.7711,2.7711,2.7711,2.7683,2.771,2.8684,2.9085,2.9129,0.0,3.0837,3.0822,3.1023,3.0851,3.0477,3.0208,2.949,2.8644,2.8873,2.8586,2.8125,0.0,0.0,0.0,0.0,0.0,0.0,0.0,0.0,0.0,0.0,0.0,0.0,0.0,0.0,0.0,0.0,0.0,0.0,0.0,0.0,0.0,0.0,0.0,0.0,0.0,0.0,0.0,0.0,0.0,0.0,0.0,0.0,0.0,0.0,0.0,0.0,0.0,0.0,0.0,0.0,0.0,0.0,0.0,0.0,0.0,0.0,0.0,0.0,0.0,0.0,1.9692,2.002,1.9094,2.0447,2.2349,2.2409,2.3336,2.4596,2.5651,2.5987,2.5794,2.4779,2.3898,2.2574,1.9974,1.8295,1.7136,1.6479,0.0,1.645,1.6293,1.6172,1.6459,1.7605,0.0,1.9743,2.283,2.5028,2.6687,2.7704,2.7736,2.7696,2.7743,2.6816,2.6321,2.6651,2.5675,2.4638,2.3741,2.4235,2.4882,2.5618,2.6948,2.8189,2.9455,2.8951,2.8701,2.8701,2.8701,2.8951,2.9501,3.0208,3.0758,3.1285,3.1302,3.1392,3.1422,3.0791,3.0552,3.0582,2.9953,2.9355,2.8884,2.9261,2.9064,2.8731,0.0,0.0,0.0,0.0,0.0,0.0,0.0,0.0,0.0,0.0,1.3033,1.2854,0.0,0.0,0.0,0.0,0.0,0.0,0.0,0.0,0.0,0.0,0.0,0.0,0.0,0.0,0.0,0.0,0.0,0.0,0.0,0.0,0.0,0.0,0.0,0.0,0.0,0.0,0.0,0.0,0.0,0.0,0.0,0.0,0.0,0.0,0.0,0.0,0.0,0.0,1.7998,1.9338,2.0743,2.1894,2.2764,2.293,2.4734,2.6704,2.6711,2.7514,2.8079,2.6778,2.4772,2.2658,2.0934,1.8846,0.0,0.0,1.7271,1.7481,1.7552,1.7609,1.8118,1.9701,0.0,0.0,0.0,0.0,2.9306,0.0,0.0,0.0,0.0,0.0,0.0,0.0,0.0,2.7117,2.4399,2.493,2.5633,2.6377,2.7652,2.8452,2.8688,2.9061,2.9278,2.9278,2.9278,2.9061,2.8719,2.9966,3.0297,2.9953,3.0462,0.0,3.1422,3.0791,3.0836,3.1228,3.0612,3.0268,3.0043,2.9087,2.8987,2.9319,0.0,0.0,0.0,0.0,0.0,0.0,0.0,1.1761,1.1433,1.2178,1.2348,1.2287,1.1926,1.224,0.0,0.0,0.0,0.0,0.0,0.0,0.0,0.0,0.0,0.0,0.0,0.0,0.0,0.0,0.0,0.0,0.0,0.0,0.0,0.0,0.0,0.0,0.0,0.0,0.0,0.0,0.0,0.0,0.0,0.0,0.0,0.0,0.0,0.0,0.0,0.0,1.8218,1.895,2.1006,2.3349,2.5381,2.5659,2.6864,2.814,2.8498,2.8809,2.8719,2.7379,2.5163,2.2884,2.1015,0.0,0.0,0.0,1.779,1.8331,1.8358,0.0,0.0,0.0,0.0,0.0,0.0,0.0,0.0,0.0,0.0,0.0,0.0,0.0,0.0,0.0,0.0,2.9108,2.6194,2.6009,2.6296,2.7054,2.7922,2.8588,2.895,2.9271,2.9406,2.9406,2.9406,2.9416,2.9517,2.9803,3.0012,3.0099,3.0388,3.0687,3.1001,3.1031,3.1453,3.1987,3.1287,3.0983,3.0969,3.027,2.9943,2.9993,0.0,0.0,0.0,0.0,0.0,0.0,0.0,1.1124,1.0961,1.1589,1.1661,1.1613,1.1564,1.1745,1.171,0.0,0.0,0.0,0.0,0.0,0.0,0.0,0.0,0.0,0.0,0.0,0.0,0.0,0.0,0.0,0.0,0.0,0.0,0.0,0.0,0.0,0.0,0.0,0.0,0.0,0.0,0.0,0.0,0.0,0.0,0.0,0.0,0.0,0.0,0.0,1.8494,1.8806,2.0482,2.3649,2.6842,2.7102,2.8032,2.9185,3.0057,3.0134,2.9583,2.8024,2.5772,2.333,2.1054,1.9381,0.0,0.0,1.8222,1.898,1.8961,0.0,1.9143,0.0,0.0,0.0,0.0,0.0,0.0,0.0,0.0,0.0,0.0,0.0,0.0,0.0,0.0,3.0605,2.7981,2.7214,2.7094,2.7654,2.8204,2.886,2.9585,2.9572,2.9615,2.9805,2.9805,3.0008,3.0376,3.0212,3.0329,3.0725,3.0738,3.0824,3.0964,3.1358,3.187,3.232,3.183,3.1596,3.1438,3.1225,3.0888,3.0632,0.0,0.0,0.0,0.0,0.0,0.0,0.0,1.0933,1.1325,1.1586,1.114,1.0816,1.0799,1.1401,1.1415,0.0,0.0,0.0,0.0,0.0,0.0,0.0,0.0,0.0,0.0,0.0,0.0,0.0,0.0,0.0,0.0,0.0,0.0,0.0,0.0,0.0,0.0,0.0,0.0,0.0,0.0,0.0,0.0,0.0,0.0,0.0,0.0,0.0,0.0,0.0,0.0,1.8917,1.9288,2.139,2.3785,2.4172,0.0,0.0,3.0692,3.1996,3.251,2.9805,2.6999,2.4251,2.1482,0.0,0.0,1.8003,1.8693,1.9306,1.9484,1.9613,0.0,0.0,0.0,2.2086,0.0,0.0,0.0,0.0,0.0,0.0,0.0,0.0,0.0,0.0,3.3332,3.1331,2.9088,2.8479,2.8227,2.8318,2.8844,2.9469,3.0192,3.0106,3.0359,3.1015,3.1015,3.0773,3.0356,3.1581,3.1864,3.1421,3.1462,3.1826,0.0,3.1784,3.1545,3.1563,3.2185,3.1978,3.131,3.0702,3.0781,3.1155,0.0,0.0,0.0,0.0,0.0,0.0,0.9702,0.9561,1.0002,1.1425,1.0751,1.0454,1.1222,1.0768,1.016,0.0,0.0,0.0,0.0,0.0,0.0,0.0,0.0,0.0,0.0,0.0,0.0,0.0,0.0,0.0,0.0,0.0,0.0,0.0,0.0,0.0,0.0,0.0,0.0,0.0,0.0,0.0,0.0,0.0,0.0,0.0,0.0,0.0,0.0,0.0,0.0,0.0,1.6713,1.7983,0.0,0.0,2.6847,2.9278,3.0483,3.1544,3.182,2.9817,2.684,2.4039,2.259,0.0,1.8209,1.8822,1.9361,1.976,1.9834,1.9945,2.0193,0.0,0.0,0.0,0.0,0.0,0.0,0.0,0.0,0.0,0.0,0.0,0.0,0.0,3.4345,3.3035,3.2163,3.0264,2.8808,2.7942,2.9155,2.9928,3.0185,3.0806,3.1158,3.119,3.119,3.1055,3.0855,3.1047,3.1019,3.077,3.0847,3.1242,0.0,3.1589,3.1949,3.2608,3.1992,3.1814,3.1841,3.113,3.1033,3.1249,0.0,0.0,0.0,0.0,0.0,0.9121,0.8847,0.866,0.909,1.0685,1.0171,1.0114,1.122,1.0046,0.9119,0.9002,0.9179,0.0,0.0,0.0,0.0,0.0,0.0,0.0,0.0,0.0,0.0,1.0015,1.0208,0.0,0.0,0.0,0.0,0.0,0.0,0.0,0.0,0.0,0.0,0.0,0.0,0.0,0.0,0.0,0.0,0.0,0.0,0.0,0.0,0.0,0.0,0.0,0.0,0.0,0.0,0.0,2.5187,2.7364,2.927,3.0296,3.056,2.9518,2.6626,2.39,0.0,0.0,1.8763,1.9543,1.9917,2.0095,2.0093,2.0181,2.0243,0.0,0.0,1.992,2.1378,0.0,0.0,0.0,0.0,0.0,0.0,0.0,0.0,0.0,3.5117,3.4431,3.4135,3.211,3.045,2.9209,2.9929,3.0378,3.0431,3.1046,3.1271,3.1219,3.1346,3.1389,3.1351,3.1039,3.0875,3.0883,3.0965,3.1413,0.0,3.1788,3.2425,3.3354,3.2326,3.2068,3.2246,3.1879,3.1577,3.1457,0.0,0.0,0.0,0.0,0.0,0.0,0.7971,0.8576,0.9127,0.9203,0.9338,0.9683,1.0431,0.9253,0.8572,0.8971,0.8152,0.0,0.0,0.0,0.0,0.0,0.0,0.0,0.0,0.0,0.7664,0.7929,0.8137,0.839,0.8723,0.0,0.0,0.0,0.0,0.0,0.0,0.0,0.0,0.0,0.0,0.0,0.0,0.0,0.0,0.0,0.0,0.0,0.0,0.0,0.0,0.0,0.0,0.0,0.0,0.0,2.1095,2.3976,2.6848,2.8514,2.9382,2.9252,2.6687,2.4008,0.0,0.0,1.9546,2.0075,2.025,2.0295,2.0295,2.0346,2.0385,2.0314,2.0352,0.0,2.1408,0.0,0.0,0.0,0.0,0.0,0.0,0.0,0.0,3.5762,3.5684,0.0,3.4172,3.4054,3.3677,3.2882,3.1361,3.0819,3.1299,3.0574,3.0574,3.1303,3.1638,3.1771,3.1806,3.2139,3.2273,3.2266,3.2332,3.2752,0.0,3.2663,3.2796,3.3423,3.3389,3.2933,3.2354,3.2814,3.2464,3.1861,0.0,0.0,0.0,0.0,0.0,0.0,0.0,0.8208,0.8528,0.9065,0.8855,0.9084,1.0239,0.9031,0.8344,0.8893,0.8244,0.0,0.0,0.0,0.0,0.0,0.0,0.0,0.0,0.0,0.7221,0.7363,0.7694,0.8032,0.8366,0.8827,0.9216,0.0,0.0,0.0,0.0,0.0,0.0,0.0,0.0,0.0,0.0,0.0,0.0,0.0,0.0,0.0,0.0,0.0,0.0,0.0,0.0,0.0,0.0,0.0,0.0,0.0,2.2922,2.4188,2.5111,2.517,2.3506,2.1946,2.2224,0.0,1.9635,2.0216,2.0348,2.038,2.043,2.0451,2.0443,2.039,2.0419,0.0,0.0,0.0,0.0,0.0,0.0,0.0,0.0,0.0,0.0,3.6687,3.6177,3.5687,3.5347,3.525,3.4257,3.2212,3.1886,3.1531,3.1021,3.0885,3.1073,3.1565,3.1479,3.1755,3.2282,3.2389,3.2441,3.2458,3.2451,3.3164,3.4257,3.3008,3.3549,3.5063,3.4032,3.3455,3.3281,3.3424,3.2967,3.2316,0.0,0.0,0.0,0.0,0.0,0.0,0.0,0.8011,0.812,0.859,0.8312,0.8524,0.9685,0.8682,0.8168,0.8798,0.8199,0.0,0.0,0.0,0.0,0.0,0.0,0.0,0.0,0.6566,0.6705,0.6953,0.7227,0.7606,0.8059,0.8704,0.9111,0.9296,0.9564,0.0,0.0,0.0,0.0,0.0,0.0,0.0,0.8613,0.0,0.0,0.0,0.0,0.0,0.0,0.0,0.0,0.0,0.0,0.0,0.0,0.0,1.5541,0.0,0.0,2.0936,2.1847,2.2745,2.1726,0.0,0.0,0.0,1.9856,1.9938,2.0214,2.0351,2.0097,2.0293,2.0467,2.0375,2.0403,0.0,0.0,0.0,0.0,0.0,0.0,0.0,0.0,0.0,3.5685,3.6426,3.6124,3.5908,3.5907,3.5821,3.5009,3.3324,3.3068,3.2487,3.1443,3.1856,3.1978,3.188,3.2183,3.2534,3.2924,3.2733,3.2577,3.2484,3.2484,3.3208,0.0,3.3031,3.3703,3.5403,3.4146,3.365,3.3684,3.387,3.3422,3.2777,0.0,0.0,0.0,0.0,0.0,0.0,0.0,0.7925,0.7883,0.7869,0.7767,0.799,0.8786,0.8214,0.802,0.8626,0.0,0.0,0.0,0.0,0.0,0.0,0.0,0.0,0.0,0.5939,0.6142,0.6651,0.6756,0.716,0.7871,0.8756,0.9103,0.8992,0.9665,0.0,0.0,0.0,0.0,0.0,0.0,0.0,0.0,0.0,0.0,0.0,0.0,0.0,0.0,0.0,0.0,0.0,0.0,0.0,0.0,0.0,0.0,0.0,0.0,0.0,0.0,0.0,0.0,0.0,0.0,0.0,0.0,1.9397,1.9866,2.0166,1.9483,1.997,2.0423,2.0312,2.0292,0.0,0.0,0.0,0.0,0.0,0.0,0.0,0.0,0.0,3.5149,3.5263,3.563,3.5857,3.5859,3.5879,3.5836,3.5702,3.4725,3.3647,3.2457,3.3096,3.3035,3.226,3.3299,3.3733,3.3574,3.313,3.2823,0.0,3.2645,3.309,3.3697,3.2965,3.3519,3.4782,3.4052,3.375,3.3835,3.4258,3.3924,3.3343,0.0,0.0,0.0,0.0,0.0,0.0,0.0,0.0,0.0,0.0,0.762,0.7648,0.7684,0.7585,0.7541,0.0,0.0,0.0,0.0,0.0,0.0,0.0,0.0,0.0,0.0,0.5771,0.5907,0.6236,0.6617,0.731,0.828,0.8849,0.9222,0.9441,0.9569,0.9132,0.0,0.0,0.0,0.0,0.0,0.0,0.0,0.0,0.0,0.0,0.7879,0.8007,0.0,0.0,0.0,0.0,0.0,0.0,0.0,0.0,1.2816,1.3784,1.5273,0.0,1.6489,1.8285,1.7988,0.0,0.0,0.0,0.0,0.0,0.0,1.9342,1.9824,2.0063,2.0179,2.0144,0.0,0.0,0.0,0.0,0.0,0.0,0.0,0.0,0.0,0.0,3.4282,3.4878,3.5251,3.5445,3.5441,3.5651,3.5728,3.5693,3.5465,3.4842,3.3842,3.2566,3.216,3.2642,3.2017,3.2354,3.3521,3.3353,3.3616,3.4186,3.4186,3.4633,3.5299,3.4521,3.5112,3.6466,3.5671,3.5355,3.5355,3.5464,3.5007,3.4315,0.0,0.0,0.0,0.0,0.0,0.0,0.0,0.0,0.0,0.0,0.0,0.0,0.0,0.0,0.0,0.0,0.0,0.0,0.0,0.0,0.0,0.0,0.0,0.0,0.5662,0.5633,0.5752,0.6057,0.6441,0.7208,0.8362,0.9045,0.9437,0.9537,0.9003,0.8402,0.0,0.0,0.0,0.0,0.7146,0.0,0.0,0.0,0.0,0.0,0.7367,0.7532,0.0,0.7983,0.82,0.8393,0.0,0.0,0.0,0.0,1.1913,1.2898,1.3774,1.4506,1.5436,1.7168,1.6942,1.6877,0.0,0.0,0.0,0.0,0.0,0.0,1.9316,1.9459,0.0,0.0,0.0,0.0,0.0,0.0,0.0,0.0,0.0,0.0,0.0,0.0,3.264,3.338,3.3582,3.3853,3.4217,3.4212,3.452,3.5262,3.4874,3.453,3.4296,3.3257,3.2771,3.2836,3.2232,3.2326,3.3097,3.3503,3.3844,3.4169,3.4566,3.4981,3.5335,3.4883,3.5202,3.5953,3.5522,3.5334,3.5334,3.5334,3.5071,3.4674,0.0,0.0,0.0,0.0,0.0,0.0,0.0,0.0,0.0,0.0,0.0,0.0,0.0,0.0,0.0,0.0,0.0,0.0,0.0,0.0,0.0,0.0,0.0,0.58,0.5633,0.5568,0.5689,0.6009,0.6367,0.72,0.8419,0.926,0.9572,0.9339,0.8343,0.7694,0.0,0.0,0.0,0.0,0.6621,0.0,0.0,0.0,0.0,0.0,0.0,0.0,0.0,0.7679,0.7956,0.8218,0.8409,0.0,0.0,0.0,0.0,0.0,1.28,1.3837,1.5111,1.6919,1.6693,1.6445,0.0,0.0,0.0,0.0,0.0,0.0,0.0,0.0,0.0,0.0,0.0,0.0,0.0,0.0,0.0,0.0,0.0,0.0,3.0977,3.0787,3.0818,3.1513,3.1605,3.1939,3.2617,3.2369,3.2831,3.4289,3.3556,3.3414,3.3976,3.401,3.3618,3.2744,3.2663,3.2572,3.2501,3.3302,3.3574,3.3465,0.0,0.0,3.468,3.468,3.4737,3.4832,3.4851,3.4851,3.4832,3.4851,3.4851,3.4832,0.0,0.0,0.0,0.0,0.0,0.0,0.0,0.0,0.0,0.0,0.0,0.0,0.0,0.0,0.0,0.0,0.0,0.0,0.0,0.0,0.0,0.0,0.5729,0.5737,0.5774,0.5711,0.5785,0.6007,0.6895,0.7861,0.8908,0.9323,0.9307,0.8876,0.8139,0.7635,0.7294,0.6931,0.6731,0.6655,0.6633,0.0,0.0,0.0,0.0,0.0,0.0,0.0,0.0,0.7514,0.7841,0.8149,0.8348,0.0,0.0,0.0,0.0,0.0,1.2424,1.3281,1.4159,1.5949,1.5788,1.5609,0.0,0.0,0.0,0.0,0.0,0.0,0.0,0.0,0.0,0.0,0.0,0.0,0.0,0.0,0.0,0.0,0.0,2.8235,2.85,2.9263,2.998,3.0493,3.0739,3.0917,3.1049,3.1212,3.1578,3.2147,3.204,3.2147,3.2523,3.2743,3.2593,3.2038,3.1266,3.1255,3.193,3.2062,3.248,3.3087,0.0,3.3863,3.4515,3.4515,3.4894,3.5479,3.5518,3.5518,3.5479,3.5537,3.5518,3.5411,0.0,0.0,0.0,0.0,0.0,0.0,0.0,0.0,0.0,0.0,0.0,0.0,0.0,0.0,0.0,0.0,0.0,0.0,0.0,0.0,0.0,0.5662,0.5718,0.5756,0.5793,0.5837,0.5885,0.5897,0.662,0.7418,0.8301,0.8931,0.9108,0.8875,0.8018,0.747,0.7171,0.6697,0.6436,0.636,0.0,0.0,0.0,0.0,0.0,0.0,0.0,0.0,0.0,0.0,0.7546,0.7926,0.816,0.0,0.0,0.0,0.0,0.0,1.1524,1.2594,1.3689,1.4441,1.4896,1.537,0.0,0.0,0.0,0.0,0.0,0.0,0.0,0.0,0.0,0.0,0.0,0.0,0.0,0.0,0.0,0.0,0.0,2.6504,2.7518,2.7879,2.7913,2.764,2.8103,2.8491,2.8587,2.8831,2.9539,3.0899,3.0524,3.0235,3.0098,3.0394,3.0839,3.1401,3.0683,3.056,3.0964,3.1562,3.2031,3.238,0.0,3.3643,3.439,3.4478,3.4952,3.5649,3.5701,3.5681,3.5669,3.5689,3.5678,3.557,0.0,0.0,0.0,0.0,0.0,0.0,0.0,0.0,0.0,0.0,0.0,0.0,0.0,0.0,0.0,0.0,0.0,0.0,0.0,0.0,0.5576,0.5547,0.567,0.5756,0.583,0.59,0.5881,0.5793,0.6379,0.7058,0.7806,0.8587,0.8848,0.8665,0.7853,0.7332,0.7037,0.648,0.6189,0.6093,0.0,0.0,0.0,0.0,0.0,0.0,0.0,0.0,0.0,0.0,0.0,0.0,0.0,0.0,0.0,0.8521,0.9533,1.0623,1.0743,1.2005,1.3276,1.3171,0.0,1.5087,1.5381,0.0,0.0,0.0,0.0,0.0,0.0,0.0,0.0,0.0,0.0,0.0,0.0,0.0,0.0,2.5186,2.463,2.4909,2.702,2.6419,2.5625,2.5017,2.5421,2.5799,2.5966,2.6094,2.6974,2.8741,2.8167,2.7752,2.7536,2.7797,2.8614,2.9999,2.967,2.9557,2.962,3.0506,3.0906,3.095,3.1903,3.2754,3.3501,3.3795,3.453,3.5449,3.5465,3.5591,3.5763,3.5744,3.5616,3.5347,0.0,0.0,0.0,0.0,0.0,0.0,0.0,0.0,0.0,0.0,0.0,0.0,0.0,0.0,0.0,0.0,0.0,0.0,0.0,0.0,0.5482,0.5404,0.5482,0.5633,0.5893,0.5789,0.5752,0.5793,0.6711,0.7465,0.8082,0.8583,0.8451,0.7797,0.759,0.7318,0.6956,0.6364,0.6112,0.6088,0.583,0.0,0.0,0.0,0.0,0.0,0.0,0.0,0.0,0.0,0.0,0.0,0.0,0.0,0.8171,0.8428,0.9065,0.9854,1.0521,1.1675,1.2671,1.2727,0.0,0.0,1.5141,0.0,0.0,0.0,0.0,0.0,0.0,0.0,0.0,0.0,0.0,0.0,0.0,0.0,2.4591,2.7597,2.5285,2.4329,2.6537,2.4757,2.3596,2.395,2.3665,2.3425,2.3476,2.346,2.37,2.4246,2.4211,2.452,2.525,2.526,2.5889,2.7118,2.7374,2.7614,2.7797,2.7946,2.8091,2.8335,2.927,3.0199,3.1113,3.1874,3.3163,3.4682,3.4738,3.5266,3.5976,3.5917,3.537,3.466,0.0,0.0,0.0,0.0,0.0,0.0,0.0,0.0,0.0,0.0,0.0,0.0,0.0,0.0,0.0,0.0,0.0,0.0,0.0,0.0,0.5263,0.5156,0.5214,0.53,0.5396,0.5593,0.5715,0.5748,0.6389,0.6982,0.7543,0.7842,0.7883,0.7694,0.756,0.7362,0.708,0.6524,0.6306,0.6325,0.602,0.6093,0.0,0.0,0.0,0.0,0.0,0.0,0.0,0.0,0.6832,0.6996,0.7424,0.7665,0.7839,0.8109,0.8775,0.9541,1.0208,1.1411,1.2471,1.2388,0.0,0.0,0.0,0.0,0.0,0.0,0.0,0.0,0.0,0.0,0.0,0.0,0.0,0.0,0.0,2.3586,2.3485,2.462,2.384,2.3307,2.3575,2.3635,2.3151,2.1983,2.2384,2.2539,2.2165,2.2508,2.2913,2.3403,2.3419,2.3342,2.32,2.3412,2.3629,2.3892,2.5862,2.6842,2.6913,2.7294,2.7554,2.779,2.8749,2.9719,3.0697,3.1628,3.2715,3.3847,3.4468,3.4895,3.5195,3.5156,3.4941,3.4512,0.0,0.0,0.0,0.0,0.0,0.0,0.0,0.0,0.0,0.0,0.0,0.0,0.0,0.0,0.0,0.0,0.0,0.0,0.0,0.5068,0.5049,0.4951,0.4981,0.502,0.5078,0.5358,0.5473,0.5411,0.5838,0.6419,0.7107,0.7329,0.753,0.7709,0.7695,0.7517,0.7191,0.677,0.6528,0.6378,0.5998,0.6063,0.0,0.0,0.0,0.0,0.0,0.0,0.0,0.0,0.6625,0.6774,0.7169,0.7422,0.7591,0.7884,0.8573,0.9344,0.9763,1.0988,0.0,0.0,0.0,0.0,0.0,0.0,0.0,0.0,0.0,0.0,0.0,0.0,0.0,0.0,0.0,0.0,2.3221,2.2936,2.2675,2.2596,2.2461,2.2228,2.1857,2.226,2.2014,2.0688,2.1201,2.1357,2.0962,2.1311,2.1724,2.2067,2.2102,2.19,2.1528,2.1746,2.1837,2.177,2.3917,2.5145,2.558,2.6041,2.6381,2.6631,2.7981,2.8787,2.9336,3.0878,3.2053,3.2988,3.3926,3.4297,3.4296,3.4273,3.4078,3.3672,0.0,0.0,0.0,0.0,0.0,0.0,0.0,0.0,0.0,0.0,0.0,0.0,0.0,0.0,0.0,0.0,0.0,0.0,0.4812,0.4853,0.4873,0.4812,0.4793,0.4872,0.499,0.5049,0.5015,0.4805,0.5142,0.5836,0.6908,0.7171,0.7438,0.7709,0.7988,0.7806,0.7289,0.7088,0.6707,0.6171,0.5701,0.5797,0.6183,0.0,0.0,0.0,0.0,0.0,0.0,0.0,0.6616,0.6594,0.7131,0.7341,0.7469,0.7797,0.8469,0.9111,0.9189,1.0316,0.0,0.0,0.0,0.0,0.0,0.0,0.0,0.0,0.0,0.0,0.0,0.0,0.0,0.0,2.1538,2.1919,2.2619,2.2667,2.2586,2.2399,2.1394,2.1072,2.1981,2.0628,1.9874,2.028,1.9945,1.969,1.969,1.969,1.969,1.969,1.969,1.9909,2.028,2.028,2.0516,2.0991,2.1318,2.219,2.3494,2.3835,2.41,2.4433,2.6617,2.7127,2.6608,2.936,3.1079,3.207,3.3027,3.3398,3.3376,3.3313,3.274,3.1992,0.0,0.0,0.0,0.0,0.0,0.0,0.0,0.0,0.0,0.0,0.0,0.0,0.0,0.0,0.0,0.0,0.0,0.0,0.4742,0.4793,0.4783,0.4673,0.4702,0.4762,0.4852,0.4779,0.4998,0.5501,0.5404,0.5828,0.6697,0.6977,0.7201,0.7435,0.7893,0.7822,0.7363,0.746,0.7157,0.6591,0.6213,0.6207,0.639,0.0,0.0,0.0,0.0,0.0,0.0,0.0,0.0,0.0,0.6924,0.7253,0.7561,0.7665,0.8121,0.8808,0.9718,0.0,0.0,0.0,0.0,0.0,0.0,0.0,0.0,0.0,0.0,0.0,0.0,0.0,0.0,2.0493,2.0825,2.1231,2.1889,2.159,2.1255,2.122,2.0716,2.0411,2.0395,2.0246,2.0054,1.9909,1.9782,1.969,1.969,1.969,1.969,1.969,1.969,1.9747,1.9874,1.9874,2.0104,2.0516,2.0618,2.133,2.2539,2.2856,2.3408,2.4155,2.5429,2.6038,2.6279,2.8523,2.9726,3.031,3.1781,3.2346,3.2337,3.2311,3.2154,3.1842,0.0,0.0,0.0,0.0,0.0,0.0,0.0,0.0,0.0,0.0,0.0,0.0,0.0,0.0,0.0,0.0,0.0,0.0,0.0,0.0,0.4664,0.4564,0.4662,0.4722,0.4793,0.4609,0.4849,0.552,0.5388,0.5747,0.6566,0.6811,0.7072,0.7357,0.7837,0.7866,0.753,0.7708,0.7429,0.6858,0.6522,0.6418,0.6483,0.0,0.0,0.0,0.0,0.0,0.0,0.0,0.0,0.0,0.6841,0.0,0.7377,0.7315,0.7665,0.8284,0.9211,0.0,0.0,0.0,0.0,0.0,0.0,0.0,0.0,0.0,0.0,0.0,0.0,0.0,0.0,2.0365,2.0609,2.0857,2.1261,2.0961,2.0617,2.0333,2.0167,1.9965,1.9711,1.9909,1.9965,1.9711,1.969,1.969,1.969,1.969,1.969,1.969,1.969,1.969,1.969,1.969,1.9818,2.0054,2.0054,2.0518,2.1423,2.2084,2.2701,2.3312,2.4344,2.5447,2.6586,2.756,2.828,2.8869,3.0338,3.0901,3.0939,3.1239,3.1342,3.1261,0.0,0.0,0.0,0.0,0.0,0.0,0.0,0.0,0.0,0.0,0.0,0.0,0.0,0.0,0.0,0.0,0.0,0.0,0.0,0.0,0.4584,0.4495,0.4633,0.4762,0.4812,0.4612,0.4702,0.5127,0.5174,0.5637,0.6475,0.6693,0.7026,0.7439,0.7851,0.7922,0.7753,0.7865,0.7577,0.7009,0.6681,0.6544,0.6527,0.6401,0.0,0.0,0.0,0.0,0.0,0.0,0.0,0.0,0.6908,0.7036,0.7101,0.6931,0.7223,0.7719,0.0,0.0,0.0,0.0,0.0,0.0,0.0,0.0,0.0,0.0,0.0,0.0,0.0,0.0,1.9978,2.0587,2.0655,2.0655,2.0617,2.0617,2.0378,1.9765,1.969,1.969,1.969,1.969,1.969,1.969,1.969,1.969,1.969,1.969,1.969,1.969,1.969,1.969,1.969,1.969,1.969,1.969,1.969,1.9909,2.028,2.1423,2.1995,2.2163,2.34,2.5096,2.6971,2.6491,2.6798,2.7681,2.8871,2.9363,2.9452,3.0206,3.0487,3.0487,0.0,0.0,0.0,0.0,0.0,0.0,0.0,0.0,0.0,0.0,0.0,0.0,0.0,0.0,0.0,0.0,0.0,0.0,0.0,0.0,0.4644,0.4423,0.4753,0.4931,0.4951,0.5154,0.5295,0.5328,0.5185,0.5517,0.6272,0.663,0.7101,0.765,0.8003,0.8153,0.816,0.803,0.7752,0.736,0.6977,0.6845,0.6894,0.6794,0.6727,0.0,0.0,0.0,0.0,0.0,0.0,0.0,0.7235,0.7377,0.7485,0.7374,0.7545,0.796,0.0,0.0,0.0,0.0,0.0,0.0,0.0,0.0,0.0,0.0,0.0,0.0,0.0,2.0559,2.0646,2.0428,2.0389,2.0284,1.9972,1.9914,1.9854,1.9705,1.969,1.969,1.969,1.969,1.969,1.969,1.969,1.969,1.969,1.969,1.969,1.969,1.969,1.969,1.969,1.969,1.969,1.969,1.969,1.9747,1.9839,2.0418,2.1209,2.2152,2.3017,2.3889,2.4746,2.5317,2.5966,2.6765,2.8307,2.9027,2.9275,3.0121,3.0417,3.0417,0.0,0.0,0.0,0.0,0.0,0.0,0.0,0.0,0.0,0.0,0.0,0.0,0.0,0.0,0.0,0.0,0.0,0.0,0.0,0.0,0.0,0.4644,0.4843,0.4981,0.5039,0.5368,0.5663,0.5875,0.5796,0.6196,0.0,0.0,0.7586,0.8318,0.8211,0.8156,0.815,0.8049,0.7867,0.7621,0.744,0.7363,0.7332,0.7303,0.7223,0.7139,0.7155,0.0,0.0,0.0,0.0,0.0,0.0,0.0,0.747,0.7266,0.7422,0.7793,0.0,0.0,0.0,0.0,0.0,0.0,0.0,0.0,0.0,0.0,0.0,0.0,0.0,2.0682,2.0862,2.0382,2.0314,2.0158,1.9747,1.969,1.969,1.969,1.969,1.969,1.969,1.969,1.9555,1.9241,1.9211,1.9211,1.9211,1.8912,1.8897,1.9211,1.9211,1.9211,1.9211,1.9525,1.969,1.969,1.969,1.969,1.9711,2.0124,2.0847,2.1836,2.2434,2.2933,2.34,2.431,2.4874,2.534,2.6873,2.7834,2.849,2.9315,2.9965,3.0398,0.0,0.0,0.0,0.0,0.0,0.0,0.0,0.0,0.0,0.0,0.0,0.0,0.0,0.0,0.0,0.0,0.0,0.0,0.0,0.0,0.0,0.4991,0.5077,0.5195,0.5313,0.5748,0.6162,0.6532,0.0,0.0,0.0,0.0,0.0,0.8964,0.8616,0.8353,0.8189,0.8158,0.8048,0.7923,0.798,0.7909,0.7809,0.7794,0.7709,0.7576,0.7362,0.7328,0.734,0.7153,0.0,0.0,0.0,0.0,0.7406,0.7234,0.7403,0.7711,0.0,0.0,0.0,0.0,0.0,0.0,0.0,0.0,0.0,0.0,0.0,0.0,2.0058,2.0416,2.0639,2.0295,2.0244,2.0088,1.9732,1.969,1.9645,1.9525,1.9615,1.96,1.9375,1.945,1.9241,1.8583,1.8538,1.8538,1.8538,1.7981,1.7936,1.8523,1.8538,1.8538,1.8538,1.9076,1.9346,1.9346,1.9465,1.951,1.9546,1.9974,2.0602,2.1332,2.1736,2.2146,2.2574,2.3343,2.3775,2.4043,2.531,2.6371,2.7333,2.8146,2.9058,2.9857,0.0,0.0,0.0,0.0,0.0,0.0,0.0,0.0,0.0,0.0,0.0,0.0,0.0,0.0,0.0,0.0,0.0,0.0,0.535,0.0,0.0,0.5328,0.5776,0.6066,0.6138,0.6978,0.7315,0.7089,0.0,0.0,0.0,0.0,0.0,0.8947,0.0,0.0,0.8943,0.8773,0.8592,0.8399,0.8345,0.8319,0.8294,0.8182,0.8086,0.8017,0.7977,0.784,0.7665,0.7812,0.7724,0.0,0.0,0.0,0.7675,0.8142,0.8245,0.0,0.0,0.0,0.0,0.0,0.0,0.0,0.0,0.0,0.0,0.0,0.0,1.8749,1.9019,1.941,1.9752,1.9923,1.9956,1.9875,1.9743,1.969,1.9465,1.8897,1.9346,1.9226,1.8089,1.8493,1.8568,1.7876,1.7817,1.7817,1.7817,1.7742,1.7727,1.7817,1.7817,1.7817,1.7817,1.7906,1.7984,1.7951,1.8568,1.8837,1.8852,1.9491,2.0035,2.0501,2.0943,2.1516,2.219,2.2293,2.2832,2.3668,2.4611,2.5299,2.5881,2.6758,2.7342,2.7721,0.0,0.0,0.0,0.0,0.0,0.0,0.0,0.0,0.0,0.0,0.0,0.0,0.0,0.0,0.0,0.5973,0.5904,0.5785,0.5576,0.5849,0.5978,0.5898,0.666,0.7067,0.7023,0.7649,0.8034,0.8157,0.0,0.0,0.0,1.0318,1.0539,0.0,0.0,0.0,0.0,1.0318,0.9889,0.8938,0.9477,0.9314,0.874,0.8801,0.8654,0.8476,0.8686,0.8705,0.856,0.8408,0.8361,0.8377,0.8408,0.0,0.0,0.0,0.0,0.0,0.0,0.0,0.0,0.0,0.0,0.0,0.0,0.0,0.0,0.0,0.0,1.6394,1.8275,1.8936,1.9176,1.9073,1.9059,1.8952,1.8605,1.8583,1.8478,1.8194,1.8403,1.8358,1.7757,1.7984,1.7847,1.7189,1.7145,1.7145,1.7145,1.6832,1.6802,1.713,1.7145,1.7145,1.7145,1.7503,1.7697,1.7697,1.7981,1.8149,1.8164,1.8448,1.9075,2.0,2.0431,2.0782,2.1132,2.1573,2.2012,2.2419,2.2962,2.3679,2.4436,2.5066,2.5772,2.647,0.0,0.0,0.0,0.0,0.0,0.0,0.0,0.0,0.0,0.0,0.0,0.0,0.0,0.0,0.0,0.0,0.6165,0.6039,0.587,0.6506,0.6716,0.6321,0.754,0.8098,0.7778,0.8435,0.8922,0.0,0.0,0.0,1.0331,1.072,1.1507,0.0,1.2412,0.0,0.0,0.0,0.0,0.9968,1.0526,1.024,0.9476,0.9303,0.9064,0.8856,0.9286,0.9393,0.9279,0.9186,0.923,0.9325,0.9326,0.9293,0.0,0.0,0.0,0.0,0.0,0.0,0.0,0.0,0.0,0.0,0.0,0.0,0.0,0.0,1.381,1.4513,1.6793,1.7704,1.8051,1.8111,1.8113,1.8023,1.7732,1.7697,1.7637,1.7458,1.7593,1.7563,1.7266,1.7354,1.7174,1.6517,1.6458,1.6398,1.6234,1.5949,1.5919,1.6204,1.6219,1.6293,1.6458,1.6982,1.7236,1.7236,1.7354,1.7443,1.7443,1.7608,1.8268,1.9231,1.9699,2.0058,2.0348,2.0943,2.1271,2.1393,2.1578,2.2209,2.3022,2.3336,2.3978,2.481,0.0,0.0,0.0,0.0,0.0,0.0,0.0,0.0,0.0,0.0,0.0,0.0,0.7407,0.7091,0.6858,0.6774,0.6591,0.6406,0.6278,0.6844,0.6916,0.6331,0.8308,0.0,0.8282,0.9648,0.0,0.0,0.0,0.0,1.0386,1.0371,1.1053,1.2365,1.3154,1.2945,1.2041,0.0,0.0,0.0,0.0,1.0846,0.0,0.0,0.9099,0.914,0.0,0.9614,0.9432,1.0376,1.0479,1.027,1.0447,1.0383,1.0327,0.0,0.0,0.0,0.0,0.0,0.0,0.0,0.0,0.0,0.0,0.0,0.0,0.0,1.381,1.3855,1.4015,1.4837,1.5904,1.7153,1.737,1.7439,1.7657,1.7697,1.7458,1.6831,1.7309,1.7236,1.6023,1.6413,1.6488,1.5903,1.5858,1.5574,1.4932,1.5484,1.5529,1.4917,1.4887,1.5186,1.5844,1.5888,1.5903,1.5918,1.6473,1.6756,1.6786,1.7413,1.7727,1.7832,1.8478,1.9353,2.0299,2.0348,2.0601,2.1023,2.1039,2.1274,2.1619,2.1619,2.1831,2.2088,0.0,0.0,0.0,0.0,0.0,0.0,0.0,0.0,0.0,0.0,0.0,0.0,0.0,0.7938,0.7955,0.7727,0.7504,0.7183,0.6651,0.7718,0.8175,0.7797,0.9466,1.0177,0.9721,1.0345,0.0,0.0,0.0,0.9821,1.0283,1.0727,1.1335,1.2109,1.3449,1.3592,1.2879,1.383,0.0,0.0,0.0,0.0,0.0,0.0,0.0,0.0,0.0,0.0,1.0373,1.0633,1.0832,1.0992,1.1335,1.115,1.0937,1.1565,0.0,0.0,0.0,0.0,0.0,0.0,0.0,0.0,0.0,0.0,0.0,1.2523,1.2659,1.2894,1.3336,1.3913,1.4647,1.5558,1.571,1.573,1.5844,1.6204,1.6219,1.556,1.5695,1.5665,1.5186,1.4962,1.4671,1.4227,1.4376,1.4507,1.4479,1.4495,1.4588,1.4782,1.4378,1.4274,1.4513,1.4932,1.5169,1.5184,1.58,1.6114,1.6129,1.6368,1.6697,1.707,1.7309,1.811,1.9258,1.9258,1.9619,2.0189,2.0189,2.0024,1.9878,2.0187,2.011,1.9983,0.0,0.0,0.0,0.0,0.0,0.0,0.0,0.0,0.0,0.0,0.0,0.0,0.0,0.0,0.8527,0.845,0.8075,0.7731,0.7485,0.8372,0.8697,0.8252,0.9933,1.0655,1.0085,1.0713,1.0897,0.0,0.0,0.0,0.0,1.0821,1.1296,1.1695,1.2963,1.3485,0.0,0.0,0.0,1.2974,0.0,0.0,1.1386,0.0,0.0,0.0,0.0,0.0,0.0,0.0,1.127,1.1484,1.2156,0.0,0.0,0.0,0.0,0.0,0.0,0.0,0.0,0.0,0.0,0.0,0.0,0.0,0.0,1.1805,1.2003,1.2344,1.2793,1.3077,1.3567,1.4459,1.4595,1.4584,1.4479,1.4842,1.4947,1.4513,1.4453,1.4453,1.4453,1.4064,1.3719,1.3469,1.3678,0.0,1.3617,1.3627,1.3731,1.3964,1.3746,1.3574,1.3466,1.4124,1.4573,1.4797,1.5259,1.5589,1.5799,1.5799,1.5935,1.6155,1.6155,1.7122,1.8702,1.8515,1.8732,1.9182,1.9156,1.8838,1.8441,1.8927,1.8858,1.8641,0.0,0.0,0.0,0.0,0.0,0.0,0.0,0.0,0.0,0.0,0.0,0.0,0.0,0.0,0.0,0.8879,0.8199,0.8049,0.8764,0.8774,0.8413,0.7647,0.9746,1.0416,0.9292,1.0749,1.1353,0.0,0.0,0.0,0.0,0.0,1.0852,1.1139,1.1761,1.2712,1.3908,0.0,1.4438,1.427,0.0,1.245,1.2832,0.0,0.0,0.0,1.0947,1.0834,0.0,1.1853,0.0,0.0,0.0,0.0,0.0,0.0,0.0,0.0,0.0,0.0,0.0,0.0,0.0,0.0,0.0,0.0,0.0,1.1747,1.2024,1.221,1.221,1.2226,1.2644,1.393,1.4161,1.4072,1.3805,1.3795,1.3795,1.378,1.378,1.378,1.378,1.3765,1.375,1.3725,1.3725,1.3327,1.2347,1.2896,1.2939,1.2279,1.2881,1.3063,1.2762,1.3426,1.4098,1.474,1.477,1.5114,1.577,1.577,1.5507,1.5074,1.5074,1.6425,1.8574,1.8042,1.7913,1.8057,1.8075,1.7758,1.7338,1.7885,1.8066,1.8066,0.0,0.0,0.0,0.0,0.0,0.0,0.0,0.0,0.0,0.0,0.0,0.0,0.0,0.9699,0.9639,0.9158,0.8819,0.8773,0.9065,0.9525,0.989,1.0162,1.1204,1.1555,1.1085,1.1647,1.1755,1.1353,0.0,0.0,0.0,0.0,0.0,0.0,1.2173,1.2907,1.3473,1.3527,0.0,0.0,1.3293,1.2605,0.0,0.0,0.0,0.0,0.0,1.0092,1.081,0.0,1.1745,1.2154,0.0,0.0,0.0,0.0,0.0,0.0,1.1976,0.0,0.0,0.0,0.0,0.0,0.0,0.0,0.0,1.1839,1.22,1.2494,1.2494,1.2646,1.2774,1.2764,1.2985,1.3165,1.3086,1.3496,1.363,1.3121,1.3086,1.3086,1.3086,1.2643,1.2253,0.0,1.2207,1.2232,1.2021,1.2178,1.1995,1.1304,1.1468,1.1531,1.1433,1.247,1.3092,1.3303,1.4166,1.4689,1.4845,1.4845,1.4783,1.4658,1.4658,1.5318,1.6374,1.6253,1.6473,1.6973,1.7372,1.7194,1.678,1.733,1.7271,1.6951,0.0,0.0,0.0,0.0,0.0,0.0,1.0639,0.0,0.0,0.0,0.0,0.0,0.0,0.0,0.9976,0.946,0.9353,0.9368,0.9454,0.9854,1.0255,1.0688,1.1291,1.1508,1.1304,1.1617,1.1612,1.1232,0.0,0.0,0.0,0.0,0.0,0.0,0.0,0.0,0.0,0.0,0.0,0.0,1.2908,0.0,0.0,1.0767,1.0186,0.0,0.0,0.0,1.0849,1.0747,1.1364,0.0,0.0,0.0,0.0,0.0,0.0,0.0,0.0,0.0,0.0,0.0,0.0,0.0,1.133,1.1392,1.1557,0.0,1.224,1.2572,1.2494,1.2591,1.2607,1.2266,1.2295,1.2373,1.2373,1.281,1.2962,1.2441,1.2373,1.2373,1.2373,1.2029,1.1725,1.1512,1.1681,1.171,1.1493,1.1207,1.0944,1.0705,1.0691,1.0763,1.0897,1.1824,1.2292,1.2374,1.3519,1.4128,1.4159,1.4391,1.4296,1.3933,1.3933,1.3933,1.396,1.396,1.484,1.6222,1.6523,1.6284,1.5881,1.6372,1.6244,1.5744,0.0,0.0,0.0,1.0946,1.0973,1.0963,1.0979,0.0,0.9742,0.0,0.0,0.0,0.0,0.0,0.0,0.9883,0.9905,0.9975,1.0095,1.0159,1.0245,1.0361,1.0815,1.0953,1.0751,1.1069,1.1155,1.0974,0.0,0.0,0.0,0.0,0.0,0.0,0.0,0.0,0.0,0.0,0.0,1.3567,1.2186,1.1885,0.0,0.0,1.0383,1.0758,1.0054,1.0293,1.0857,1.0353,1.1016,0.0,0.0,0.0,0.0,0.0,1.2821,0.0,0.0,0.0,0.0,0.0,0.0,0.0,1.1489,1.1437,1.1445,0.0,1.2195,1.2494,1.228,1.224,1.2215,1.2128,1.194,1.1811,1.1833,1.2024,1.2066,1.1869,1.1826,1.1805,1.1805,1.1805,1.1805,1.1805,1.1783,1.1505,1.092,1.0298,1.0097,1.0322,1.0322,1.0483,1.0801,1.1314,1.1639,1.1782,1.2812,1.3315,1.3418,1.396,1.371,1.2883,1.2933,1.2507,1.1811,1.1811,1.3167,1.5267,1.5381,1.5089,1.47,1.5298,1.5141,1.4698,1.0603,0.0,0.0,1.249,1.2673,1.2629,1.2629,0.0,0.0,0.0,0.0,0.0,0.0,0.0,0.0,0.0,1.0787,1.111,1.1929,1.1992,1.2221,1.2715,1.2277,1.1916,1.1662,1.1202,1.114,1.1447,0.0,0.0,0.0,0.0,0.0,0.0,0.0,0.0,0.0,0.0,0.0,1.3528,1.328,0.0,1.1397,1.113,1.0318,0.9315,0.9151,0.9476,1.0126,1.1057,1.176,1.232,0.0,0.0,0.0,1.3121,0.0,0.0,0.0,0.0,0.0,0.0,0.0,0.0,1.1571,1.1637,1.1725,0.0,1.205,1.2195,1.1936,1.1903,1.1811,1.1586,1.1747,1.1946,1.2086,1.1982,1.1955,1.2086,1.1918,1.1805,1.1805,1.1805,1.1805,1.1805,1.1557,1.1242,1.092,1.0508,1.021,0.9995,0.9995,1.0021,1.0097,1.0634,1.0915,1.0943,1.1648,1.1804,1.1548,1.2041,1.1977,1.1514,1.1895,1.1982,1.1811,1.1811,1.2096,1.2656,1.338,1.3625,1.3602,1.4552,1.4789,1.4698,1.1498,0.0,0.0,1.307,1.3161,1.3134,1.3058,1.2645,0.0,0.0,0.0,0.0,0.0,0.0,0.0,0.0,0.0,1.1989,1.2606,1.2494,1.2796,1.3713,1.2882,1.2177,1.171,1.1307,1.115,1.1238,0.0,0.0,0.0,0.0,0.0,0.0,0.0,0.0,0.0,0.0,1.3033,1.3,1.2923,0.0,1.1391,1.0859,0.9935,0.8891,0.8891,0.9071,0.9555,1.123,1.1692,0.0,0.0,1.4039,1.4062,0.0,1.3629,1.3638,0.0,0.0,0.0,1.2112,0.0,0.0,0.0,1.1805,1.1869,1.1897,1.1811,1.1747,1.1703,1.163,1.1519,1.1421,1.1608,1.1768,1.1803,1.2035,1.2195,1.219,1.2066,1.1955,1.1811,1.1805,1.1805,1.1805,1.149,1.1173,1.092,1.0581,1.026,0.9905,0.9905,0.9905,0.9905,1.0418,1.0473,1.0049,1.1149,1.1296,1.068,1.141,1.1499,1.1046,1.1285,1.1282,1.1067,1.1067,1.1067,1.12,1.2637,1.3167,1.3249,1.3965,1.4061,1.38,1.2428,0.0,0.0,1.3461,1.3454,1.3404,1.3269,1.2698,0.0,0.0,0.0,0.0,0.0,0.0,0.0,0.0,0.0,1.2857,0.0,0.0,1.3248,1.3941,1.306,1.2356,1.1977,1.1585,1.1315,1.1202,0.0,0.0,0.0,0.0,0.0,0.0,0.0,0.0,0.0,0.0,0.0,1.2327,0.0,1.194,1.153,1.0491,0.9656,0.9037,0.91,0.919,0.9542,1.1294,1.1476,1.1368,1.3725,1.435,0.0,0.0,0.0,0.0,0.0,0.0,0.0,0.0,0.0,1.1891,0.0,0.0,0.0,0.0,0.0,0.0,0.0,0.0,0.0,0.0,0.0,0.0,0.0,1.1794,0.0,1.1993,1.205,1.2003,1.1703,1.1541,1.1511,1.1688,1.1248,1.0917,1.0811,1.0556,1.026,0.9905,0.9854,0.9802,0.9802,1.0254,1.0109,0.9427,1.0685,1.0803,0.9949,1.0826,1.0893,1.0338,1.051,1.0331,1.0,1.0079,1.0166,1.0312,1.2095,1.2797,1.2868,1.3336,1.3253,1.2881,1.3572,1.3467,0.0,0.0,1.439,1.4301,1.4172,1.4082,0.0,0.0,0.0,0.0,0.0,0.0,0.0,0.0,0.0,0.0,1.4689,0.0,0.0,1.3625,1.3011,1.2983,1.3609,1.233,1.1859,1.2319,0.0,0.0,0.0,0.0,0.0,0.0,1.2623,0.0,0.0,0.0,1.2215,0.0,1.1942,1.1793,0.0,1.0704,1.0069,0.9557,0.9786,1.0185,1.0725,0.0,1.1728,1.1671,0.0,1.38,1.4535,1.3095,0.0,0.0,0.0,0.0,0.0,0.0,1.1927,0.0,0.0,0.0,1.1906,1.1623,0.0,0.0,0.0,0.0,0.0,0.0,0.0,0.0,1.0079,1.066,1.109,1.1127,1.1571,1.1681,1.1227,1.0589,1.0534,1.1312,1.0325,0.9939,1.0419,1.0421,1.026,0.9905,0.9607,0.9449,0.9449,0.9569,0.9593,0.9477,0.9676,0.9325,0.8557,0.8901,0.8676,0.804,0.8668,0.891,0.8918,0.9399,0.9597,0.9683,1.074,1.141,1.1812,1.222,1.2586,1.2881,1.4424,1.427,0.0,0.0,1.4519,1.4422,1.4368,1.4263,0.0,0.0,0.0,0.0,0.0,0.0,0.0,0.0,0.0,1.4536,0.0,0.0,0.0,0.0,1.4049,0.0,1.3615,1.2776,1.242,1.2571,1.2333,0.0,0.0,0.0,0.0,0.0,1.2829,0.0,1.3352,0.0,1.3391,0.0,0.0,0.0,0.0,1.1043,1.0679,1.0455,1.0477,1.0606,1.0846,0.0,1.1566,0.0,0.0,0.0,0.0,1.361,0.0,0.0,0.0,0.0,0.0,0.0,0.0,0.0,1.196,0.0,1.1927,0.0,0.0,0.0,0.0,0.0,0.0,0.0,0.9766,0.0,0.0,0.0,0.9957,0.0,0.0,0.0,1.0766,1.0298,0.9875,0.9522,0.9493,0.9652,1.0033,0.9881,0.961,0.9277,0.9116,0.9184,0.9454,0.9484,0.9256,0.8818,0.9045,0.8714,0.7909,0.8255,0.8342,0.8246,0.8543,0.8716,0.8756,0.9279,0.9518,0.9576,1.027,1.0998,1.1655,1.2061,1.251,1.2881,1.496,0.0,0.0,0.0,0.0,0.0,1.435,0.0,0.0,0.0,0.0,0.0,1.4527,1.4143,0.0,0.0,1.51,1.5269,0.0,0.0,1.438,0.0,0.0,0.0,0.0,1.3489,1.3249,1.3181,0.0,0.0,0.0,0.0,0.0,0.0,0.0,1.3135,1.3538,0.0,0.0,1.2323,1.2697,1.2344,1.1607,1.1253,1.1147,1.1194,1.1042,1.1075,1.1185,1.1236,1.1609,0.0,1.4008,0.0,1.3992,0.0,0.0,0.0,1.2621,0.0,0.0,0.0,0.0,0.0,0.0,0.0,0.0,0.0,0.0,0.0,0.0,0.0,0.0,0.0,0.0,0.9333,0.0,0.9151,0.0,0.0,0.0,0.0,0.0,0.9533,0.8928,0.8504,0.8609,0.8834,0.9188,0.9138,0.8946,0.8629,0.8651,0.877,0.8991,0.904,0.8725,0.8108,0.8397,0.8184,0.7561,0.7819,0.7999,0.8134,0.8179,0.8349,0.8521,0.9079,0.9359,0.9567,1.0203,1.0949,1.1645,1.1924,1.2402,1.2881,1.5075,1.4851,0.0,0.0,0.0,0.0,0.0,0.0,0.0,0.0,0.0,0.0,0.0,0.0,0.0,0.0,0.0,1.6132,1.5844,0.0,1.4414,0.0,0.0,1.4496,0.0,0.0,1.4573,1.4624,0.0,0.0,0.0,0.0,0.0,0.0,0.0,1.3596,1.481,1.3115,1.2482,1.2517,1.1697,1.1433,1.1474,0.0,1.1268,1.1482,1.1482,0.0,0.0,1.2159,1.2086,0.0,0.0,0.0,0.0,0.0,0.0,0.0,0.0,0.0,0.0,1.2305,0.0,0.0,0.0,0.0,1.1571,0.0,0.0,0.0,0.0,0.0,0.0,0.0,0.0,0.0,0.0,0.0,0.0,0.0,0.0,0.0,0.0,0.7884,0.7461,0.9044,0.757,0.6899,0.7644,0.822,0.8439,0.8217,0.8287,0.8138,0.7763,0.7835,0.7776,0.7621,0.7629,0.7549,0.7402,0.7301,0.7012,0.6699,0.6942,0.7405,0.7953,0.8521,0.9039,0.9594,1.0519,1.1162,1.1606,1.1616,1.2175,1.2881,0.0,0.0,0.0,0.0,0.0,0.0,0.0,1.4092,0.0,0.0,0.0,0.0,0.0,1.4047,1.4018,0.0,0.0,1.5484,1.5906,1.5623,0.0,0.0,0.0,1.5409,0.0,0.0,0.0,0.0,0.0,0.0,0.0,0.0,0.0,0.0,0.0,1.4288,0.0,0.0,0.0,0.0,0.0,1.19,1.224,0.0,1.1711,1.2202,1.2026,1.2064,0.0,1.1997,1.2148,1.2528,1.328,1.354,1.3586,1.3876,1.3557,1.3094,0.0,0.0,1.2697,1.2779,0.0,0.0,0.0,0.0,0.0,0.0,0.0,0.0,0.0,0.0,0.0,0.0,0.0,0.0,0.0,0.0,0.0,0.0,0.0,0.0,0.0,0.0,0.6936,0.652,0.5097,0.4001,0.3468,0.5513,0.6678,0.6602,0.718,0.7456,0.731,0.7825,0.7783,0.7193,0.7383,0.725,0.6855,0.6816,0.6807,0.688,0.7404,0.7704,0.7953,0.8878,0.9319,0.9603,1.0539,1.1172,1.1636,1.1895,1.2373,1.2881,1.6082,0.0,0.0,0.0,0.0,0.0,0.0,0.0,0.0,0.0,1.3786,0.0,1.4006,0.0,1.3327,0.0,1.4065,1.4652,1.5519,1.555,0.0,1.6781,1.6235,0.0,0.0,0.0,0.0,0.0,0.0,1.4602,0.0,0.0,0.0,0.0,0.0,1.4931,1.5031,0.0,1.2988,0.0,0.0,1.244,0.0,0.0,1.25,1.2748,0.0,1.2671,1.2497,1.2246,1.2402,1.2793,1.3575,1.3642,1.3595,1.4156,1.3822,1.3247,1.3208,1.3071,0.0,1.3346,1.3377,0.0,1.3204,0.0,1.2955,0.0,0.0,0.0,0.0,0.0,0.0,0.0,0.0,0.0,0.0,0.999,0.0,0.0,0.0,0.0,0.0,0.0,0.6478,0.5319,0.3794,0.2777,0.2412,0.4596,0.5776,0.5591,0.6713,0.7156,0.6819,0.7433,0.7441,0.6855,0.702,0.6983,0.6747,0.6747,0.6847,0.7021,0.7405,0.7821,0.8234,0.8918,0.9439,0.989,1.0784,1.1309,1.1655,1.2061,1.251,1.2881,0.0,0.0,0.0,0.0,1.4412,0.0,0.0,0.0,1.4188,0.0,1.3224,1.2642,1.3306,1.2144,1.1667,1.2464,1.3008,1.3735,1.4712,1.5076,0.0,0.0,1.6309,1.606,1.5473,0.0,0.0,0.0,0.0,0.0,0.0,0.0,0.0,0.0,1.523,0.0,1.595,1.332,1.2257,1.238,1.2743,1.2987,1.3202,1.3675,1.354,1.3169,1.3625,1.354,1.3136,1.2936,1.2846,1.2981,1.3645,1.3829,1.3964,1.4833,1.4783,1.4406,1.4117,1.3769,1.3547,1.3901,1.3934,0.0,0.0,0.0,1.3566,0.0,0.0,0.0,0.0,0.0,0.0,0.0,0.0,0.0,0.0,0.0,0.9944,0.0,0.0,0.0,0.0,0.6778,0.6,0.5533,0.3758,0.319,0.0,0.5311,0.566,0.5163,0.6755,0.7169,0.6289,0.67,0.6798,0.6587,0.6607,0.6754,0.6979,0.6979,0.6979,0.7021,0.7021,0.7641,0.8683,0.8716,0.9359,1.0371,1.1273,1.1636,1.1724,1.21,1.2529,1.2881,1.796,1.7254,1.6448,0.0,1.5286,1.5252,0.0,0.0,0.0,0.0,1.3919,1.3435,1.2941,1.2385,1.1933,1.1647,1.2867,0.0,0.0,0.0,0.0,1.5933,1.6499,1.6278,1.5086,1.5994,0.0,1.5827,0.0,0.0,1.6692,0.0,0.0,0.0,0.0,0.0,1.5032,1.3105,1.2501,1.2977,1.3685,1.3983,1.4005,0.0,1.4495,1.4768,1.4057,1.3914,1.4019,1.366,1.354,1.366,1.4333,1.431,1.4111,1.4513,1.4374,1.3967,1.3547,1.3357,1.3323,1.3514,1.3547,1.3542,0.0,0.0,0.0,0.0,0.0,0.0,0.0,0.0,0.0,0.0,0.0,0.0,0.0,0.0,0.0,0.975,0.0,0.0,0.7838,0.5992,0.5064,0.5463,0.4664,0.4041,0.3737,0.0,0.4345,0.4598,0.5664,0.6229,0.6213,0.6834,0.6955,0.6593,0.6807,0.6947,0.6979,0.6979,0.6979,0.7021,0.7489,0.7829,0.816,0.8958,0.9439,0.9839,1.1093,1.2008,1.2606,1.2666,1.2783,1.2881,1.8549,0.0,0.0,1.6739,0.0,0.0,1.5318,1.4479,0.0,1.4472,1.4011,0.0,1.3051,1.285,1.2592,1.2207,1.3164,0.0,1.4525,0.0,0.0,1.5646,1.616,1.5943,1.4847,1.5954,0.0,1.5902,0.0,0.0,1.6974,0.0,0.0,0.0,0.0,1.5207,0.0,1.2816,1.2818,1.387,1.4274,1.4651,0.0,1.5007,1.3834,1.2408,1.4068,1.4812,1.4932,1.4408,1.4244,1.4303,1.4677,1.4464,1.4156,1.4432,1.4214,1.3802,1.3323,1.3198,1.3295,1.3626,1.3725,1.376,1.3908,1.4114,1.4179,0.0,1.3767,1.3484,0.0,0.0,0.0,0.0,0.0,0.0,0.0,0.0,0.0,0.0,1.0021,0.0,0.8187,0.7005,0.6156,0.5714,0.5178,0.4509,0.3723,0.0,0.4079,0.4522,0.5589,0.6228,0.6384,0.7022,0.7178,0.678,0.6941,0.6979,0.6979,0.6979,0.6979,0.7027,0.7503,0.7874,0.813,0.8747,0.9383,1.0098,1.1362,1.2275,1.2881,1.2881,1.2881,1.2881,0.0,0.0,0.0,0.0,0.0,0.0,0.0,1.4175,0.0,1.4701,0.0,1.3359,1.3416,1.3346,1.331,1.331,0.0,1.4117,1.4737,1.4557,1.4656,1.5216,1.5587,1.5416,1.4651,1.5896,1.6259,0.0,0.0,0.0,0.0,0.0,0.0,0.0,0.0,0.0,0.0,1.2869,1.3428,1.4929,1.4734,1.5124,1.5799,1.5799,1.2936,0.9533,1.415,1.5799,1.5709,1.5139,1.4944,1.4944,1.4944,1.4596,1.427,1.446,1.4214,1.3802,1.3323,1.3198,1.3311,1.3858,1.3972,1.4008,1.421,1.4282,1.4289,1.4157,1.3619,1.3219,1.3324,0.0,0.0,0.0,0.0,0.0,0.0,0.0,0.0,0.0,0.0,0.0,0.8529,0.8623,0.7958,0.606,0.5432,0.4782,0.3956,0.0,0.4284,0.4706,0.5864,0.6556,0.67,0.7169,0.73,0.7081,0.6956,0.6937,0.6979,0.6979,0.6979,0.7034,0.7295,0.7739,0.818,0.8268,0.9193,1.0632,1.1556,1.2291,1.2774,1.2774,1.2822,1.2881,0.0,0.0,0.0,0.0,0.0,1.6362,1.5801,1.5247,1.4878,1.4973,1.4702,1.4264,1.3708,1.3429,1.331,1.331,1.3859,0.0,0.0,0.0,0.0,1.4352,1.5171,1.5198,1.4319,1.5896,1.6244,0.0,0.0,0.0,0.0,0.0,0.0,0.0,0.0,0.0,1.3544,1.466,0.0,1.5619,1.5589,1.5664,1.5799,1.5799,1.5229,1.4539,1.5469,1.5799,1.5784,1.5664,1.5619,1.5619,1.5619,1.5301,1.4856,1.4585,1.4214,1.3802,1.3323,1.3198,1.3223,1.3311,1.3348,1.3383,1.3405,1.3702,1.3842,1.3342,1.3418,1.3169,1.1746,0.0,0.0,0.0,0.0,0.0,0.0,0.0,0.0,0.0,0.0,0.918,0.0,0.8217,0.7685,0.6175,0.5634,0.4909,0.3951,0.0,0.383,0.0,0.5076,0.5885,0.0,0.0,0.6761,0.7381,0.6668,0.6562,0.6979,0.6979,0.6979,0.6985,0.7074,0.7285,0.7685,0.8136,0.9065,1.0298,1.0508,1.1142,1.1972,1.1972,1.2393,1.2881,0.0,0.0,0.0,0.0,0.0,0.0,0.0,1.6297,1.5812,1.5315,1.506,1.4832,1.4645,1.46,1.4508,1.4255,1.4745,1.4863,1.4348,1.4483,1.4443,1.4127,1.4543,1.472,1.4511,1.5668,1.6034,1.5503,0.0,0.0,0.0,0.0,0.0,0.0,0.0,1.5288,0.0,0.0,0.0,1.5799,1.5799,1.5799,1.5799,1.5799,1.5799,1.5799,1.5799,1.5799,1.5799,1.5799,1.5799,1.5799,1.5799,1.5477,1.5013,1.4627,1.4214,1.3802,1.3323,1.3198,1.3198,1.3198,1.3012,1.2908,1.3129,1.2799,1.2423,1.2391,1.2197,1.1681,1.0452,0.9827,0.0,0.0,0.0,0.0,0.0,0.0,0.9446,0.0,0.0,0.0,0.0,0.0,0.0,0.0,0.0,0.0,0.0,0.0,0.3638,0.0,0.0,0.0,0.6228,0.0,0.6234,0.6799,0.641,0.6477,0.6979,0.6979,0.6979,0.7027,0.7188,0.7428,0.7775,0.8692,0.9232,0.9573,1.027,1.1053,1.1814,1.1783,1.2255,1.2881,0.0,1.8762,0.0,0.0,1.8485,0.0,1.7326,1.6922,1.6412,1.5654,1.5319,1.5254,1.5521,1.5712,1.5639,1.5285,1.5507,1.5329,1.4564,1.4214,1.4082,1.4169,1.4111,1.4299,1.4839,1.5371,1.5653,0.0,0.0,0.0,0.0,0.0,0.0,0.0,0.0,0.0,0.0,0.0,1.5224,1.5799,1.5799,1.5799,1.5799,1.5799,1.5799,1.5799,1.5799,1.5799,1.5799,1.5799,1.5799,1.5799,1.5799,1.5551,1.5165,1.4752,1.4342,1.3934,1.3459,1.3301,1.3163,1.3094,1.2756,1.2579,1.2838,1.1954,1.1172,1.1437,1.0697,0.9881,0.9418,0.9074,0.0,0.0,0.0,0.0,0.0,0.0,0.0,0.0,0.0,0.0,0.6682,0.0,0.0,0.0,0.0,0.0,0.3519,0.0,0.0,0.0,0.0,0.4862,0.5277,0.0,0.5723,0.6304,0.6116,0.6343,0.6979,0.6979,0.6979,0.6992,0.7268,0.7548,0.7916,0.8984,0.9153,0.8904,0.9899,1.0747,1.1366,1.1384,1.19,1.2666,0.0,0.0,0.0,0.0,0.0,0.0,1.6537,1.6575,1.6488,1.5845,1.5739,1.5724,1.577,1.5799,1.577,1.5741,1.5389,1.4968,1.4533,1.4127,1.41,1.445,1.41,1.4278,1.5048,1.5136,1.509,0.0,0.0,1.5531,0.0,0.0,0.0,0.0,0.0,0.0,0.0,1.5538,1.5724,1.5799,1.5799,1.5799,1.5799,1.5799,1.5799,1.5799,1.5799,1.5799,1.5799,1.5799,1.5799,1.5799,1.5799,1.577,1.5639,1.5165,1.4752,1.4342,1.3967,1.3514,1.3094,1.2685,1.2544,1.2389,1.2029,1.1488,1.0968,1.0517,0.9412,0.8567,0.8739,0.8262,0.7907,0.0,0.0,0.0,0.0,0.0,0.7011,0.6859,0.0,0.0,0.4985,0.4702,0.4656,0.4896,0.482,0.0,0.0,0.0,0.0,0.4342,0.4532,0.4985,0.5802,0.4972,0.5203,0.657,0.5755,0.5947,0.6979,0.6979,0.6979,0.7021,0.7054,0.7235,0.758,0.7916,0.8234,0.8486,0.8584,0.9163,0.9969,0.9969,1.0821,1.1913,0.0,0.0,0.0,0.0,0.0,0.0,0.0,1.6623,1.6473,1.5888,1.5454,1.5364,1.5754,1.5439,1.5251,1.5359,1.5477,1.5225,1.4533,1.4342,1.4342,1.4501,1.4117,1.4149,1.4721,1.4752,1.4783,0.0,0.0,0.0,0.0,0.0,0.0,0.0,0.0,1.6929,1.6422,1.6352,1.6231,1.608,1.608,1.6219,1.6382,1.6163,1.608,1.6067,1.5885,1.5799,1.5799,1.5799,1.5799,1.5799,1.5799,1.5799,1.5712,1.5225,1.4814,1.4406,1.4032,1.3547,1.3094,1.2615,1.2282,1.2029,1.1847,1.0772,0.9875,0.9917,0.8685,0.753,0.7394,0.7227,0.7161,0.7346,0.0,0.0,0.0,0.0,0.0,0.5223,0.0,0.4247,0.4279,0.4141,0.4156,0.4469,0.0,0.0,0.0,0.0,0.0,0.3956,0.0,0.4087,0.4215,0.4026,0.4509,0.5705,0.5411,0.5905,0.6979,0.6979,0.6979,0.6992,0.7208,0.7255,0.7235,0.7729,0.7889,0.791,0.8279,0.8883,0.9602,0.9739,1.0415,1.1216,2.0382,0.0,2.017,0.0,1.8957,1.8355,1.6832,1.6518,1.6293,1.5858,1.5229,1.5064,1.5724,1.5379,1.5134,1.5285,1.5477,1.5329,1.4721,1.4564,1.4564,1.4658,1.4181,0.0,1.4658,1.4438,1.4533,1.4968,1.4907,0.0,0.0,0.0,0.0,0.0,1.7765,1.7361,1.7111,1.6841,1.6622,1.6448,1.6448,1.6581,1.6763,1.6421,1.6301,1.6274,1.5926,1.5799,1.5799,1.5799,1.5799,1.5799,1.5799,1.5799,1.5712,1.5225,1.4814,1.4406,1.4032,1.3467,1.2873,1.2389,1.192,1.1542,1.1404,1.0097,0.8929,0.8885,0.7894,0.6941,0.6565,0.6488,0.6509,0.6602,0.0,0.0,0.0,0.5915,0.0,0.4173,0.3742,0.3664,0.3989,0.3876,0.3849,0.4049,0.0,0.0,0.0,0.0,0.0,0.0,0.0,0.0,0.3231,0.3616,0.4264,0.509,0.5408,0.6081,0.6979,0.6979,0.6979,0.7034,0.7241,0.7214,0.7012,0.7443,0.7635,0.7642,0.8076,0.8636,0.9264,0.943,0.9909,1.0517,2.0688,2.0582,2.0094,1.9094,1.8617,1.7941,1.6518,1.6011,1.5814,1.5799,1.5229,1.5064,1.5724,1.5784,1.5799,1.5799,1.5359,1.5104,1.5104,1.4721,1.469,0.0,0.0,1.4278,1.5074,1.431,1.431,1.5104,0.0,0.0,1.6995,0.0,1.7997,1.835,1.7418,1.6933,1.6805,1.6805,1.6805,1.6789,1.6789,1.6789,1.6763,1.6421,1.6301,1.6274,1.5926,1.5799,1.5799,1.5799,1.5799,1.5799,1.5799,1.5799,1.5712,1.5225,1.4814,1.4406,1.4032,1.3216,1.2389,1.192,1.1394,1.0905,1.0428,0.9516,0.8458,0.7206,0.6917,0.6804,0.6554,0.6183,0.5913,0.5921,0.0,0.0,0.0,0.4614,0.0,0.3894,0.3733,0.3782,0.3986,0.3808,0.0,0.0,0.0,0.0,0.0,0.0,0.0,0.3693,0.3832,0.0,0.3479,0.4089,0.4635,0.509,0.584,0.6477,0.6979,0.6979,0.6979,0.6979,0.6985,0.6985,0.7021,0.6985,0.7344,0.7882,0.7888,0.829,0.8804,0.8804,0.9263,0.9814,2.1804,2.1754,2.1194,1.9586,1.9022,1.8245,1.6557,1.6011,1.5799,1.5799,1.5619,1.5559,1.5784,1.5394,1.5304,0.0,1.5668,1.558,0.0,1.5165,1.4968,1.5104,1.5031,1.4897,1.4704,1.4573,1.4587,1.469,0.0,0.0,0.0,1.7101,1.7789,1.8725,1.8663,1.8647,1.8663,1.8877,1.884,1.8598,1.8081,1.7885,1.7811,1.6965,1.6501,1.6274,1.5926,1.558,1.5329,1.5329,1.5134,1.4907,1.4907,1.5104,1.5225,1.4814,1.4406,1.3973,1.3504,1.2951,1.2282,1.1468,1.1132,1.0791,0.9952,0.8979,0.799,0.7044,0.6838,0.6635,0.6046,0.569,0.5449,0.5362,0.5251,0.0,0.3978,0.0,0.407,0.3265,0.3202,0.332,0.3497,0.3519,0.0,0.0,0.0,0.0,0.0,0.0,0.0,0.0,0.3792,0.0,0.3715,0.4156,0.4735,0.5368,0.5926,0.6477,0.6979,0.6979,0.6979,0.6979,0.6979,0.6979,0.7034,0.7241,0.7435,0.7655,0.807,0.835,0.8537,0.8738,0.8956,0.9106,2.231,2.209,2.1427,1.9953,1.9197,1.8286,1.6897,1.6285,1.5983,1.5983,1.5885,1.5799,1.5799,1.5439,0.0,1.5769,1.5799,1.5799,1.5799,1.5551,1.5285,1.5104,1.531,1.5219,1.4814,1.4645,0.0,1.4814,1.4679,1.5358,1.6737,1.6712,1.7342,1.851,1.8461,1.8583,1.8871,1.8816,1.8824,1.8789,1.8088,1.7811,1.7694,1.6923,1.6474,1.6231,1.5711,1.5359,1.5074,1.4937,1.4721,1.447,1.431,1.4315,1.4351,1.4296,1.396,1.3483,1.2995,1.2425,1.1799,1.1169,1.0705,1.0167,0.9151,0.8422,0.7733,0.6897,0.672,0.6479,0.5676,0.5413,0.5208,0.4898,0.4823,0.4558,0.3893,0.0,0.4027,0.0,0.0,0.3541,0.0,0.3683,0.3684,0.0,0.0,0.0,0.0,0.0,0.3902,0.3917,0.414,0.4134,0.3964,0.4712,0.5287,0.5665,0.622,0.6683,0.6979,0.6979,0.7081,0.7188,0.7188,0.7255,0.7331,0.7562,0.7709,0.7889,0.8272,0.8437,0.8557,0.8738,0.8804,0.8804,2.2169,2.164,2.088,2.0044,1.9051,1.8136,1.7371,1.6722,1.6301,1.6274,1.5983,1.5799,1.5799,1.5799,1.5799,1.5799,0.0,0.0,1.5799,1.5799,1.5595,1.5192,1.5301,1.5387,1.5366,1.4618,1.4605,1.5264,1.5022,1.5519,1.6653,1.6292,1.6698,1.7754,1.7125,1.7194,1.7768,1.7162,1.7274,1.7816,1.7114,1.6827,1.6801,1.6409,1.6231,1.612,1.533,1.5043,1.4937,1.455,1.4392,1.4296,1.3888,1.3416,1.3107,1.3643,1.3416,1.2901,1.252,1.1689,1.0933,1.0905,1.0128,0.9119,0.8118,0.787,0.7616,0.6793,0.658,0.6337,0.5486,0.5261,0.5034,0.4461,0.4437,0.4332,0.3821,0.4082,0.4262,0.4164,0.0,0.0,0.4347,0.4176,0.3965,0.0,0.0,0.0,0.0,0.0,0.4495,0.3755,0.4744,0.499,0.4295,0.5582,0.6139,0.5975,0.668,0.6979,0.6979,0.6979,0.7174,0.7479,0.7506,0.7629,0.7855,0.7895,0.8123,0.8377,0.8397,0.8571,0.8804,0.8804,0.8804,0.8804,2.1109,0.0,2.0285,1.9007,1.855,1.8077,1.7065,1.6581,1.6219,1.5955,1.5856,1.5799,1.5799,1.5799,1.5799,1.5799,1.5799,1.5799,1.5799,1.5799,1.5802,1.5794,1.6246,1.6333,1.5913,1.592,1.5573,1.4831,1.4399,1.4578,1.5416,1.533,1.5752,1.662,1.6992,1.744,1.7882,1.7994,1.8289,1.8644,1.7587,1.7223,1.7152,1.6159,1.5607,1.533,1.4814,1.4438,1.4117,1.3591,1.3234,1.2906,1.2437,1.2223,1.2187,1.2696,1.2472,1.2006,1.1494,1.0885,1.0302,0.9933,0.907,0.8193,0.7953,0.753,0.7175,0.6934,0.6588,0.6133,0.567,0.5076,0.4463,0.4017,0.389,0.3719,0.331,0.3439,0.354,0.0,0.3545,0.3616,0.3785,0.3751,0.3751,0.0,0.0,0.4008,0.4008,0.4961,0.5313,0.4918,0.5178,0.5329,0.5349,0.5924,0.6404,0.6754,0.6904,0.6979,0.6979,0.6979,0.7061,0.7141,0.7412,0.7553,0.7615,0.8076,0.831,0.8397,0.8617,0.8744,0.8804,0.8804,0.8804,0.8804,2.1147,2.0492,1.9772,1.8983,1.8435,1.792,1.7354,1.6825,1.6448,1.6274,1.5983,1.5712,1.5507,1.5477,1.5418,1.5225,1.5359,1.5477,1.5477,1.5531,1.5521,1.5419,1.617,1.638,1.5916,1.6062,1.5556,1.442,1.3852,1.4007,1.4846,1.4602,1.5102,1.6135,1.6069,1.6458,1.7135,1.6787,1.6908,1.7319,1.6398,1.604,1.601,1.5343,1.4986,1.4752,1.4095,1.3703,1.345,1.2753,1.2354,1.2138,1.1884,1.1627,1.1468,1.1726,1.1446,1.0998,1.0723,1.007,0.9412,0.8918,0.8316,0.7829,0.7538,0.7231,0.6937,0.6689,0.6392,0.5962,0.5235,0.471,0.4242,0.3772,0.3707,0.3655,0.3385,0.3465,0.3541,0.3446,0.3453,0.3487,0.3571,0.3581,0.3667,0.3751,0.4085,0.0,0.414,0.5051,0.5365,0.4913,0.5642,0.6018,0.5932,0.6361,0.6732,0.6979,0.6768,0.6768,0.6979,0.6732,0.6845,0.7235,0.7439,0.7668,0.7957,0.8286,0.8457,0.8591,0.8744,0.8804,0.8804,0.8804,0.8804,0.8804,2.1182,2.0094,1.917,1.8958,1.8236,1.7635,1.7589,1.7093,1.6712,1.6659,1.608,1.5551,1.5134,1.5043,1.4876,1.4533,1.4752,1.4937,1.5013,1.5198,1.5134,1.4703,1.5722,1.611,1.5682,1.5615,1.5155,1.4211,1.3463,1.3566,1.4466,1.3904,1.4472,1.5847,1.4856,1.5025,1.597,1.4793,1.4602,1.5092,1.4455,1.4219,1.4269,1.4283,1.4251,1.4076,1.3289,1.297,1.2763,1.197,1.1664,1.1664,1.159,1.1244,1.0905,1.0905,1.0466,0.9982,1.007,0.9332,0.8439,0.7912,0.7746,0.7621,0.7105,0.6937,0.6768,0.6307,0.605,0.561,0.4609,0.4347,0.4132,0.3751,0.377,0.381,0.369,0.0,0.3775,0.3609,0.3581,0.3581,0.3581,0.3581,0.3588,0.3609,0.4203,0.4484,0.4308,0.4965,0.5051,0.4439,0.5942,0.6513,0.605,0.6513,0.6725,0.6725,0.6301,0.6343,0.6852,0.6392,0.6668,0.7513,0.7513,0.7856,0.8427,0.8427,0.8544,0.8804,0.8804,0.8804,0.8804,0.8804,0.8804,0.8804,1.9185,1.8623,1.8061,1.6964,1.6881,1.6866,1.6581,1.6448,1.6274,1.5983,1.5536,1.5165,1.5104,1.4783,1.4564,1.4501,1.4246,1.4214,1.4564,1.5035,1.5109,1.4651,1.5685,1.6102,1.5632,1.5212,1.4953,1.4777,1.3313,1.2878,1.332,1.2861,1.3412,1.4803,1.4184,1.4246,1.4809,1.3749,1.3357,1.3348,1.2914,1.2933,1.3234,1.3285,1.3073,1.2706,1.2614,1.2342,1.1898,1.1308,1.1132,1.1057,1.0659,1.0467,1.039,1.039,0.9707,0.903,0.9469,0.8837,0.787,0.7273,0.7147,0.7105,0.7021,0.6641,0.6307,0.6221,0.5394,0.4604,0.443,0.4052,0.3796,0.4005,0.3814,0.3723,0.4005,0.0,0.3642,0.3622,0.3581,0.3581,0.3581,0.3581,0.3629,0.3748,0.3757,0.3788,0.389,0.4325,0.4508,0.4391,0.5173,0.5524,0.5437,0.5518,0.5561,0.5561,0.5475,0.5739,0.6307,0.6227,0.6668,0.7513,0.7513,0.7856,0.8427,0.8427,0.8544,0.8804,0.8804,0.8804,0.8804,0.8804,0.8804,0.8804,1.9108,1.8284,1.7527,1.6952,1.6833,1.6738,1.6581,1.6184,1.5864,1.5709,1.5166,1.469,1.447,1.4278,1.4084,1.3835,1.3648,1.3615,1.3802,1.434,1.4689,1.4751,1.5526,1.5875,1.5654,1.4882,1.4342,1.4034,1.2767,1.2367,1.2812,1.253,1.3281,1.4776,1.4186,1.4218,1.4647,1.3619,1.3118,1.2948,1.2336,1.2315,1.2672,1.2461,1.2271,1.2031,1.1788,1.1542,1.1282,1.0802,1.0418,1.0137,0.9952,0.9677,0.9439,0.9439,0.9079,0.8635,0.8252,0.7807,0.7363,0.7063,0.7141,0.7168,0.6768,0.6612,0.6316,0.556,0.4947,0.4422,0.4024,0.3751,0.3667,0.3792,0.3836,0.388,0.3836,0.3836,0.3792,0.3622,0.3581,0.3581,0.3581,0.3581,0.3605,0.3673,0.3687,0.369,0.368,0.3953,0.4051,0.3968,0.4831,0.5303,0.5303,0.5303,0.5303,0.5303,0.4957,0.5368,0.6384,0.6069,0.6487,0.752,0.7642,0.7782,0.7943,0.807,0.831,0.8571,0.8571,0.8671,0.8804,0.8804,0.8804,0.8804,1.8809,1.7884,1.7087,1.683,1.6583,1.6336,1.6111,1.5577,1.5139,1.5021,1.4436,1.3881,1.3563,1.3475,1.3285,1.2908,1.2978,1.306,1.306,1.3586,1.4062,1.4447,1.4873,1.5196,1.5318,1.4285,1.3623,1.3281,1.2158,1.1925,1.2512,1.2302,1.3103,1.467,1.4044,1.4002,1.4344,1.3367,1.2794,1.2431,1.173,1.1659,1.1893,1.1685,1.1553,1.1404,1.1094,1.0943,1.0764,1.0273,0.9843,0.9478,0.9359,0.9039,0.8716,0.8716,0.8528,0.8146,0.7245,0.6979,0.6999,0.6888,0.7069,0.707,0.639,0.6313,0.6059,0.4957,0.4648,0.4361,0.3747,0.3629,0.3664,0.3714,0.0,0.3921,0.3751,0.388,0.3877,0.3622,0.3581,0.3581,0.3581,0.3581,0.3595,0.3626,0.37,0.3707,0.3632,0.37,0.3693,0.3585,0.4447,0.4918,0.4918,0.4918,0.4918,0.4918,0.4481,0.4933,0.6151,0.5692,0.611,0.7201,0.737,0.7383,0.7308,0.7544,0.7892,0.8254,0.8273,0.845,0.8697,0.8631,0.8604,0.8604,1.709,1.6802,1.6442,1.5429,1.5239,1.4939,1.4151,1.3958,1.3769,1.3275,1.2817,1.2519,1.2531,1.2175,1.1957,1.192,1.2282,1.2544,1.2544,1.3015,1.3273,1.3217,1.334,1.3645,1.4197,1.324,1.2896,1.3281,1.181,1.1509,1.2299,1.1893,1.2446,1.3882,1.3334,1.3133,1.3146,1.2224,1.1531,1.1041,1.0577,1.0419,1.0517,1.0916,1.0802,1.0467,1.0867,1.0725,1.0273,0.9716,0.9518,0.9399,0.8918,0.8716,0.8716,0.8716,0.805,0.7253,0.7045,0.6979,0.6911,0.655,0.6486,0.6378,0.5937,0.5424,0.5001,0.489,0.4443,0.4007,0.3805,0.3775,0.3869,0.4031,0.0,0.0,0.4005,0.3836,0.3622,0.3626,0.3581,0.3581,0.3581,0.3581,0.3636,0.3768,0.3663,0.3649,0.3768,0.3659,0.3592,0.3581,0.3667,0.3711,0.3711,0.3711,0.3711,0.3711,0.3802,0.4198,0.4866,0.4904,0.5467,0.6284,0.6046,0.6243,0.6696,0.6828,0.723,0.7753,0.7875,0.8143,0.8377,0.8096,0.7948,0.7948,1.6049,1.5627,1.5222,1.4794,1.4491,1.4178,1.3841,1.3297,1.2854,1.2657,1.2283,1.2031,1.2031,1.1872,1.1811,1.1811,1.1957,1.2066,1.2066,1.2246,1.2589,1.3219,1.3886,1.3887,1.3166,1.2799,1.2502,1.2307,1.1375,1.1246,1.1857,1.1925,1.2448,1.3394,1.3464,1.3349,1.3089,1.2708,1.1987,1.1055,1.0438,1.0222,1.025,1.0386,1.0183,0.9891,1.0531,1.0247,0.9543,0.9512,0.9038,0.8512,0.8485,0.8062,0.7558,0.7266,0.6954,0.6609,0.6164,0.6157,0.6206,0.5927,0.6081,0.611,0.5494,0.5306,0.5096,0.4588,0.4264,0.4033,0.3836,0.3792,0.3791,0.3773,0.0,0.3622,0.3751,0.3667,0.3581,0.3581,0.3581,0.3581,0.3581,0.3581,0.3602,0.3656,0.3609,0.3602,0.3656,0.3609,0.3581,0.3581,0.3581,0.3581,0.3581,0.3666,0.371,0.3714,0.3863,0.4322,0.5064,0.5018,0.5444,0.6176,0.611,0.6061,0.6097,0.6123,0.6518,0.7145,0.7085,0.75,0.8083,0.7922,0.7882,0.7882,1.4916,1.4588,1.4251,1.4076,1.3789,1.3498,1.3209,1.2483,1.1925,1.1743,1.1483,1.133,1.133,1.133,1.133,1.133,1.1479,1.1553,1.1553,1.17,1.2031,1.2559,1.3288,1.3197,1.2125,1.197,1.1812,1.1711,1.1155,1.1201,1.1777,1.208,1.2517,1.3053,1.3361,1.3226,1.2669,1.2574,1.1872,1.0845,1.0153,0.9945,0.9968,0.9915,0.9748,0.9557,1.0058,0.9807,0.9233,0.9257,0.8691,0.8022,0.8019,0.7435,0.6672,0.619,0.5986,0.5836,0.5419,0.5376,0.5371,0.5374,0.5625,0.5677,0.496,0.4949,0.4946,0.4319,0.4157,0.4063,0.39,0.3822,0.3744,0.3602,0.3581,0.3581,0.3581,0.3581,0.3581,0.3581,0.3581,0.3581,0.3581,0.3581,0.3581,0.3581,0.3581,0.3581,0.3581,0.3581,0.3581,0.3581,0.3581,0.3581,0.3581,0.3676,0.3748,0.3792,0.3944,0.4321,0.4884,0.4817,0.5069,0.5526,0.5489,0.538,0.522,0.5353,0.5857,0.6571,0.6568,0.7148,0.7875,0.7822,0.7642,0.7489,1.3684,1.3762,1.3631,1.3162,1.3094,1.2798,1.1945,1.1356,1.0829,1.0361,1.0283,1.0283,1.0283,1.0283,1.0283,1.0283,1.0725,1.0971,1.0981,1.1468,1.1542,1.1019,1.1019,1.1019,1.0981,1.0544,1.0764,1.1692,1.1165,1.1334,1.219,1.219,1.2461,1.2881,1.2881,1.2501,1.1787,1.1352,1.0811,1.0156,0.9657,0.9474,0.9474,0.9474,0.9474,0.9474,0.9474,0.9474,0.9382,0.8889,0.8496,0.818,0.7647,0.6874,0.6154,0.5881,0.5385,0.4911,0.4907,0.4703,0.4587,0.5004,0.5116,0.4964,0.4351,0.4197,0.4197,0.4194,0.4076,0.4022,0.4019,0.3894,0.3744,0.3602,0.3581,0.3581,0.3581,0.3581,0.3581,0.3581,0.3581,0.3581,0.3581,0.3581,0.3581,0.3581,0.3581,0.3581,0.3581,0.3581,0.3581,0.3581,0.3581,0.3581,0.3581,0.3581,0.3653,0.3792,0.3944,0.4019,0.4026,0.4123,0.4113,0.4022,0.4019,0.4019,0.4058,0.4514,0.5207,0.6052,0.6429,0.7148,0.7848,0.7582,0.7109,0.657,1.2378,1.2413,1.2342,1.2211,1.1875,1.1535,1.1271,1.084,1.0467,1.0322,1.0283,1.0283,1.0283,1.0283,1.0283,1.0283,1.0428,1.0341,0.9981,0.9728,0.9531,0.9381,1.0771,1.1356,1.0945,1.1155,1.1314,1.133,1.1637,1.1824,1.1895,1.1895,1.2009,1.2129,1.1633,1.1129,1.0694,1.0846,1.0047,0.8743,0.8693,0.8197,0.7493,0.7784,0.7691,0.7614,0.8572,0.818,0.7256,0.7827,0.7332,0.6524,0.634,0.6155,0.5815,0.5184,0.5033,0.4907,0.4396,0.4393,0.4481,0.4492,0.4584,0.4581,0.427,0.4328,0.4341,0.4131,0.4086,0.4063,0.3897,0.3822,0.3744,0.3602,0.3581,0.3581,0.3581,0.3581,0.3581,0.3581,0.3581,0.3581,0.3581,0.3581,0.3581,0.3581,0.3581,0.3581,0.3581,0.3581,0.3581,0.3581,0.3581,0.3581,0.3581,0.368,0.3748,0.3792,0.3944,0.4019,0.4019,0.3958,0.4019,0.411,0.3846,0.389,0.4151,0.3979,0.4764,0.6003,0.596,0.6428,0.7122,0.7037,0.6516,0.5841,1.0874,1.1185,1.1431,1.1185,1.1084,1.1019,1.1019,1.0611,1.0283,1.0283,1.0283,1.0283,1.0283,1.0283,1.0196,1.0,0.9804,0.9518,0.9199,0.8878,0.8716,0.8716,0.9914,1.0391,1.0026,1.0463,1.0656,1.0623,1.1127,1.1405,1.1416,1.1416,1.1416,1.1366,1.0965,1.0497,1.0071,1.0277,0.9628,0.8402,0.8453,0.793,0.7058,0.7315,0.7087,0.6691,0.7581,0.7384,0.6817,0.7132,0.666,0.5893,0.5599,0.5493,0.5345,0.4791,0.47,0.4647,0.4306,0.4324,0.4494,0.4355,0.4399,0.4426,0.4227,0.4317,0.4328,0.4148,0.4036,0.4029,0.3904,0.3785,0.368,0.3595,0.3581,0.3581,0.3581,0.3581,0.3581,0.3581,0.3581,0.3581,0.3581,0.3581,0.3602,0.3659,0.3612,0.3605,0.3659,0.3609,0.3605,0.3659,0.3663,0.3693,0.3754,0.3839,0.3849,0.3792,0.3883,0.3931,0.3927,0.3832,0.3863,0.3968,0.3697,0.3734,0.3968,0.3751,0.4415,0.5467,0.5548,0.5975,0.658,0.658,0.6052,0.5367,0.9301,1.0108,1.0647,1.0128,1.0436,1.0781,1.0781,1.0457,1.0244,1.0244,1.0283,1.0283,1.0283,1.0244,1.004,0.9558,0.8958,0.8643,0.8643,0.8594,0.8553,0.8553,0.8553,0.8553,0.8553,0.8928,0.931,0.9701,1.0074,1.0401,1.0712,1.0712,1.0661,1.0602,1.0559,1.0159,0.9496,0.9496,0.9145,0.8586,0.8533,0.8096,0.7503,0.745,0.702,0.6426,0.6475,0.6912,0.7396,0.675,0.6284,0.5906,0.5241,0.4978,0.4817,0.4527,0.4358,0.4241,0.4409,0.4508,0.4519,0.4519,0.4519,0.4426,0.4227,0.4207,0.4207,0.418,0.4005,0.3849,0.3975,0.3771,0.3581,0.3581,0.3581,0.3581,0.3581,0.3581,0.3581,0.3581,0.3581,0.3585,0.3598,0.3612,0.3673,0.3802,0.3693,0.3676,0.3805,0.369,0.368,0.3809,0.3812,0.388,0.4019,0.4019,0.3941,0.3792,0.3792,0.3785,0.3771,0.3771,0.3707,0.3598,0.3585,0.3588,0.3609,0.3737,0.417,0.4781,0.5136,0.5643,0.6113,0.6113,0.5678,0.5022,0.8528,0.8863,0.9094,0.8703,0.8941,0.9191,0.9191,0.9469,0.9677,0.9677,1.004,1.0283,1.0283,0.9922,0.9637,0.9518,0.8643,0.8077,0.8077,0.7648,0.7356,0.7356,0.7356,0.7356,0.7356,0.8813,0.9611,0.9799,1.0364,1.0444,1.0012,1.0012,0.9688,0.9148,0.8593,0.7972,0.7278,0.7278,0.723,0.702,0.6465,0.6136,0.5923,0.5386,0.5117,0.5007,0.5546,0.5814,0.5977,0.5814,0.5358,0.4845,0.4682,0.4609,0.4516,0.4307,0.4351,0.4399,0.4317,0.4375,0.4519,0.4519,0.4519,0.4426,0.4227,0.4334,0.4351,0.4117,0.4016,0.3944,0.3856,0.3697,0.3581,0.3581,0.3581,0.3581,0.3581,0.3581,0.3581,0.3581,0.3581,0.3626,0.3734,0.3853,0.3938,0.3968,0.3941,0.3938,0.3968,0.3941,0.3938,0.3968,0.3972,0.3985,0.4019,0.4019,0.3941,0.3792,0.3792,0.3734,0.3626,0.3626,0.367,0.3737,0.3629,0.3643,0.3748,0.3778,0.4285,0.5052,0.5238,0.5466,0.564,0.564,0.5104,0.4403,0.7704,0.8214,0.8577,0.8151,0.8391,0.8716,0.8716,0.8918,0.9119,0.9119,0.9359,0.9518,0.9518,0.9279,0.8999,0.8756,0.7938,0.7363,0.7112,0.681,0.6598,0.6598,0.6724,0.693,0.7235,0.8122,0.8665,0.892,0.919,0.9124,0.8764,0.8442,0.8066,0.7688,0.7331,0.6966,0.6588,0.6588,0.6804,0.7074,0.6308,0.6253,0.6411,0.5382,0.5003,0.5003,0.5003,0.5003,0.5058,0.5378,0.5054,0.4519,0.4519,0.4519,0.4501,0.4372,0.4402,0.4501,0.4372,0.4406,0.4519,0.4519,0.4519,0.4498,0.4368,0.4409,0.4474,0.4263,0.4178,0.403,0.3927,0.3839,0.3744,0.3602,0.3636,0.3656,0.3588,0.3581,0.3581,0.3581,0.3639,0.3737,0.3887,0.3972,0.405,0.4073,0.406,0.4053,0.4073,0.406,0.4053,0.4076,0.4076,0.4161,0.4229,0.4229,0.4121,0.39,0.3826,0.3717,0.3581,0.3581,0.3622,0.3687,0.3612,0.3659,0.3795,0.387,0.4188,0.458,0.4838,0.4889,0.4896,0.498,0.474,0.4341,0.7044,0.7728,0.8252,0.7755,0.8072,0.8431,0.8431,0.8513,0.8561,0.8561,0.8643,0.8716,0.8716,0.8635,0.8357,0.7787,0.7273,0.6774,0.6227,0.6184,0.6202,0.6243,0.6493,0.6902,0.7542,0.7541,0.7591,0.7811,0.7598,0.7503,0.7503,0.6912,0.6534,0.6421,0.6421,0.6367,0.6263,0.6263,0.6637,0.7283,0.6529,0.6691,0.7176,0.5814,0.5324,0.5269,0.468,0.4501,0.4532,0.5229,0.5015,0.4429,0.4512,0.4519,0.4519,0.4519,0.4519,0.4519,0.4519,0.4519,0.4519,0.4519,0.4519,0.4519,0.4519,0.4519,0.4519,0.4519,0.4348,0.4157,0.4033,0.4036,0.3941,0.3693,0.3754,0.3782,0.3636,0.3639,0.3636,0.3585,0.3727,0.389,0.4043,0.408,0.4148,0.422,0.4168,0.4151,0.4224,0.4165,0.4155,0.4227,0.4234,0.4341,0.4515,0.4491,0.4304,0.4056,0.3904,0.3754,0.3615,0.3643,0.3656,0.3653,0.3629,0.3697,0.3839,0.3919,0.3986,0.404,0.4314,0.4181,0.3924,0.432,0.4473,0.4501,0.6693,0.697,0.7148,0.6814,0.7018,0.7231,0.7231,0.7655,0.7995,0.7995,0.8398,0.8716,0.8716,0.8275,0.778,0.7189,0.7063,0.6774,0.6227,0.6184,0.6322,0.6547,0.6588,0.6994,0.7815,0.8098,0.7942,0.7395,0.6945,0.675,0.675,0.6642,0.6258,0.5651,0.5651,0.5328,0.4791,0.4791,0.5167,0.576,0.5058,0.5167,0.5706,0.4952,0.4625,0.4625,0.4515,0.4382,0.4326,0.5108,0.485,0.4244,0.4423,0.4519,0.4519,0.4519,0.4519,0.4519,0.4519,0.4519,0.4519,0.4519,0.4519,0.4519,0.4519,0.4519,0.4519,0.4519,0.4348,0.4187,0.417,0.406,0.4009,0.3968,0.3975,0.3934,0.3785,0.3877,0.3866,0.3609,0.3822,0.405,0.415,0.4328,0.4467,0.4433,0.447,0.4467,0.4433,0.447,0.4467,0.4433,0.4433,0.4498,0.4519,0.4338,0.4204,0.4164,0.4063,0.391,0.3768,0.39,0.3961,0.3951,0.3819,0.3849,0.3992,0.392,0.4009,0.4144,0.4088,0.3403,0.266,0.4018,0.4477,0.4473,0.5843,0.5902,0.5998,0.5889,0.6265,0.6562,0.6562,0.7027,0.7405,0.7405,0.7607,0.7765,0.7765,0.7523,0.7154,0.6605,0.681,0.6774,0.6227,0.6357,0.6487,0.66,0.6931,0.7369,0.7882,0.7967,0.7798,0.7291,0.7225,0.7235,0.7182,0.6804,0.6421,0.6091,0.6091,0.5932,0.5655,0.549,0.5717,0.6018,0.5121,0.5253,0.5866,0.4763,0.4606,0.4881,0.4597,0.4368,0.426,0.4709,0.4577,0.422,0.4419,0.4519,0.4519,0.4519,0.4519,0.4519,0.4519,0.4519,0.4519,0.4519,0.4519,0.4519,0.4519,0.4519,0.4519,0.4519,0.4412,0.4341,0.421,0.4256,0.4212,0.4046,0.404,0.4043,0.3941,0.3978,0.4005,0.3958,0.402,0.4206,0.4355,0.4426,0.4519,0.4519,0.4519,0.4519,0.4519,0.4519,0.4522,0.4525,0.4473,0.4473,0.448,0.4419,0.4291,0.4105,0.4227,0.4158,0.3921,0.3946,0.3929,0.3926,0.3916,0.387,0.3797,0.3907,0.3626,0.3151,0.3938,0.2912,0.1171,0.2679,0.3749,0.4487]},{"header":{"parameterUnit":"m.s-1","parameterCategory":1,"la1":30.6,"la2":28.766,"lo1":-90.7593,"lo2":-88.6598,"dy":0.0162,"dx":0.0183,"nx":116,"ny":114,"refTime":"2023-09-13T12:00:00:Z","depth":0,"parameterNumber":3,"parameterNumberName":"V-component_of_WINDS"},"data":[0.0,0.0,0.0,0.0,0.0,0.0,0.0,0.0,0.0,0.0,0.0,0.0,0.0,0.0,0.0,0.0,0.0,0.0,0.0,0.0,0.0,0.0,0.0,0.0,0.0,0.0,0.0,0.0,0.0,0.0,0.0,0.0,0.0,0.0,0.0,0.0,0.0,0.0,0.0,0.0,0.0,0.0,0.0,0.0,0.0,0.0,0.0,0.0,0.0,0.0,0.0,0.0,0.0,0.0,0.0,0.0,0.0,0.0,0.0,0.0,0.0,0.0,0.0,0.0,0.0,0.0,0.0,0.0,0.0,0.0,0.0,0.0,0.0,0.0,0.0,0.0,0.0,0.0,0.0,0.0,0.0,0.0,0.0,0.0,0.0,0.0,0.0,0.0,0.0,0.0,0.0,0.0,0.0,0.0,0.0,0.0,0.0,0.0,0.0,0.0,0.0,0.0,0.0,0.0,0.0,0.0,0.0,0.0,0.0,0.0,0.0,0.0,0.0,0.0,0.0,0.0,0.0,0.0,0.0,0.0,0.0,0.0,0.0,0.0,0.0,0.0,0.0,0.0,0.0,0.0,0.0,0.0,0.0,0.0,0.0,0.0,0.0,0.0,0.0,0.0,0.0,0.0,0.0,0.0,0.0,0.0,0.0,0.0,0.0,0.0,0.0,0.0,0.0,0.0,0.0,0.0,0.0,0.0,0.0,0.0,0.0,0.0,0.0,0.0,0.0,0.0,0.0,0.0,0.0,0.0,0.0,0.0,0.0,0.0,0.0,0.0,0.0,0.0,0.0,0.0,0.0,0.0,0.0,0.0,0.0,0.0,0.0,0.0,0.0,0.0,0.0,0.0,0.0,0.0,0.0,0.0,0.0,0.0,0.0,0.0,0.0,0.0,0.0,0.0,0.0,0.0,0.0,0.0,0.0,0.0,0.0,0.0,0.0,0.0,0.0,0.0,0.0,0.0,0.0,0.0,0.0,0.0,0.0,0.0,0.0,0.0,0.0,0.0,0.0,0.0,0.0,0.0,0.0,0.0,0.0,0.0,0.0,0.0,0.0,0.0,0.0,0.0,0.0,0.0,0.0,0.0,0.0,0.0,0.0,0.0,0.0,0.0,0.0,0.0,0.0,0.0,0.0,0.0,0.0,0.0,0.0,0.0,0.0,0.0,0.0,0.0,0.0,0.0,0.0,0.0,0.0,0.0,0.0,0.0,0.0,0.0,0.0,0.0,0.0,0.0,0.0,0.0,0.0,0.0,0.0,0.0,0.0,0.0,0.0,0.0,0.0,0.0,0.0,0.0,0.0,0.0,0.0,0.0,0.0,0.0,0.0,0.0,0.0,0.0,0.0,0.0,0.0,0.0,0.0,0.0,0.0,0.0,0.0,0.0,0.0,0.0,0.0,0.0,0.0,0.0,0.0,0.0,0.0,0.0,0.0,0.0,0.0,0.0,0.0,0.0,0.0,0.0,0.0,0.0,0.0,0.0,0.0,0.0,0.0,0.0,0.0,0.0,0.0,0.0,0.0,0.0,0.0,0.0,0.0,0.0,0.0,0.0,0.0,0.0,0.0,0.0,0.0,0.0,0.0,0.0,0.0,0.0,0.0,0.0,0.0,0.0,0.0,0.0,0.0,0.0,0.0,0.0,0.0,0.0,0.0,0.0,0.0,0.0,0.0,0.0,0.0,0.0,0.0,0.0,0.0,0.0,0.0,0.0,0.0,0.0,0.0,0.0,0.0,0.0,0.0,0.0,0.0,0.0,0.0,0.0,0.0,0.0,0.0,0.0,0.0,0.0,0.0,0.0,0.0,0.0,0.0,0.0,0.0,0.0,0.0,0.0,0.0,0.0,0.0,0.0,0.0,0.0,0.0,0.0,0.0,0.0,0.0,0.0,0.0,0.0,0.0,0.0,0.0,0.0,0.0,0.0,0.0,0.0,0.0,0.0,0.0,0.0,0.0,0.0,0.0,0.0,0.0,0.0,0.0,0.0,0.0,0.0,0.0,0.0,0.0,0.0,0.0,0.0,0.0,0.0,0.0,0.0,0.0,0.0,0.0,0.0,0.0,0.0,0.0,0.0,0.0,0.0,0.0,0.0,0.0,0.0,0.0,0.0,0.0,0.0,0.0,0.0,0.0,0.0,0.0,0.0,0.0,0.0,0.0,0.0,0.0,0.0,0.0,0.0,0.0,0.0,0.0,0.0,0.0,0.0,0.0,0.0,0.0,0.0,0.0,0.0,0.0,0.0,0.0,0.0,0.0,0.0,0.0,0.0,0.0,0.0,0.0,0.0,0.0,0.0,0.0,0.0,0.0,0.0,0.0,0.0,0.0,0.0,0.0,0.0,0.0,0.0,0.0,0.0,0.0,0.0,0.0,0.0,0.0,0.0,0.0,0.0,0.0,0.0,0.0,0.0,0.0,0.0,0.0,0.0,0.0,0.0,0.0,0.0,0.0,0.0,0.0,0.0,0.0,0.0,0.0,0.0,0.0,0.0,0.0,0.0,0.0,0.0,0.0,0.0,0.0,0.0,0.0,0.0,0.0,0.0,0.0,0.0,0.0,0.0,0.0,0.0,0.0,0.0,0.0,0.0,0.0,0.0,0.0,0.0,0.0,0.0,0.0,0.0,0.0,0.0,0.0,0.0,0.0,0.0,0.0,0.0,0.0,0.0,0.0,0.0,0.0,0.0,0.0,0.0,0.0,0.0,0.0,0.0,0.0,0.0,0.0,0.0,0.0,0.0,0.0,0.0,0.0,0.0,0.0,0.0,0.0,0.0,0.0,0.0,0.0,0.0,0.0,0.0,0.0,0.0,0.0,0.0,0.0,0.0,0.0,0.0,0.0,0.0,0.0,0.0,0.0,0.0,0.0,0.0,0.0,0.0,0.0,0.0,0.0,0.0,0.0,0.0,0.0,0.0,0.0,0.0,0.0,0.0,0.0,0.0,0.0,0.0,0.0,0.0,0.0,0.0,0.0,0.0,0.0,0.0,0.0,0.0,0.0,0.0,0.0,0.0,0.0,0.0,0.0,0.0,0.0,0.0,0.0,0.0,0.0,0.0,0.0,0.0,0.0,0.0,0.0,0.0,0.0,0.0,0.0,0.0,0.0,0.0,0.0,0.0,0.0,0.0,0.0,0.0,0.0,0.0,0.0,0.0,0.0,0.0,0.0,0.0,0.0,0.0,0.0,0.0,0.0,0.0,0.0,0.0,0.0,0.0,0.0,0.0,0.0,0.0,0.0,0.0,0.0,0.0,0.0,0.0,0.0,0.0,0.0,0.0,0.0,0.0,0.0,0.0,0.0,0.0,0.0,0.0,0.0,0.0,0.0,0.0,0.0,0.0,0.0,0.0,0.0,0.0,0.0,0.0,0.0,0.0,0.0,0.0,0.0,0.0,0.0,0.0,0.0,0.0,0.0,0.0,0.0,0.0,0.0,0.0,0.0,0.0,0.0,0.0,0.0,0.0,0.0,0.0,0.0,0.0,0.0,0.0,0.0,0.0,0.0,0.0,0.0,0.0,0.0,0.0,0.0,0.0,0.0,0.0,0.0,0.0,0.0,0.0,0.0,0.0,0.0,0.0,0.0,0.0,0.0,0.0,0.0,0.0,0.0,0.0,0.0,0.0,0.0,0.0,0.0,0.0,0.0,0.0,0.0,0.0,0.0,0.0,0.0,0.0,0.0,0.0,0.0,0.0,0.0,0.0,0.0,0.0,0.0,0.0,0.0,0.0,0.0,0.0,0.0,0.0,0.0,0.0,0.0,0.0,0.0,0.0,0.0,0.0,0.0,0.0,0.0,0.0,0.0,0.0,0.0,0.0,0.0,0.0,0.0,0.0,0.0,0.0,0.0,0.0,0.0,0.0,0.0,0.0,0.0,0.0,0.0,0.0,0.0,0.0,0.0,0.0,0.0,0.0,0.0,0.0,0.0,0.0,0.0,0.0,0.0,0.0,0.0,0.0,0.0,0.0,0.0,0.0,0.0,0.0,0.0,0.0,0.0,0.0,0.0,0.0,0.0,0.0,0.0,0.0,0.0,0.0,0.0,0.0,0.0,0.0,0.0,0.0,0.0,0.0,0.0,0.0,0.0,0.0,0.0,0.0,0.0,0.0,0.0,0.0,0.0,0.0,0.0,0.0,0.0,0.0,0.0,0.0,0.0,0.0,0.0,0.0,0.0,0.0,0.0,0.0,0.0,0.0,0.0,0.0,0.0,0.0,0.0,0.0,0.0,0.0,0.0,0.0,0.0,0.0,0.0,0.0,0.0,0.0,0.0,0.0,0.0,0.0,0.0,0.0,0.0,0.0,0.0,0.0,0.0,0.0,0.0,0.0,0.0,0.0,0.0,0.0,0.0,0.0,0.0,0.0,0.0,0.0,0.0,0.0,0.0,0.0,0.0,0.0,0.0,0.0,0.0,0.0,0.0,0.0,0.0,0.0,0.0,0.0,0.0,0.0,0.0,0.0,0.0,0.0,0.0,0.0,0.0,0.0,0.0,0.0,0.0,0.0,0.0,0.0,0.0,0.0,0.0,0.0,0.0,0.0,0.0,0.0,0.0,0.0,0.0,0.0,0.0,0.0,0.0,0.0,0.0,0.0,0.0,0.0,0.0,0.0,0.0,0.0,0.0,0.0,0.0,0.0,0.0,0.0,0.0,0.0,0.0,0.0,0.0,0.0,0.0,0.0,0.0,0.0,0.0,0.0,0.0,0.0,0.0,0.0,0.0,0.0,0.0,0.0,0.0,0.0,0.0,0.0,0.0,0.0,0.0,0.0,0.0,0.0,0.0,0.0,0.0,0.0,0.0,0.0,0.0,0.0,0.0,0.0,0.0,0.0,0.0,0.0,0.0,0.0,0.0,0.0,0.0,0.0,0.0,0.0,0.0,0.0,0.0,0.0,0.0,0.0,0.0,0.0,0.0,0.0,0.0,0.0,0.0,0.0,0.0,0.0,0.0,0.0,0.0,0.0,0.0,0.0,0.0,0.0,0.0,0.0,0.0,0.0,0.0,0.0,0.0,0.0,0.0,0.0,0.0,0.0,0.0,0.0,0.0,0.0,0.0,0.0,0.0,0.0,0.0,0.0,0.0,0.0,0.0,0.0,0.0,0.0,0.0,0.0,0.0,0.0,0.0,0.0,0.0,0.0,0.0,0.0,0.0,0.0,0.0,0.0,0.0,0.0,0.0,0.0,0.0,0.0,0.0,0.0,0.0,0.0,0.0,0.0,0.0,0.0,0.0,0.0,0.0,0.0,0.0,0.0,0.0,0.0,0.0,0.0,0.0,0.0,0.0,0.0,0.0,0.0,0.0,0.0,0.0,0.0,0.0,0.0,0.0,0.0,0.0,0.0,0.0,0.0,0.0,0.0,0.0,0.0,0.0,0.0,0.0,0.0,0.0,0.0,0.0,0.0,0.0,0.0,0.0,0.0,0.0,0.0,0.0,0.0,0.0,0.0,0.0,0.0,0.0,0.0,0.0,0.0,0.0,0.0,0.0,0.0,0.0,0.0,0.0,0.0,0.0,0.0,0.0,0.0,0.0,0.0,0.0,0.0,0.0,0.0,0.0,0.0,0.0,0.0,0.0,0.0,0.0,0.0,0.0,0.0,0.0,0.0,0.0,0.0,0.0,0.0,0.0,0.0,0.0,0.0,0.0,0.0,0.0,0.0,0.0,0.0,0.0,0.0,0.0,0.0,0.0,0.0,0.0,0.0,0.0,0.0,0.0,0.0,0.0,0.0,0.0,0.0,0.0,0.0,0.0,0.0,0.0,0.0,0.0,0.0,0.0,0.0,0.0,0.0,0.0,0.0,0.0,0.0,0.0,0.0,0.0,0.0,0.0,0.0,0.0,0.0,0.0,0.0,0.0,0.0,0.0,0.0,0.0,0.0,0.0,0.0,0.0,0.0,0.0,0.0,0.0,0.0,0.0,0.0,0.0,0.0,0.0,0.0,0.0,0.0,0.0,0.0,0.0,0.0,0.0,0.0,0.0,0.0,0.0,0.0,0.0,0.0,0.0,0.0,0.0,0.0,0.0,0.0,0.0,0.0,0.0,0.0,0.0,0.0,0.0,0.0,0.0,0.0,0.0,0.0,0.0,0.0,1.2553,0.0,0.0,0.0,0.0,0.0,0.0,0.0,0.0,0.0,0.0,0.0,0.0,0.0,0.0,0.0,0.0,0.0,0.0,0.0,0.0,0.0,0.0,0.0,0.0,0.0,0.0,0.0,0.0,0.0,0.0,0.0,0.0,0.0,0.0,0.0,0.0,0.0,0.0,0.0,0.0,0.0,0.0,0.0,0.0,0.0,0.0,0.0,0.0,0.0,0.0,0.0,0.0,0.0,0.0,0.0,0.0,0.0,0.0,0.0,0.0,0.0,0.0,0.0,0.0,0.0,0.0,0.0,0.0,0.0,0.0,0.0,0.0,0.0,0.0,0.0,0.0,0.0,0.0,0.0,0.0,0.0,0.0,0.0,0.0,0.0,0.0,0.0,0.0,0.0,0.0,0.0,0.0,0.0,0.0,0.0,0.0,0.0,0.0,0.0,0.0,0.0,0.0,0.0,0.0,0.0,0.0,0.0,0.0,0.0,0.0,0.0,0.0,0.0,0.0,0.0,0.0,1.3439,0.0,0.0,0.0,0.0,0.0,0.0,0.0,0.0,0.0,0.0,0.0,0.0,0.0,0.0,0.0,0.0,0.0,0.0,0.0,0.0,0.0,0.0,0.0,0.0,0.0,0.0,0.0,0.0,0.0,0.0,0.0,0.0,0.0,0.0,0.0,0.0,0.0,0.0,0.0,0.0,0.0,0.0,0.0,0.0,0.0,0.0,0.0,0.0,0.0,0.0,0.0,0.0,0.0,0.0,0.0,0.0,0.0,0.0,0.0,0.0,0.0,0.0,0.0,0.0,0.0,0.0,0.0,0.0,0.0,0.0,0.0,0.0,0.0,0.0,0.0,0.0,0.0,0.0,0.0,0.0,0.0,0.0,0.0,0.0,0.0,0.0,0.0,0.0,0.0,0.0,0.0,0.0,0.0,0.0,0.0,0.0,0.0,0.0,0.0,0.0,0.0,0.0,0.0,0.0,0.0,0.0,0.0,0.0,2.0473,2.1145,2.1377,2.1847,2.1419,2.0191,1.7615,1.601,1.5176,1.4638,0.0,0.0,0.0,0.0,0.0,0.0,0.0,0.0,0.0,0.0,0.0,0.0,0.0,0.0,0.0,0.0,0.0,0.0,0.0,0.0,0.0,0.0,0.0,0.0,0.0,0.0,0.0,0.0,0.0,0.0,0.0,0.0,0.0,0.0,0.0,0.0,0.0,0.0,1.3663,1.5323,1.6291,1.6607,1.5413,0.0,0.0,0.0,0.0,0.0,0.0,0.0,0.0,0.0,0.0,0.0,0.0,0.0,0.0,0.0,0.0,0.0,0.0,0.0,0.0,0.0,0.0,0.0,0.0,0.0,0.0,0.0,0.0,0.0,0.0,0.0,0.0,0.0,0.0,0.0,0.0,0.0,0.0,0.0,0.0,0.0,0.0,0.0,1.3187,1.3742,0.0,0.0,0.0,0.0,0.0,0.0,0.0,0.0,0.0,0.0,0.0,0.0,0.0,1.9602,2.1232,2.2101,2.2647,2.2862,2.3798,2.4012,2.3602,2.3621,2.3886,2.4094,2.2978,0.0,1.7159,1.6332,0.0,0.0,0.0,0.0,0.0,0.0,0.0,0.0,0.0,0.0,0.0,0.0,0.0,0.0,0.0,0.0,0.0,0.0,0.0,0.0,0.0,0.0,0.0,0.0,0.0,0.0,0.0,0.0,0.0,0.0,0.0,0.0,0.0,0.0,0.0,0.0,1.2043,1.4094,1.5532,1.7205,1.8284,1.8884,1.8874,1.7949,1.6362,1.5274,0.0,0.0,0.0,0.0,0.0,0.0,0.0,0.0,0.0,0.0,0.0,0.0,0.0,0.0,0.0,0.0,0.0,0.0,0.0,0.0,0.0,0.0,0.0,0.0,0.0,0.0,0.0,0.0,0.0,0.0,0.0,0.0,0.0,0.0,0.0,0.0,0.0,0.0,0.0,1.3861,1.4762,1.4701,1.4876,1.5034,0.0,0.0,0.0,0.0,0.0,0.0,0.0,0.0,0.0,2.0409,2.1029,2.2088,2.3653,2.4404,2.5156,2.5836,2.6986,2.7389,2.7179,2.7515,2.7364,2.6814,2.6076,2.415,2.1273,1.9245,1.7858,1.684,0.0,0.0,0.0,0.0,1.4317,1.4468,0.0,0.0,0.0,0.0,0.0,0.0,0.0,0.0,0.0,0.0,0.0,0.0,0.0,0.0,0.0,0.6917,0.0,0.0,0.0,0.0,0.0,0.0,0.0,0.0,0.0,0.0,0.0,0.0,1.4569,1.6383,1.7768,1.913,2.0123,2.0793,2.1426,2.0269,1.7843,1.6715,1.5834,0.0,0.0,0.0,0.0,0.0,0.0,0.0,0.0,0.0,0.0,0.0,0.0,0.0,0.0,0.0,0.0,0.0,0.0,0.0,0.0,0.0,0.0,0.0,0.0,0.0,0.0,0.0,0.0,0.0,0.0,0.0,0.0,0.0,0.0,0.0,0.0,0.0,0.0,1.4814,1.5806,1.5482,1.5965,1.6395,0.0,0.0,0.0,0.0,0.0,0.0,1.9611,2.0611,2.1879,2.3578,2.4028,2.4941,2.6513,2.6836,2.7528,2.8592,2.9609,3.0088,3.0103,3.0552,3.0196,2.9157,2.8307,2.6919,2.4922,2.1933,1.9933,1.8597,1.7629,1.7075,1.6773,1.6409,1.6617,1.7042,0.0,0.0,0.0,0.0,0.0,0.0,0.0,0.0,0.0,0.0,0.0,0.0,0.0,0.0,0.753,0.9257,0.8709,0.8733,0.0,0.0,0.0,0.0,0.0,0.0,0.0,0.0,0.0,1.4639,1.6461,1.8545,2.0796,2.1332,2.1949,2.2547,2.1964,2.134,2.0592,1.9286,1.8097,1.6934,0.0,0.0,0.0,0.0,0.0,0.0,0.0,0.0,0.0,0.0,0.0,0.0,0.0,0.0,0.0,0.0,0.0,0.0,0.0,0.0,0.0,0.0,0.0,0.0,0.0,0.0,0.0,0.0,0.0,0.0,0.0,0.0,0.0,0.0,0.0,0.0,0.0,0.0,0.0,1.5837,1.6632,0.0,0.0,0.0,0.0,1.9988,2.0612,2.1735,2.3591,2.4382,2.5835,2.8174,2.8263,2.9203,3.1153,3.0556,3.0586,3.1273,3.1347,3.1377,3.1377,3.1407,3.1407,3.1275,2.9813,2.8436,2.6934,2.3795,2.1663,2.0325,1.9753,1.9362,1.9089,1.8689,1.8513,1.8483,0.0,0.0,0.0,0.0,0.0,0.0,0.0,0.0,0.0,0.0,0.0,0.0,0.0,0.8146,0.9579,1.0311,1.0643,1.0671,1.0387,0.0,0.0,0.0,0.0,0.0,0.0,0.0,1.4728,1.6528,1.8641,2.0727,2.2666,2.2461,2.3131,2.4537,2.3879,2.324,2.2505,2.0306,1.9249,1.874,1.6357,1.4852,0.0,0.0,0.0,0.0,0.0,0.0,0.0,0.0,0.0,0.0,0.0,0.0,0.0,0.0,0.0,0.0,0.0,0.0,0.0,0.0,0.0,0.0,0.0,0.0,0.0,0.0,0.0,0.0,0.0,0.0,0.0,0.0,0.0,0.0,0.0,0.0,0.0,1.936,2.076,0.0,2.1938,2.2051,2.2629,2.3818,2.4798,2.601,2.7512,2.8247,2.9213,3.0508,3.093,3.1506,3.2153,3.1928,3.1928,3.2153,3.1734,3.1482,3.1482,3.1482,3.1482,3.1422,3.0093,2.8641,2.7145,2.5189,2.3316,2.1625,2.1074,2.0794,2.0685,2.0551,2.0717,2.0937,0.0,0.0,0.0,0.0,0.0,0.0,0.0,0.0,0.0,0.0,0.0,0.5605,0.7387,0.9589,1.1083,1.1462,1.182,1.184,1.1382,0.0,0.0,0.0,0.0,0.0,0.0,1.4482,1.6682,1.8397,2.0296,2.2292,2.4268,2.3625,2.4268,2.5914,2.5255,2.4582,2.3819,2.1844,2.0546,1.9642,1.7648,1.6429,1.559,0.0,0.0,0.0,0.0,0.0,0.0,0.0,0.0,0.0,0.0,0.0,0.0,0.0,0.0,0.0,0.0,0.0,0.0,0.0,0.0,0.0,0.0,0.0,0.0,0.0,0.0,0.0,0.0,0.0,0.0,0.0,0.0,0.0,0.0,0.0,2.1361,2.2404,2.3989,2.5093,2.5552,2.5809,2.6351,2.7299,2.8598,2.9827,3.0935,3.1629,3.2332,3.2971,3.3168,3.3129,3.2821,3.2609,3.2402,3.2183,3.1676,3.1482,3.1482,3.1482,3.1482,3.1407,3.0148,2.8735,2.7173,2.5938,2.4269,2.2548,2.2184,2.2046,2.2071,2.2259,2.2447,2.2409,0.0,0.0,0.0,0.0,0.0,0.0,0.0,0.0,0.0,0.0,0.4332,0.6327,0.8391,1.0446,1.1988,1.2803,1.2106,1.1959,1.2783,1.0422,0.0,0.0,0.0,0.0,1.2257,1.57,1.8346,2.0158,2.1341,2.3216,2.56,2.4881,2.5345,2.6587,2.5929,2.5285,2.4597,2.3984,2.2188,1.9758,1.9317,1.8547,1.7574,0.0,0.0,0.0,0.0,0.0,0.0,0.0,0.0,0.0,0.0,0.0,0.0,0.0,0.0,0.0,0.0,0.0,0.0,0.0,0.0,0.0,0.0,0.0,0.0,0.0,0.0,0.0,0.0,0.0,0.0,0.0,0.0,0.0,1.9247,2.0774,2.2667,2.4728,2.6037,2.7166,2.8033,2.9006,2.9847,3.0467,3.1836,3.299,3.3804,3.4478,3.5117,3.5732,3.5075,3.4333,3.3522,3.2887,3.2262,3.1497,3.1482,3.1482,3.1482,3.1482,3.1482,3.1407,3.0163,2.8749,2.7273,2.5965,2.458,2.315,2.3138,2.3078,2.314,2.3766,2.3615,2.2884,0.0,0.0,0.0,0.0,0.0,0.0,0.0,0.0,0.0,0.0,0.4872,0.7111,0.9065,1.1194,1.2617,1.2861,1.1777,1.1199,1.1433,0.0,0.0,0.0,0.0,0.0,1.5896,1.8188,2.0014,2.1413,2.257,2.3971,2.56,2.4881,2.5585,2.7275,2.6617,2.6213,2.6033,2.5839,2.4507,2.2353,2.034,1.9119,1.8355,0.0,0.0,0.0,0.0,0.0,0.0,0.0,0.0,0.0,0.0,0.0,0.0,0.0,0.0,0.0,0.0,0.0,0.0,0.0,0.0,0.0,0.0,0.0,0.0,0.0,0.0,0.0,0.0,0.0,0.0,0.0,0.0,2.1568,2.1376,2.4608,2.7398,2.851,3.0363,3.1834,3.2597,3.3412,3.4213,3.4987,3.5866,3.6525,3.6718,3.6417,3.6339,3.6512,3.5271,3.4517,3.4395,3.3115,3.2404,3.2243,3.1706,3.1482,3.1482,3.1482,3.1482,3.1422,3.0627,2.969,2.8741,2.7454,2.6033,2.4549,2.3517,2.3078,2.309,2.3314,2.3215,2.2944,0.0,0.0,0.0,0.0,0.0,0.0,0.0,0.0,0.0,0.0,0.4946,0.7403,0.9148,1.1267,1.2529,1.239,1.1543,1.088,1.0591,0.0,0.0,0.0,0.0,1.4704,1.7765,1.953,2.1034,2.225,2.3437,2.4567,2.5615,2.5495,2.6213,2.761,2.7171,2.6841,2.6587,2.6587,2.5764,2.4283,2.2488,2.1361,2.064,1.8838,1.8385,1.8516,1.717,1.6294,1.5672,1.4803,0.0,0.0,0.0,0.0,0.0,0.0,0.0,0.0,0.0,0.0,0.0,0.0,0.0,0.0,0.0,0.0,0.0,0.0,0.0,0.0,0.0,0.0,0.0,0.0,2.2703,2.4415,2.4961,2.7612,3.0074,3.1749,3.3085,3.4286,3.5351,3.5842,3.6417,3.7195,3.7939,3.8362,3.8362,3.8244,3.8031,3.7753,3.6542,3.5546,3.4691,3.351,3.2626,3.2093,3.1719,3.1482,3.1482,3.1482,3.1482,3.1422,3.0522,2.9832,2.9276,2.7384,2.6061,0.0,0.0,0.0,0.0,0.0,2.3033,2.2812,0.0,0.0,0.0,0.0,0.0,0.0,0.0,0.0,0.0,0.0,0.0,0.7213,0.8774,1.0817,1.1869,1.148,1.1113,1.0656,0.0,0.0,0.0,1.1587,1.3683,1.6028,1.8629,2.0197,2.158,2.2785,2.4014,2.4956,2.5615,2.6288,2.6946,2.7625,2.7625,2.7245,2.6692,2.6692,2.6318,2.5674,2.5091,2.4403,2.3477,2.1374,2.1633,2.2717,2.0048,1.8767,1.8297,1.7361,0.0,0.0,0.0,0.0,0.0,0.0,0.0,0.0,0.0,0.0,0.0,0.0,0.0,0.0,0.0,0.0,0.0,0.0,0.0,0.0,0.0,0.0,0.0,0.0,2.5562,2.7537,2.9245,3.0057,3.1444,3.4066,3.4523,3.5182,3.6637,3.6857,3.7195,3.7855,3.865,3.9039,3.887,0.0,0.0,0.0,0.0,3.649,3.4745,3.3817,3.2745,3.1482,3.1482,3.1482,3.1482,3.1482,3.1482,3.1407,3.0298,2.9684,2.9319,2.6835,2.5581,2.5117,2.4445,2.3708,2.3078,2.3078,2.2936,2.2635,0.0,0.0,0.0,0.0,0.0,0.0,0.0,0.0,0.0,0.2652,0.4515,0.6271,0.7882,0.9907,1.0997,1.0606,0.9756,0.9177,0.0,0.0,1.1802,1.3485,1.528,1.7555,2.0348,2.1134,2.2158,2.3421,2.4194,2.4956,2.5615,2.6288,2.6946,2.7625,2.7625,2.755,2.738,2.738,2.7006,2.6393,2.6258,2.5495,2.4283,2.3299,2.318,2.3331,2.2292,2.1491,2.0854,1.9778,1.8695,1.7584,1.6452,0.0,0.0,0.0,0.0,0.0,0.0,0.0,0.0,0.0,0.0,0.0,0.0,0.0,0.0,0.0,0.0,0.0,0.0,0.0,0.0,2.6461,2.7868,2.9482,3.2171,3.2679,3.2983,3.3541,3.4675,3.5774,3.6688,3.733,3.7753,3.7889,3.9123,3.936,3.8176,3.7653,3.765,3.8011,3.5614,3.4429,3.4716,3.3386,3.2285,3.1482,0.0,0.0,3.1482,3.1482,3.1482,3.1467,3.127,3.0719,3.0069,2.8956,2.7187,2.5024,2.3821,2.3245,2.3078,2.3078,2.308,2.2898,0.0,0.0,0.0,0.0,0.0,0.0,0.0,0.0,0.0,0.0,0.3953,0.5481,0.6607,0.8448,0.9393,0.8865,0.8324,0.0,0.0,1.1253,1.3227,1.5234,1.7235,1.9251,2.1255,2.1899,2.2824,2.4118,2.4792,2.545,2.6123,2.6782,2.726,2.7625,2.7625,2.7625,2.7625,2.7625,2.7564,2.754,2.754,2.7317,2.6808,2.5183,2.4972,2.5392,2.4402,2.3398,2.2484,2.1934,2.0789,1.9418,1.8261,1.7425,1.6402,0.0,0.0,0.0,0.0,0.0,0.0,0.0,0.0,0.0,0.0,0.0,0.0,0.0,0.0,2.1224,0.0,0.0,2.6929,2.9659,3.0409,3.1275,3.3136,3.3728,3.3947,3.3947,3.4945,3.5926,3.6705,3.711,3.7652,3.8396,3.8785,3.8836,3.8464,3.775,3.7319,3.7277,3.5556,3.4469,3.4219,3.3394,3.2512,3.1482,3.1869,3.1795,3.1482,3.1482,3.1482,3.1452,3.1165,3.0773,3.0265,2.8526,2.6553,2.4458,2.3472,2.3078,2.3078,2.3078,2.3078,2.3065,0.0,0.0,0.0,0.0,0.0,0.0,0.0,0.0,0.0,0.0,0.3064,0.448,0.5027,0.657,0.7342,0.0,0.0,0.0,0.0,1.224,1.4474,1.6632,1.8614,2.0226,2.1506,2.2161,2.3149,2.4431,2.5224,2.5944,2.6602,2.726,2.7625,2.7625,2.7625,2.7625,2.7625,2.7625,2.7959,2.8511,2.8511,2.8794,2.8936,2.6903,2.6734,2.7363,2.587,2.444,2.3219,2.3297,2.2049,2.0348,1.9626,1.8988,1.7935,1.48,1.4324,0.0,0.0,0.0,0.0,0.0,0.0,0.0,0.0,0.0,1.9477,2.1104,2.3054,2.5112,2.7273,2.8642,3.0111,3.2158,3.2256,3.2374,3.3288,3.3693,3.397,3.4105,3.4857,3.5588,3.6079,3.6248,3.684,3.8024,3.7742,3.7663,3.8149,3.7484,3.6787,3.6195,3.5486,3.4572,3.3481,3.3365,3.2706,3.1482,3.2078,3.2048,3.1482,3.1482,3.1482,3.1437,3.0622,3.0122,2.969,2.7143,2.5336,2.4092,2.3401,2.314,2.3288,2.3115,2.3078,2.3078,0.0,0.0,0.0,0.0,0.0,0.0,0.0,0.0,0.0,0.0,0.0,0.0,0.0,0.0,0.0,0.0,0.0,0.0,0.9598,1.2382,1.497,1.7123,1.7966,1.9192,2.0868,2.1486,2.2456,2.3786,2.5038,2.5944,2.6602,2.726,2.7625,2.7625,2.7625,2.7625,2.7625,2.7625,2.7959,2.8511,2.8511,2.845,2.8403,2.8112,2.8096,2.7949,2.5886,2.3982,2.2559,2.2907,2.16,1.9942,2.0773,1.9953,1.8252,1.6016,0.0,1.3939,1.2678,1.3889,0.0,1.6825,1.8201,2.0142,0.0,0.0,2.497,2.688,2.8372,2.9614,3.0516,3.0858,3.1449,3.3034,3.2171,3.1799,3.3203,3.2426,3.1973,3.2635,3.3829,3.4404,3.3846,3.437,3.4827,3.4979,3.5585,3.5712,3.5133,3.4514,3.4062,3.3864,3.3203,3.2809,3.2616,3.2646,3.2258,3.1482,3.1556,3.1541,3.1482,3.1482,3.1482,3.1437,3.0032,2.8696,2.7426,2.588,2.5052,2.4619,2.3552,2.3452,2.3841,2.3326,2.3078,2.3078,0.0,0.0,0.0,0.0,0.0,0.0,0.0,0.0,0.0,0.0,0.0,0.0,0.0,0.0,0.0,0.0,0.0,0.0,0.9253,1.2354,1.525,1.7724,1.8754,1.9725,2.0782,2.139,2.2348,2.3692,2.425,2.5018,2.6019,2.6303,2.6437,2.6437,2.6826,2.7006,2.7055,2.7367,2.7813,2.8365,2.8307,2.8176,2.7965,2.7536,2.6639,2.547,2.4426,2.2696,0.0,0.0,1.9536,1.8448,1.8737,1.8659,1.7977,1.5351,1.5119,0.0,1.5906,0.0,0.0,0.0,2.2064,2.3926,2.6163,2.7078,2.7919,2.9588,3.0718,3.1596,3.2341,3.2476,3.2679,0.0,3.2882,3.2544,3.273,3.2009,3.1104,3.017,3.0599,3.138,3.2262,3.2623,3.3014,3.3425,3.3386,3.3356,3.3502,3.2862,3.2442,3.2385,3.2103,3.1981,3.1943,3.2317,3.2183,3.1482,3.1928,3.1898,3.1482,3.1482,3.1315,3.0839,2.9888,2.8627,2.7092,2.6136,2.5555,2.5197,2.4418,2.4268,2.4368,2.3464,2.3078,2.3078,0.0,0.0,0.0,0.0,0.0,0.0,0.0,0.0,0.0,0.0,0.0,0.0,0.0,0.0,0.0,0.0,0.0,0.0,0.0,1.1747,1.4775,1.7433,1.8806,1.9738,2.0263,2.1067,2.2014,2.3186,2.3174,2.3858,2.5082,2.4904,2.5012,2.536,2.5839,2.6153,2.6366,2.6887,2.7449,2.7982,2.7842,2.7674,2.735,2.6101,2.4546,2.2998,2.2699,2.0961,0.0,0.0,1.728,1.6379,1.6768,1.7019,1.6728,1.4536,1.4873,1.6191,1.7406,0.0,0.0,2.2902,2.5521,2.7648,2.8491,2.9617,3.0808,3.1777,3.2326,3.272,3.3223,3.2747,3.2311,3.2452,3.2211,3.1867,3.1513,3.0674,2.9571,2.8029,2.7416,2.7794,2.9516,3.013,3.0826,3.1726,3.115,3.1166,3.2075,3.1431,3.1064,3.1036,3.1221,3.1287,3.124,3.1913,3.2003,3.1482,3.2018,3.2003,3.1467,3.1345,3.0971,3.0477,2.9849,2.8679,2.7166,2.6665,2.614,2.5548,2.5021,2.482,2.4707,2.3728,2.3215,2.3078,0.0,0.0,0.0,0.0,0.0,0.0,0.0,0.0,0.0,0.0,0.0,0.0,0.0,0.0,0.0,0.0,0.0,0.0,0.0,1.0224,1.3199,1.5756,1.7384,1.8528,1.9045,2.0237,2.1173,2.1859,2.1924,2.2574,2.3753,2.3238,2.3568,2.4612,2.4627,2.5046,2.5691,2.6198,2.6788,2.7304,2.7036,2.6856,2.6455,2.3881,2.2273,2.1321,2.099,0.0,0.0,1.6594,1.5219,1.3715,1.5858,1.5364,0.0,1.4173,1.3718,1.362,0.0,0.0,2.2148,2.4363,2.8037,3.105,3.1083,3.2756,3.4279,3.4054,3.3652,3.3301,3.3062,3.1055,2.958,3.0116,2.9264,2.8757,2.9329,2.7806,2.6673,2.6623,2.4946,2.4013,0.0,2.6459,2.8094,2.9508,2.8982,2.9195,3.0581,3.0015,2.9633,2.9663,3.0248,3.0507,3.0537,3.1225,3.1497,3.1482,3.1497,3.1497,3.1452,3.0836,3.0522,3.0477,2.9849,2.8679,2.7193,2.7179,2.6561,2.5548,2.5021,2.482,2.4757,2.418,2.3615,2.3078,0.0,0.0,0.0,0.0,0.0,0.0,0.0,0.0,0.0,0.0,0.0,0.0,0.0,0.0,0.0,0.0,0.0,0.0,0.0,0.9089,1.2121,1.3817,1.5901,1.7284,1.7928,1.8694,1.9387,2.0006,2.004,2.0633,2.186,2.1643,2.197,2.2712,2.3131,2.3445,2.3741,2.4517,2.5274,2.5789,2.4414,2.4066,2.4082,2.1266,1.9295,1.7915,0.0,0.0,0.0,1.3583,1.2768,1.2354,1.2897,1.296,1.2924,1.2978,1.3535,1.4679,1.7327,0.0,2.4799,2.8527,3.1408,3.3752,3.5101,3.595,3.6094,3.4749,3.3149,3.1567,3.0387,2.8244,2.6834,2.7496,2.7672,2.7637,2.7348,2.7253,2.6308,2.4067,2.4101,0.0,0.0,0.0,0.0,2.7487,2.7372,2.7622,2.8566,2.8387,2.8457,2.8921,2.9549,3.0088,3.0507,3.118,3.1482,3.1482,3.1482,3.13,3.0851,3.1091,3.0717,2.9894,2.953,2.8768,2.7679,2.7112,2.6361,2.5611,2.5824,2.5234,2.4293,2.4481,2.3941,2.3005,0.0,0.0,0.0,0.0,0.0,0.0,0.0,0.0,0.0,0.0,0.0,0.0,0.0,0.0,0.0,0.0,0.0,0.0,0.0,0.0,0.8968,1.0494,1.2708,1.4283,1.5033,1.5688,1.6363,1.7231,1.7035,1.7444,1.8444,1.8574,1.8867,1.9332,2.0422,2.0998,2.1168,2.2226,2.2833,2.2992,2.1742,2.1303,2.1102,1.8152,1.6469,0.0,0.0,0.0,1.2747,1.1462,1.1137,1.135,1.1605,1.2396,1.3109,1.2696,1.4027,1.6357,1.9571,2.3096,2.6857,3.1243,3.3423,3.4919,3.6446,3.65,3.574,3.3999,3.161,2.9248,2.747,2.5095,2.3687,2.4515,2.4737,2.4889,2.5155,2.519,2.4447,2.2349,2.2756,2.2877,0.0,0.0,0.0,2.5794,2.6318,2.6782,2.72,2.744,2.7667,2.7838,2.871,2.9178,2.9318,3.0207,3.0527,3.0309,3.0309,3.0075,2.9682,3.0046,2.9915,2.9377,2.8997,2.8474,2.7845,2.7059,2.6284,2.5611,2.5799,2.5109,2.4042,2.4393,2.3941,2.3005,0.0,0.0,0.0,0.0,0.0,0.0,0.0,0.0,0.0,0.0,0.0,0.0,0.0,0.0,0.0,0.0,0.0,0.0,0.0,0.0,0.0,0.6031,0.8287,0.9826,1.055,1.1382,1.2411,1.3634,1.3173,1.3274,1.3898,1.4233,1.4582,1.5011,1.6757,1.7722,1.8104,1.933,1.9592,1.9135,1.906,1.861,1.773,1.4689,0.0,0.0,0.0,0.0,0.0,0.0,0.0,0.0,1.2069,1.3543,1.4519,1.3419,1.5339,1.8627,2.2113,2.5238,2.8476,3.2512,3.4034,3.4783,3.5357,3.4669,3.3455,3.1839,2.9138,2.6436,0.0,0.0,2.0266,2.1399,2.0813,2.0936,2.2863,2.2055,2.1347,0.0,0.0,0.0,0.0,0.0,0.0,2.4402,0.0,2.6572,2.6632,2.723,2.7203,2.651,2.758,2.7867,2.7152,2.8326,2.8678,2.8172,2.8172,2.8158,2.813,2.8063,2.8333,2.8878,2.8243,2.785,2.7696,2.7078,2.6388,2.5548,2.5059,2.4506,2.4004,2.4004,2.364,2.3005,0.0,0.0,0.0,0.0,0.0,0.0,0.0,0.0,0.0,0.0,0.0,0.0,0.0,0.0,0.0,0.0,0.0,0.0,0.0,0.0,0.0,0.0,0.0,0.0,0.0,0.0,0.0,0.0,1.1138,1.1616,1.2437,1.283,1.348,1.4278,1.5051,1.5478,1.5649,1.6409,1.6955,1.7152,0.0,1.5532,1.5751,0.0,0.0,0.0,0.0,0.0,0.0,0.0,0.0,0.0,0.0,1.4743,1.562,1.6421,1.8972,2.2022,2.4182,2.7516,3.0891,3.301,3.4105,3.4506,3.411,3.3423,3.1777,2.8219,2.5425,2.2783,0.0,0.0,0.0,1.9856,2.1093,0.0,2.2412,2.2954,0.0,2.0524,0.0,2.2092,2.0988,2.2774,0.0,0.0,2.4828,2.6288,2.726,2.6997,2.6669,2.651,2.6763,2.6818,2.6588,2.7381,2.7658,2.7506,2.7506,2.7284,2.6909,2.7751,2.7939,2.7644,2.7759,2.7722,2.7657,2.6886,2.6177,2.5586,2.5448,2.482,2.4004,2.4004,2.364,2.2884,0.0,0.0,0.0,0.0,0.0,0.0,0.0,0.0,0.0,0.0,0.0,0.0,0.0,0.0,0.0,0.0,0.0,0.0,0.0,0.0,0.0,0.0,0.0,0.0,0.0,0.0,0.0,0.0,0.0,0.0,0.9014,1.0175,1.082,1.1131,1.2465,1.2968,1.2861,1.3552,0.0,0.0,0.0,0.0,0.0,0.0,0.0,0.0,0.0,0.0,0.0,0.0,0.0,1.3622,1.5438,1.7368,1.9087,1.9947,0.0,2.4926,2.6381,2.8854,3.1301,3.2431,3.2793,3.2579,3.163,3.0145,2.7919,2.4421,2.1588,0.0,1.6736,0.0,0.0,0.0,0.0,0.0,2.0509,2.0623,2.0334,0.0,2.0427,0.0,2.059,2.1921,2.2963,0.0,2.4394,2.5336,2.58,2.5697,2.5469,2.5146,2.5613,2.5792,2.5701,2.5815,2.5841,2.5841,2.5841,2.5815,2.5728,2.6631,2.7003,2.6927,0.0,2.7162,2.7149,2.638,2.5887,2.5573,2.5347,2.4745,2.3929,2.359,2.3045,2.2372,0.0,0.0,0.0,0.0,0.0,0.0,0.0,0.0,0.0,0.0,0.0,0.0,0.0,0.0,0.0,0.0,0.0,0.0,0.0,0.0,0.0,0.0,0.0,0.0,0.0,0.0,0.0,0.0,0.0,0.0,0.0,0.0,0.0,0.0,0.0,0.0,0.0,0.0,0.0,0.0,0.0,0.0,0.0,0.0,0.0,0.0,0.0,0.0,0.0,0.0,0.8974,1.4412,1.7497,2.0626,2.3245,2.3512,2.5134,2.7079,2.8364,2.9503,3.047,3.1151,3.0726,2.9822,2.8526,2.6007,2.3158,2.0533,0.0,1.5407,1.3732,1.3935,1.4498,1.4904,0.0,1.6275,1.8079,1.6961,1.6595,1.8337,1.8358,1.8769,2.0064,2.0299,2.1219,2.3167,2.3527,2.3689,2.3741,2.413,2.4028,2.327,2.4158,2.4612,2.4389,2.3865,2.3554,2.3554,2.3554,2.3865,2.4427,2.5012,2.5695,2.6251,2.6382,2.6458,2.6483,2.5837,2.5636,2.5661,2.5134,2.4632,2.4129,2.3171,2.2504,2.1847,0.0,0.0,0.0,0.0,0.0,0.0,0.0,0.0,0.0,0.0,-0.8223,-0.7993,0.0,0.0,0.0,0.0,0.0,0.0,0.0,0.0,0.0,0.0,0.0,0.0,0.0,0.0,0.0,0.0,0.0,0.0,0.0,0.0,0.0,0.0,0.0,0.0,0.0,0.0,0.0,0.0,0.0,0.0,0.0,0.0,0.0,0.0,0.0,0.0,0.0,0.0,0.6684,1.3415,2.0384,2.3274,2.4412,2.6262,2.6874,2.7293,2.877,2.9249,2.9332,2.9609,2.8749,2.7364,2.5621,2.2964,0.0,0.0,1.4237,1.2354,1.0756,1.1327,1.2569,1.4053,0.0,0.0,0.0,0.0,1.4932,0.0,0.0,0.0,0.0,0.0,0.0,0.0,0.0,2.0807,2.4187,2.3865,2.3283,2.2528,2.2492,2.243,2.2414,2.1602,2.1174,2.1174,2.1174,2.1602,2.2438,2.3412,2.4316,2.5134,2.5561,0.0,2.6483,2.5837,2.5875,2.6319,2.5686,2.5398,2.5209,2.4191,2.3264,2.2396,0.0,0.0,0.0,0.0,0.0,0.0,0.0,-0.7565,-0.7639,-0.8176,-0.8096,-0.7903,-0.7634,-0.776,0.0,0.0,0.0,0.0,0.0,0.0,0.0,0.0,0.0,0.0,0.0,0.0,0.0,0.0,0.0,0.0,0.0,0.0,0.0,0.0,0.0,0.0,0.0,0.0,0.0,0.0,0.0,0.0,0.0,0.0,0.0,0.0,0.0,0.0,0.0,0.0,0.2277,0.7369,1.4914,1.8992,2.1678,2.5106,2.7218,2.851,2.8623,2.8809,2.8844,2.8352,2.7221,2.5415,2.2438,0.0,0.0,0.0,1.1225,0.9747,0.9053,0.0,0.0,0.0,0.0,0.0,0.0,0.0,0.0,0.0,0.0,0.0,0.0,0.0,0.0,0.0,0.0,1.8903,2.2471,2.2116,2.1773,2.1616,2.1136,2.0961,2.1227,2.0782,2.059,2.059,2.059,2.0982,2.1643,2.2663,2.3448,2.4157,2.5162,2.5749,2.6013,2.6038,2.5928,2.5673,2.511,2.4425,2.355,2.2399,2.1556,2.0807,0.0,0.0,0.0,0.0,0.0,0.0,0.0,-0.7538,-0.7604,-0.7965,-0.7755,-0.7614,-0.7654,-0.7627,-0.7751,0.0,0.0,0.0,0.0,0.0,0.0,0.0,0.0,0.0,0.0,0.0,0.0,0.0,0.0,0.0,0.0,0.0,0.0,0.0,0.0,0.0,0.0,0.0,0.0,0.0,0.0,0.0,0.0,0.0,0.0,0.0,0.0,0.0,0.0,0.0,-0.2107,0.0903,0.6803,1.218,1.6936,2.0146,2.4048,2.7096,2.6244,2.6895,2.7586,2.6478,2.5326,2.3432,1.9377,1.6553,0.0,0.0,0.8887,0.7716,0.7709,0.0,0.8623,0.0,0.0,0.0,0.0,0.0,0.0,0.0,0.0,0.0,0.0,0.0,0.0,0.0,0.0,1.714,2.0236,2.0322,2.0417,2.0745,2.0025,1.9835,2.0333,2.004,1.9976,2.0009,2.0009,2.0336,2.0975,2.185,2.2647,2.3258,2.467,2.5185,2.5074,2.5735,2.535,2.4355,2.4095,2.3167,2.1911,2.0766,1.9963,1.9421,0.0,0.0,0.0,0.0,0.0,0.0,0.0,-0.798,-0.8304,-0.8038,-0.7549,-0.7227,-0.7181,-0.7475,-0.7736,0.0,0.0,0.0,0.0,0.0,0.0,0.0,0.0,0.0,0.0,0.0,0.0,0.0,0.0,0.0,0.0,0.0,0.0,0.0,0.0,0.0,0.0,0.0,0.0,0.0,0.0,0.0,0.0,0.0,0.0,0.0,0.0,0.0,0.0,0.0,0.0,-0.2785,-0.1053,0.4938,1.0965,0.9461,0.0,0.0,1.9178,2.1581,2.3837,2.3078,2.2455,2.0896,1.7011,0.0,0.0,0.9322,0.7695,0.6742,0.6143,0.5856,0.0,0.0,0.0,0.4193,0.0,0.0,0.0,0.0,0.0,0.0,0.0,0.0,0.0,0.0,1.2795,1.5112,1.8353,1.939,1.9857,1.9829,1.9091,1.8955,1.942,1.8268,1.7883,1.8269,1.8269,1.8674,1.9526,2.0509,2.1392,2.2207,2.3708,2.3874,0.0,2.406,2.3663,2.2514,2.2852,2.2705,2.2128,2.1498,2.0762,1.9944,0.0,0.0,0.0,0.0,0.0,0.0,-0.7049,-0.7075,-0.73,-0.7963,-0.7218,-0.6854,-0.7498,-0.7263,-0.7147,0.0,0.0,0.0,0.0,0.0,0.0,0.0,0.0,0.0,0.0,0.0,0.0,0.0,0.0,0.0,0.0,0.0,0.0,0.0,0.0,0.0,0.0,0.0,0.0,0.0,0.0,0.0,0.0,0.0,0.0,0.0,0.0,0.0,0.0,0.0,0.0,0.0,-0.3173,-0.0942,0.0,0.0,0.9376,1.5241,1.4621,1.8488,2.2488,2.1663,2.0782,1.9036,1.4952,0.0,1.0726,0.732,0.6012,0.5341,0.4899,0.4513,0.42,0.0,0.0,0.0,0.0,0.0,0.0,0.0,0.0,0.0,0.0,0.0,0.0,0.0,1.0173,1.0893,1.2186,1.4761,1.6548,1.746,1.6411,1.659,1.8137,1.7341,1.7271,1.8008,1.8008,1.8202,1.8539,1.9495,2.0048,2.0463,2.1902,2.2491,0.0,2.2846,2.2475,2.1685,2.1376,2.0759,1.9993,1.9547,1.911,1.8869,0.0,0.0,0.0,0.0,0.0,-0.6417,-0.6758,-0.6585,-0.6727,-0.7622,-0.6925,-0.6694,-0.764,-0.6969,-0.6655,-0.7257,-0.7533,0.0,0.0,0.0,0.0,0.0,0.0,0.0,0.0,0.0,0.0,-0.6597,-0.6256,0.0,0.0,0.0,0.0,0.0,0.0,0.0,0.0,0.0,0.0,0.0,0.0,0.0,0.0,0.0,0.0,0.0,0.0,0.0,0.0,0.0,0.0,0.0,0.0,0.0,0.0,0.0,0.4611,0.9556,0.874,1.2704,1.694,1.6362,1.6396,1.5447,0.0,0.0,0.8749,0.5466,0.437,0.3997,0.3906,0.3422,0.3161,0.0,0.0,0.2182,0.2957,0.0,0.0,0.0,0.0,0.0,0.0,0.0,0.0,0.0,0.7065,0.7005,0.7646,1.0201,1.2691,1.5205,1.4195,1.4571,1.6609,1.6075,1.6278,1.7039,1.7375,1.7579,1.7647,1.865,1.9106,1.9204,2.0593,2.1188,0.0,2.1644,2.136,2.0741,2.0102,1.9364,1.8523,1.7944,1.7684,1.7617,0.0,0.0,0.0,0.0,0.0,0.0,-0.6512,-0.6883,-0.7035,-0.6935,-0.6785,-0.6875,-0.7338,-0.6569,-0.6343,-0.7232,-0.7055,0.0,0.0,0.0,0.0,0.0,0.0,0.0,0.0,0.0,-0.6871,-0.6594,-0.6272,-0.5793,-0.5164,0.0,0.0,0.0,0.0,0.0,0.0,0.0,0.0,0.0,0.0,0.0,0.0,0.0,0.0,0.0,0.0,0.0,0.0,0.0,0.0,0.0,0.0,0.0,0.0,0.0,-0.1799,0.0628,0.0644,0.2808,0.5115,0.529,0.7968,0.9396,0.0,0.0,0.7114,0.3993,0.2981,0.2807,0.3078,0.2408,0.2053,0.281,0.2679,0.0,0.1262,0.0,0.0,0.0,0.0,0.0,0.0,0.0,0.0,0.3129,0.3122,0.0,0.6179,0.6388,0.8631,1.3452,1.299,1.332,1.4678,1.4338,1.4338,1.4763,1.6033,1.6627,1.6645,1.7999,1.8633,1.8723,2.0203,2.0267,0.0,2.041,2.0196,1.9297,1.9277,1.9014,1.8492,1.7539,1.699,1.6498,0.0,0.0,0.0,0.0,0.0,0.0,0.0,-0.6529,-0.6723,-0.6987,-0.6552,-0.657,-0.7439,-0.6774,-0.6578,-0.7298,-0.6917,0.0,0.0,0.0,0.0,0.0,0.0,0.0,0.0,0.0,-0.7253,-0.708,-0.6689,-0.6247,-0.5723,-0.4943,-0.4127,0.0,0.0,0.0,0.0,0.0,0.0,0.0,0.0,0.0,0.0,0.0,0.0,0.0,0.0,0.0,0.0,0.0,0.0,0.0,0.0,0.0,0.0,0.0,0.0,0.0,0.06,0.3453,0.6494,0.6101,0.674,0.671,0.3869,0.0,0.3595,0.1236,0.0977,0.1113,0.0892,0.0848,0.1027,0.156,0.1428,0.0,0.0,0.0,0.0,0.0,0.0,0.0,0.0,0.0,0.0,0.0961,0.2292,0.4066,0.6153,0.4876,0.5809,0.9465,1.013,1.1011,1.2376,1.24,1.2871,1.3807,1.4847,1.5402,1.5658,1.606,1.6263,1.6272,1.6803,1.7081,1.7173,1.7,1.7187,1.7482,1.6968,1.668,1.6503,1.6212,1.5901,1.5587,0.0,0.0,0.0,0.0,0.0,0.0,0.0,-0.6401,-0.6546,-0.6833,-0.6523,-0.657,-0.7398,-0.6875,-0.6733,-0.7382,-0.6941,0.0,0.0,0.0,0.0,0.0,0.0,0.0,0.0,-0.7825,-0.768,-0.7456,-0.7164,-0.6759,-0.6212,-0.5816,-0.5076,-0.409,-0.4258,0.0,0.0,0.0,0.0,0.0,0.0,0.0,-0.5382,0.0,0.0,0.0,0.0,0.0,0.0,0.0,0.0,0.0,0.0,0.0,0.0,0.0,-0.2253,0.0,0.0,0.0228,0.2152,0.199,0.1758,0.0,0.0,0.0,0.052,-0.0348,-0.0176,0.0089,-0.0175,-0.0089,0.0223,0.0801,0.0534,0.0,0.0,0.0,0.0,0.0,0.0,0.0,0.0,0.0,-0.2026,-0.1192,0.0788,0.2511,0.3853,0.1173,0.084,0.3576,0.6653,0.8781,0.9914,0.9968,1.0545,1.1603,1.2677,1.3476,1.406,1.4403,1.4846,1.5234,1.5234,1.5485,0.0,1.5402,1.5716,1.6508,1.5922,1.5691,1.5618,1.5258,1.4968,1.4593,0.0,0.0,0.0,0.0,0.0,0.0,0.0,-0.6475,-0.6527,-0.6544,-0.6634,-0.6854,-0.7243,-0.6892,-0.685,-0.7433,0.0,0.0,0.0,0.0,0.0,0.0,0.0,0.0,0.0,-0.8287,-0.8113,-0.7753,-0.7636,-0.7286,-0.6693,-0.678,-0.6169,-0.501,-0.5524,0.0,0.0,0.0,0.0,0.0,0.0,0.0,0.0,0.0,0.0,0.0,0.0,0.0,0.0,0.0,0.0,0.0,0.0,0.0,0.0,0.0,0.0,0.0,0.0,0.0,0.0,0.0,0.0,0.0,0.0,0.0,0.0,-0.1186,-0.0824,-0.0616,-0.0595,-0.0654,-0.0535,0.0133,-0.0221,0.0,0.0,0.0,0.0,0.0,0.0,0.0,0.0,0.0,-0.5803,-0.3629,-0.1556,-0.0391,-0.0235,-0.3929,-0.5196,-0.3359,0.2352,0.6009,0.727,0.7186,0.7551,0.8418,0.9785,1.096,1.1972,1.2884,1.3848,0.0,1.4791,1.4993,1.5357,1.4936,1.5276,1.5943,1.5519,1.5381,1.5241,1.4366,1.3793,1.3302,0.0,0.0,0.0,0.0,0.0,0.0,0.0,0.0,0.0,0.0,-0.6861,-0.6947,-0.7196,-0.7073,-0.7063,0.0,0.0,0.0,0.0,0.0,0.0,0.0,0.0,0.0,0.0,-0.8476,-0.8358,-0.8164,-0.7782,-0.7603,-0.7587,-0.7166,-0.6578,-0.5899,-0.6244,-0.616,0.0,0.0,0.0,0.0,0.0,0.0,0.0,0.0,0.0,0.0,-0.6409,-0.6312,0.0,0.0,0.0,0.0,0.0,0.0,0.0,0.0,-0.4413,-0.428,-0.4272,0.0,-0.3769,-0.397,-0.3864,0.0,0.0,0.0,0.0,0.0,0.0,-0.2977,-0.3184,-0.3043,-0.2791,-0.2607,0.0,0.0,0.0,0.0,0.0,0.0,0.0,0.0,0.0,0.0,-0.983,-0.7255,-0.5662,-0.4117,-0.2478,-0.3276,-0.4387,-0.5494,-0.4119,-0.1217,0.311,0.3854,0.495,0.6493,0.7613,0.8518,0.9218,0.9879,1.0358,1.0697,1.0697,1.0837,1.113,1.0802,1.1071,1.1585,1.1247,1.1147,1.1147,1.0927,1.0619,1.0409,0.0,0.0,0.0,0.0,0.0,0.0,0.0,0.0,0.0,0.0,0.0,0.0,0.0,0.0,0.0,0.0,0.0,0.0,0.0,0.0,0.0,0.0,0.0,0.0,-0.8596,-0.8592,-0.8488,-0.8298,-0.7954,-0.7832,-0.7901,-0.7725,-0.7208,-0.6433,-0.6482,-0.6535,0.0,0.0,0.0,0.0,-0.7272,0.0,0.0,0.0,0.0,0.0,-0.6991,-0.6871,0.0,-0.6436,-0.6123,-0.5822,0.0,0.0,0.0,0.0,-0.4663,-0.4536,-0.4442,-0.3819,-0.3281,-0.3493,-0.3524,-0.3549,0.0,0.0,0.0,0.0,0.0,0.0,-0.4282,-0.4448,0.0,0.0,0.0,0.0,0.0,0.0,0.0,0.0,0.0,0.0,0.0,0.0,-1.1799,-1.0525,-0.8841,-0.7196,-0.5573,-0.5725,-0.6554,-0.806,-0.7651,-0.5084,-0.015,0.058,0.1646,0.3162,0.4458,0.5627,0.6508,0.7427,0.8203,0.8837,0.8859,0.9128,0.9468,0.9347,0.9515,0.9802,0.9601,0.955,0.955,0.955,0.9397,0.9372,0.0,0.0,0.0,0.0,0.0,0.0,0.0,0.0,0.0,0.0,0.0,0.0,0.0,0.0,0.0,0.0,0.0,0.0,0.0,0.0,0.0,0.0,0.0,-0.8479,-0.8592,-0.8657,-0.8554,-0.8309,-0.8186,-0.8103,-0.8095,-0.8338,-0.7856,-0.6817,-0.6548,-0.6659,0.0,0.0,0.0,0.0,-0.7855,0.0,0.0,0.0,0.0,0.0,0.0,0.0,0.0,-0.6824,-0.65,-0.6165,-0.5834,0.0,0.0,0.0,0.0,0.0,-0.4914,-0.4563,-0.4049,-0.3635,-0.3663,-0.3872,0.0,0.0,0.0,0.0,0.0,0.0,0.0,0.0,0.0,0.0,0.0,0.0,0.0,0.0,0.0,0.0,0.0,0.0,-1.5869,-1.4112,-1.2923,-1.3134,-1.127,-0.9765,-0.8969,-0.9205,-0.9647,-1.0157,-0.9385,-0.7102,-0.3346,-0.2751,-0.1909,-0.0786,0.0927,0.2349,0.3559,0.4977,0.6298,0.7419,0.0,0.0,0.8808,0.8808,0.8822,0.8846,0.8851,0.8851,0.8846,0.8851,0.8851,0.8846,0.0,0.0,0.0,0.0,0.0,0.0,0.0,0.0,0.0,0.0,0.0,0.0,0.0,0.0,0.0,0.0,0.0,0.0,0.0,0.0,0.0,0.0,-0.8575,-0.8546,-0.8521,-0.8587,-0.8537,-0.8382,-0.8591,-0.8769,-0.8908,-0.8732,-0.8198,-0.7349,-0.6799,-0.6815,-0.7262,-0.753,-0.7709,-0.7827,-0.787,0.0,0.0,0.0,0.0,0.0,0.0,0.0,0.0,-0.6977,-0.6608,-0.6224,-0.5954,0.0,0.0,0.0,0.0,0.0,-0.5564,-0.6087,-0.6083,-0.4088,-0.35,-0.3496,0.0,0.0,0.0,0.0,0.0,0.0,0.0,0.0,0.0,0.0,0.0,0.0,0.0,0.0,0.0,0.0,0.0,-1.6056,-1.3517,-1.4273,-1.4541,-1.3816,-1.2654,-1.1945,-1.1764,-1.0976,-1.026,-0.9752,-0.9567,-0.884,-0.7509,-0.6069,-0.5089,-0.4574,-0.2255,-0.0955,-0.0488,0.175,0.2985,0.3405,0.0,0.6659,0.6787,0.6787,0.6783,0.6736,0.6743,0.6743,0.6736,0.6747,0.6743,0.6883,0.0,0.0,0.0,0.0,0.0,0.0,0.0,0.0,0.0,0.0,0.0,0.0,0.0,0.0,0.0,0.0,0.0,0.0,0.0,0.0,0.0,-0.8596,-0.8558,-0.8533,-0.8508,-0.8454,-0.8444,-0.846,-0.836,-0.8458,-0.8709,-0.8148,-0.7711,-0.7381,-0.7001,-0.6996,-0.7329,-0.7739,-0.7983,-0.8068,0.0,0.0,0.0,0.0,0.0,0.0,0.0,0.0,0.0,0.0,-0.6914,-0.6505,-0.6177,0.0,0.0,0.0,0.0,0.0,-0.6322,-0.6767,-0.6862,-0.5652,-0.583,-0.6327,0.0,0.0,0.0,0.0,0.0,0.0,0.0,0.0,0.0,0.0,0.0,0.0,0.0,0.0,0.0,0.0,0.0,-1.5768,-1.6048,-1.5613,-1.5472,-1.5797,-1.4707,-1.3896,-1.3789,-1.2987,-1.2387,-1.1938,-1.1717,-1.1154,-1.0071,-0.9003,-0.7904,-0.689,-0.4791,-0.3685,-0.3596,-0.2484,-0.1119,0.0424,0.0,0.3536,0.4223,0.4463,0.4602,0.4693,0.5814,0.5572,0.4538,0.454,0.5332,0.6352,0.0,0.0,0.0,0.0,0.0,0.0,0.0,0.0,0.0,0.0,0.0,0.0,0.0,0.0,0.0,0.0,0.0,0.0,0.0,0.0,-0.8628,-0.8624,-0.8567,-0.8533,-0.8483,-0.8387,-0.8399,-0.8508,-0.8276,-0.8227,-0.8371,-0.7597,-0.7229,-0.7175,-0.704,-0.7112,-0.7351,-0.7896,-0.8176,-0.8272,0.0,0.0,0.0,0.0,0.0,0.0,0.0,0.0,0.0,0.0,0.0,0.0,0.0,0.0,0.0,-0.5774,-0.6191,-0.6735,-0.691,-0.7249,-0.7511,-0.7301,0.0,-0.8192,-0.8265,0.0,0.0,0.0,0.0,0.0,0.0,0.0,0.0,0.0,0.0,0.0,0.0,0.0,0.0,-1.6045,-1.539,-1.5717,-1.7884,-1.6508,-1.5935,-1.6874,-1.604,-1.5349,-1.5143,-1.4763,-1.4418,-1.4096,-1.3891,-1.3089,-1.1759,-1.1231,-1.0063,-0.8179,-0.6578,-0.5678,-0.5557,-0.5379,-0.4206,-0.23,-0.1393,0.0071,0.1902,0.2215,0.2339,0.2634,0.53,0.4686,0.2344,0.2343,0.3429,0.4889,0.0,0.0,0.0,0.0,0.0,0.0,0.0,0.0,0.0,0.0,0.0,0.0,0.0,0.0,0.0,0.0,0.0,0.0,0.0,0.0,-0.8689,-0.8691,-0.8689,-0.8592,-0.8415,-0.8463,-0.8488,-0.8508,-0.8785,-0.8702,-0.8296,-0.766,-0.7186,-0.6838,-0.6894,-0.7098,-0.7427,-0.7965,-0.8185,-0.8227,-0.8483,0.0,0.0,0.0,0.0,0.0,0.0,0.0,0.0,0.0,0.0,0.0,0.0,0.0,-0.613,-0.5874,-0.6085,-0.6522,-0.6964,-0.7875,-0.8668,-0.8584,0.0,0.0,-0.8093,0.0,0.0,0.0,0.0,0.0,0.0,0.0,0.0,0.0,0.0,0.0,0.0,0.0,-1.8869,-1.7751,-1.7623,-1.7115,-1.5788,-1.5848,-1.5766,-1.5332,-1.5663,-1.595,-1.591,-1.5899,-1.5539,-1.4785,-1.4692,-1.4014,-1.252,-1.2457,-1.0989,-0.8097,-0.7335,-0.6629,-0.5908,-0.5369,-0.5016,-0.4869,-0.4964,-0.3041,0.0204,0.0209,0.0217,0.0605,0.4728,0.3784,0.0235,0.0235,0.0309,0.0756,0.0,0.0,0.0,0.0,0.0,0.0,0.0,0.0,0.0,0.0,0.0,0.0,0.0,0.0,0.0,0.0,0.0,0.0,0.0,0.0,-0.8846,-0.8886,-0.8852,-0.8778,-0.8719,-0.8571,-0.8513,-0.8562,-0.844,-0.8138,-0.7676,-0.7313,-0.7036,-0.6807,-0.6927,-0.7109,-0.7363,-0.7809,-0.8036,-0.8096,-0.8325,-0.8272,0.0,0.0,0.0,0.0,0.0,0.0,0.0,0.0,-0.7621,-0.747,-0.7045,-0.6752,-0.6519,-0.6307,-0.6463,-0.6837,-0.7382,-0.8252,-0.9019,-0.9166,0.0,0.0,0.0,0.0,0.0,0.0,0.0,0.0,0.0,0.0,0.0,0.0,0.0,0.0,0.0,-1.9443,-1.9103,-1.8637,-1.756,-1.6933,-1.7128,-1.6093,-1.5763,-1.649,-1.6639,-1.6527,-1.6178,-1.6504,-1.6344,-1.5564,-1.5574,-1.5158,-1.4287,-1.386,-1.2763,-1.1014,-0.9349,-0.8399,-0.81,-0.6868,-0.6108,-0.5654,-0.5328,-0.4508,-0.3159,-0.0897,0.0,0.0148,0.1731,0.1371,0.0,0.0,0.0,0.0075,0.0,0.0,0.0,0.0,0.0,0.0,0.0,0.0,0.0,0.0,0.0,0.0,0.0,0.0,0.0,0.0,0.0,0.0,0.0,-0.8959,-0.897,-0.9024,-0.8985,-0.8964,-0.893,-0.8743,-0.8509,-0.8293,-0.7926,-0.7617,-0.7392,-0.7171,-0.696,-0.6791,-0.6718,-0.6888,-0.7254,-0.7519,-0.778,-0.8054,-0.8293,-0.8269,0.0,0.0,0.0,0.0,0.0,0.0,0.0,0.0,-0.7826,-0.7724,-0.7359,-0.7075,-0.6835,-0.6586,-0.6728,-0.7073,-0.7457,-0.8168,0.0,0.0,0.0,0.0,0.0,0.0,0.0,0.0,0.0,0.0,0.0,0.0,0.0,0.0,0.0,0.0,-1.9484,-1.9246,-1.8858,-1.8462,-1.7313,-1.675,-1.7231,-1.6247,-1.5921,-1.6753,-1.6864,-1.6761,-1.6378,-1.6725,-1.667,-1.618,-1.6132,-1.5911,-1.5427,-1.4946,-1.4249,-1.3406,-1.1601,-1.0287,-0.9437,-0.8211,-0.7192,-0.6455,-0.5693,-0.5335,-0.5041,-0.2701,-0.1049,0.0,0.0,0.0,-0.015,-0.1272,-0.1711,-0.1617,0.0,0.0,0.0,0.0,0.0,0.0,0.0,0.0,0.0,0.0,0.0,0.0,0.0,0.0,0.0,0.0,0.0,0.0,-0.9099,-0.9033,-0.9022,-0.9099,-0.9109,-0.9067,-0.9002,-0.8925,-0.8471,-0.7615,-0.7344,-0.7337,-0.7605,-0.7329,-0.7058,-0.6791,-0.6241,-0.6406,-0.7101,-0.7026,-0.7417,-0.8115,-0.8452,-0.8434,-0.8205,0.0,0.0,0.0,0.0,0.0,0.0,0.0,-0.7885,-0.7929,-0.7449,-0.7214,-0.7026,-0.663,-0.6828,-0.715,-0.7051,-0.7599,0.0,0.0,0.0,0.0,0.0,0.0,0.0,0.0,0.0,0.0,0.0,0.0,0.0,0.0,-1.7441,-1.8392,-1.8895,-1.902,-1.8536,-1.7265,-1.7247,-1.6837,-1.5463,-1.6044,-1.6238,-1.5632,-1.6151,-1.6522,-1.6522,-1.6522,-1.6522,-1.6522,-1.6522,-1.6194,-1.5632,-1.5632,-1.532,-1.4698,-1.4043,-1.23,-0.9731,-0.903,-0.8298,-0.7528,-0.6513,-0.5581,-0.4872,-0.5243,-0.3267,-0.0,-0.0,-0.0,-0.0437,-0.4017,-0.5405,-0.5139,0.0,0.0,0.0,0.0,0.0,0.0,0.0,0.0,0.0,0.0,0.0,0.0,0.0,0.0,0.0,0.0,0.0,0.0,-0.9158,-0.9109,-0.9092,-0.9171,-0.9178,-0.9147,-0.9078,-0.8404,-0.8116,-0.8233,-0.7541,-0.7393,-0.7739,-0.7514,-0.7328,-0.7118,-0.6392,-0.6448,-0.708,-0.6776,-0.7095,-0.7855,-0.8133,-0.8162,-0.8069,0.0,0.0,0.0,0.0,0.0,0.0,0.0,0.0,0.0,-0.7589,-0.7221,-0.6868,-0.6811,-0.6576,-0.6517,-0.729,0.0,0.0,0.0,0.0,0.0,0.0,0.0,0.0,0.0,0.0,0.0,0.0,0.0,0.0,-1.5867,-1.6864,-1.7815,-1.8367,-1.8116,-1.7756,-1.7338,-1.6626,-1.6163,-1.6151,-1.5961,-1.5952,-1.6194,-1.638,-1.6522,-1.6522,-1.6522,-1.6522,-1.6522,-1.6522,-1.6423,-1.6238,-1.6238,-1.592,-1.532,-1.5118,-1.3918,-1.1859,-1.1148,-0.9936,-0.8376,-0.8201,-0.7405,-0.6248,-0.5674,-0.4046,-0.192,-0.1874,-0.1908,-0.2049,-0.3111,-0.4305,-0.5329,0.0,0.0,0.0,0.0,0.0,0.0,0.0,0.0,0.0,0.0,0.0,0.0,0.0,0.0,0.0,0.0,0.0,0.0,0.0,0.0,-0.9154,-0.9204,-0.9199,-0.9168,-0.9109,-0.8231,-0.8069,-0.8665,-0.7696,-0.7456,-0.7825,-0.7665,-0.7452,-0.7198,-0.646,-0.6455,-0.696,-0.6583,-0.6897,-0.765,-0.7912,-0.7997,-0.797,0.0,0.0,0.0,0.0,0.0,0.0,0.0,0.0,0.0,-0.7665,0.0,-0.7093,-0.7157,-0.6781,-0.656,-0.7526,0.0,0.0,0.0,0.0,0.0,0.0,0.0,0.0,0.0,0.0,0.0,0.0,0.0,0.0,-1.6345,-1.6913,-1.7501,-1.784,-1.7589,-1.73,-1.7061,-1.6404,-1.6095,-1.6466,-1.6194,-1.6095,-1.6466,-1.6522,-1.6522,-1.6522,-1.6522,-1.6522,-1.6522,-1.6522,-1.6522,-1.6522,-1.6522,-1.6337,-1.5952,-1.5952,-1.5252,-1.3846,-1.2686,-1.1504,-1.0257,-0.9284,-0.8146,-0.6876,-0.5607,-0.4479,-0.3673,-0.3725,-0.3794,-0.3799,-0.3766,-0.4475,-0.5372,0.0,0.0,0.0,0.0,0.0,0.0,0.0,0.0,0.0,0.0,0.0,0.0,0.0,0.0,0.0,0.0,0.0,0.0,0.0,0.0,-0.9194,-0.9216,-0.9191,-0.9147,-0.9099,-0.8363,-0.8268,-0.888,-0.7818,-0.7515,-0.7925,-0.7768,-0.7469,-0.7029,-0.6443,-0.6387,-0.671,-0.6426,-0.6733,-0.7484,-0.7753,-0.7869,-0.7883,-0.8011,0.0,0.0,0.0,0.0,0.0,0.0,0.0,0.0,-0.7605,-0.7512,-0.7451,-0.753,-0.7223,-0.7043,0.0,0.0,0.0,0.0,0.0,0.0,0.0,0.0,0.0,0.0,0.0,0.0,0.0,0.0,-1.6542,-1.7122,-1.7255,-1.7255,-1.73,-1.73,-1.7099,-1.6584,-1.6522,-1.6522,-1.6522,-1.6522,-1.6522,-1.6522,-1.6522,-1.6522,-1.6522,-1.6522,-1.6522,-1.6522,-1.6522,-1.6522,-1.6522,-1.6522,-1.6522,-1.6522,-1.6522,-1.6194,-1.5632,-1.3846,-1.2956,-1.2667,-1.0054,-0.8276,-0.7101,-0.557,-0.5027,-0.5193,-0.5416,-0.5442,-0.5392,-0.5394,-0.5376,-0.5376,0.0,0.0,0.0,0.0,0.0,0.0,0.0,0.0,0.0,0.0,0.0,0.0,0.0,0.0,0.0,0.0,0.0,0.0,0.0,0.0,-0.9164,-0.9273,-0.913,-0.9035,-0.9024,-0.8706,-0.8598,-0.8738,-0.7834,-0.7628,-0.8137,-0.7797,-0.7289,-0.668,-0.6253,-0.6088,-0.6177,-0.6218,-0.6562,-0.7139,-0.7514,-0.7635,-0.759,-0.768,-0.7739,0.0,0.0,0.0,0.0,0.0,0.0,0.0,-0.7266,-0.7093,-0.698,-0.7153,-0.6944,-0.6919,0.0,0.0,0.0,0.0,0.0,0.0,0.0,0.0,0.0,0.0,0.0,0.0,0.0,-1.5492,-1.5277,-1.5888,-1.6001,-1.6134,-1.661,-1.671,-1.666,-1.6534,-1.6522,-1.6522,-1.6522,-1.6522,-1.6522,-1.6522,-1.6522,-1.6522,-1.6522,-1.6522,-1.6522,-1.6522,-1.6522,-1.6522,-1.6522,-1.6522,-1.6522,-1.6522,-1.6522,-1.6423,-1.6281,-1.5386,-1.4171,-1.2725,-1.104,-0.9591,-0.834,-0.8104,-0.7079,-0.5689,-0.5952,-0.5642,-0.5162,-0.5311,-0.5432,-0.5432,0.0,0.0,0.0,0.0,0.0,0.0,0.0,0.0,0.0,0.0,0.0,0.0,0.0,0.0,0.0,0.0,0.0,0.0,0.0,0.0,0.0,-0.9164,-0.906,-0.8985,-0.8953,-0.876,-0.8805,-0.9133,-0.8125,-0.7824,0.0,0.0,-0.7043,-0.6766,-0.6272,-0.6118,-0.6254,-0.6289,-0.6485,-0.6832,-0.6999,-0.708,-0.7112,-0.7114,-0.7223,-0.736,-0.7345,0.0,0.0,0.0,0.0,0.0,0.0,0.0,-0.6996,-0.7235,-0.7075,-0.7078,0.0,0.0,0.0,0.0,0.0,0.0,0.0,0.0,0.0,0.0,0.0,0.0,0.0,-1.5096,-1.488,-1.5499,-1.5588,-1.582,-1.6423,-1.6522,-1.6522,-1.6522,-1.6522,-1.6522,-1.6522,-1.6522,-1.6409,-1.6145,-1.612,-1.612,-1.612,-1.5869,-1.5856,-1.612,-1.612,-1.612,-1.612,-1.6384,-1.6522,-1.6522,-1.6522,-1.6522,-1.6466,-1.5864,-1.4733,-1.3185,-1.2181,-1.1123,-1.0054,-0.921,-0.8202,-0.7147,-0.67,-0.6107,-0.5538,-0.5698,-0.5621,-0.5428,0.0,0.0,0.0,0.0,0.0,0.0,0.0,0.0,0.0,0.0,0.0,0.0,0.0,0.0,0.0,0.0,0.0,0.0,0.0,0.0,0.0,-0.8957,-0.9066,-0.9089,-0.902,-0.8936,-0.9178,-0.9776,0.0,0.0,0.0,0.0,0.0,-0.6602,-0.6117,-0.6014,-0.6171,-0.6147,-0.6259,-0.6416,-0.6376,-0.6433,-0.6524,-0.6511,-0.6642,-0.6881,-0.7109,-0.7201,-0.7244,-0.7374,0.0,0.0,0.0,0.0,-0.712,-0.7459,-0.7403,-0.7479,0.0,0.0,0.0,0.0,0.0,0.0,0.0,0.0,0.0,0.0,0.0,0.0,-1.5183,-1.4697,-1.4519,-1.5224,-1.5325,-1.5624,-1.6411,-1.6522,-1.6484,-1.6384,-1.6459,-1.6446,-1.6258,-1.6321,-1.6145,-1.5593,-1.5555,-1.5555,-1.5555,-1.5155,-1.5117,-1.5542,-1.5555,-1.5555,-1.5555,-1.6007,-1.6233,-1.6233,-1.6333,-1.6371,-1.6328,-1.5959,-1.5106,-1.3986,-1.3385,-1.2657,-1.1751,-1.0089,-0.9186,-0.8751,-0.7799,-0.7004,-0.6373,-0.6498,-0.6176,-0.5669,0.0,0.0,0.0,0.0,0.0,0.0,0.0,0.0,0.0,0.0,0.0,0.0,0.0,0.0,0.0,0.0,0.0,0.0,-0.8816,0.0,0.0,-0.8738,-0.9288,-0.9567,-0.9498,-0.9873,-1.0208,-1.0461,0.0,0.0,0.0,0.0,0.0,-0.5088,0.0,0.0,-0.4855,-0.5039,-0.5343,-0.5745,-0.5789,-0.5825,-0.5862,-0.6082,-0.6177,-0.6235,-0.6317,-0.6579,-0.6841,-0.6702,-0.6774,0.0,0.0,0.0,-0.7033,-0.7593,-0.7825,0.0,0.0,0.0,0.0,0.0,0.0,0.0,0.0,0.0,0.0,0.0,0.0,-1.4064,-1.3629,-1.3031,-1.3012,-1.4145,-1.43,-1.4841,-1.6275,-1.6522,-1.6333,-1.5856,-1.6233,-1.6132,-1.5178,-1.5517,-1.558,-1.5067,-1.5016,-1.5016,-1.5016,-1.4953,-1.4941,-1.5016,-1.5016,-1.5016,-1.5016,-1.5092,-1.509,-1.513,-1.558,-1.5806,-1.5819,-1.6211,-1.6008,-1.5309,-1.4732,-1.3773,-1.2619,-1.2357,-1.1197,-0.9563,-0.9571,-0.8773,-0.7666,-0.7799,-0.7454,-0.6848,0.0,0.0,0.0,0.0,0.0,0.0,0.0,0.0,0.0,0.0,0.0,0.0,0.0,0.0,0.0,-0.8335,-0.8431,-0.8537,-0.8628,-0.8964,-0.9206,-0.9258,-0.969,-0.9953,-0.9984,-1.0059,-1.0329,-1.0825,0.0,0.0,0.0,-0.7091,-0.5963,0.0,0.0,0.0,0.0,-0.4433,-0.4533,-0.4904,-0.4673,-0.4823,-0.5174,-0.503,-0.5278,-0.5771,-0.6253,-0.659,-0.684,-0.7086,-0.7141,-0.7123,-0.7086,0.0,0.0,0.0,0.0,0.0,0.0,0.0,0.0,0.0,0.0,0.0,0.0,0.0,0.0,0.0,0.0,-1.2866,-1.3523,-1.3137,-1.2995,-1.3921,-1.4039,-1.4411,-1.5474,-1.5593,-1.5505,-1.5266,-1.5442,-1.5404,-1.4966,-1.509,-1.5041,-1.4488,-1.445,-1.445,-1.445,-1.4124,-1.4099,-1.4437,-1.445,-1.445,-1.445,-1.4752,-1.4916,-1.4916,-1.5155,-1.5229,-1.5241,-1.548,-1.5794,-1.6051,-1.5466,-1.4892,-1.4321,-1.3611,-1.2773,-1.192,-1.1637,-1.0916,-1.0059,-0.9748,-0.9253,-0.8601,0.0,0.0,0.0,0.0,0.0,0.0,0.0,0.0,0.0,0.0,0.0,0.0,0.0,0.0,0.0,0.0,-0.8218,-0.8311,-0.8383,-0.8913,-0.9244,-0.9283,-0.9871,-1.018,-1.0182,-1.0233,-1.0539,0.0,0.0,0.0,-0.9221,-0.7264,-0.6313,0.0,-0.4889,0.0,0.0,0.0,0.0,-0.4308,-0.3857,-0.4008,-0.4495,-0.4313,-0.4668,-0.5321,-0.6176,-0.6608,-0.6866,-0.7339,-0.7441,-0.7384,-0.7352,-0.7392,0.0,0.0,0.0,0.0,0.0,0.0,0.0,0.0,0.0,0.0,0.0,0.0,0.0,0.0,-1.1588,-1.1964,-1.318,-1.2981,-1.2935,-1.371,-1.3836,-1.4081,-1.4813,-1.4916,-1.4865,-1.4714,-1.4828,-1.4802,-1.4488,-1.4626,-1.4475,-1.3921,-1.3871,-1.3821,-1.3682,-1.3383,-1.3358,-1.3657,-1.367,-1.3732,-1.3871,-1.4249,-1.4463,-1.4463,-1.4626,-1.4702,-1.4702,-1.484,-1.5329,-1.6065,-1.574,-1.56,-1.5543,-1.4596,-1.4079,-1.3893,-1.3418,-1.2822,-1.2241,-1.1762,-1.1245,-1.0531,0.0,0.0,0.0,0.0,0.0,0.0,0.0,0.0,0.0,0.0,0.0,0.0,-0.7091,-0.7407,-0.765,-0.7724,-0.7855,-0.7982,-0.8108,-0.8681,-0.8773,-0.8214,-0.9599,0.0,-0.9827,-1.0762,0.0,0.0,0.0,0.0,-0.9189,-0.7851,-0.7042,-0.6574,-0.469,-0.402,-0.4264,0.0,0.0,0.0,0.0,-0.3655,0.0,0.0,-0.4686,-0.486,0.0,-0.6424,-0.6822,-0.69,-0.7236,-0.753,-0.7281,-0.7372,-0.7747,0.0,0.0,0.0,0.0,0.0,0.0,0.0,0.0,0.0,0.0,0.0,0.0,0.0,-1.1588,-1.1625,-1.1708,-1.1749,-1.2094,-1.3162,-1.3329,-1.3686,-1.4751,-1.4916,-1.4714,-1.4186,-1.4588,-1.4463,-1.3386,-1.3833,-1.3896,-1.3286,-1.3248,-1.301,-1.2529,-1.2935,-1.2973,-1.2517,-1.2492,-1.2743,-1.3235,-1.3273,-1.3286,-1.3298,-1.3883,-1.4123,-1.4148,-1.4676,-1.4941,-1.5029,-1.5505,-1.5672,-1.5576,-1.5543,-1.5174,-1.4652,-1.4595,-1.4215,-1.3575,-1.3575,-1.3117,-1.2561,0.0,0.0,0.0,0.0,0.0,0.0,0.0,0.0,0.0,0.0,0.0,0.0,0.0,-0.7179,-0.7648,-0.7932,-0.8118,-0.8119,-0.7856,-0.8609,-0.9039,-0.9009,-1.0107,-1.0725,-1.0749,-1.0997,0.0,0.0,0.0,-0.9651,-0.9506,-0.8381,-0.7574,-0.6956,-0.54,-0.468,-0.4529,-0.3129,0.0,0.0,0.0,0.0,0.0,0.0,0.0,0.0,0.0,0.0,-0.6833,-0.6971,-0.7549,-0.8097,-0.761,-0.7844,-0.843,-0.9117,0.0,0.0,0.0,0.0,0.0,0.0,0.0,0.0,0.0,0.0,0.0,-1.0508,-1.0343,-1.0302,-1.0656,-1.1216,-1.1861,-1.2599,-1.2722,-1.2852,-1.3235,-1.3596,-1.3609,-1.3057,-1.317,-1.3144,-1.2743,-1.2554,-1.2475,-1.2422,-1.2279,-1.2336,-1.2698,-1.238,-1.2241,-1.2404,-1.2065,-1.1977,-1.2178,-1.2529,-1.2672,-1.2685,-1.3257,-1.3521,-1.3534,-1.3735,-1.4011,-1.4387,-1.4588,-1.5062,-1.5664,-1.5664,-1.5746,-1.5844,-1.5844,-1.5928,-1.5954,-1.556,-1.5501,-1.5473,0.0,0.0,0.0,0.0,0.0,0.0,0.0,0.0,0.0,0.0,0.0,0.0,0.0,0.0,-0.7218,-0.7777,-0.7833,-0.7765,-0.765,-0.8227,-0.8621,-0.862,-0.9676,-1.0335,-1.0489,-1.0666,-1.0897,0.0,0.0,0.0,0.0,-0.892,-0.8244,-0.7668,-0.6392,-0.562,0.0,0.0,0.0,-0.4122,0.0,0.0,-0.4456,0.0,0.0,0.0,0.0,0.0,0.0,0.0,-0.7602,-0.8116,-0.7782,0.0,0.0,0.0,0.0,0.0,0.0,0.0,0.0,0.0,0.0,0.0,0.0,0.0,0.0,-0.9905,-0.9633,-0.9515,-0.9861,-1.0448,-1.1085,-1.1814,-1.1925,-1.1969,-1.2096,-1.2454,-1.2542,-1.2178,-1.2128,-1.2128,-1.2128,-1.1801,-1.1665,-1.1864,-1.1682,0.0,-1.2315,-1.1951,-1.1831,-1.1979,-1.1844,-1.1594,-1.1299,-1.1851,-1.2228,-1.2416,-1.2747,-1.3023,-1.3198,-1.3198,-1.349,-1.4044,-1.4044,-1.4688,-1.5693,-1.5883,-1.614,-1.6456,-1.6873,-1.7111,-1.7196,-1.7042,-1.7205,-1.7383,0.0,0.0,0.0,0.0,0.0,0.0,0.0,0.0,0.0,0.0,0.0,0.0,0.0,0.0,0.0,-0.7222,-0.6941,-0.6936,-0.7452,-0.756,-0.741,-0.6977,-0.8287,-0.8975,-0.8934,-0.9807,-1.0449,0.0,0.0,0.0,0.0,0.0,-0.9066,-0.8742,-0.7565,-0.6795,-0.6265,0.0,-0.5042,-0.5335,0.0,-0.4624,-0.5152,0.0,0.0,0.0,-0.6545,-0.6803,0.0,-0.7122,0.0,0.0,0.0,0.0,0.0,0.0,0.0,0.0,0.0,0.0,0.0,0.0,0.0,0.0,0.0,0.0,0.0,-0.9944,-0.9607,-0.9369,-0.9369,-0.9381,-0.9702,-1.0786,-1.0965,-1.1143,-1.1533,-1.1575,-1.1575,-1.1563,-1.1563,-1.1563,-1.1563,-1.155,-1.1538,-1.1567,-1.1567,-1.1432,-1.1215,-1.1714,-1.1753,-1.1202,-1.1701,-1.1557,-1.0709,-1.1316,-1.1882,-1.2423,-1.2449,-1.2738,-1.3232,-1.3232,-1.348,-1.3934,-1.3934,-1.4595,-1.5724,-1.6245,-1.6415,-1.6402,-1.7608,-1.768,-1.7188,-1.7885,-1.8145,-1.8145,0.0,0.0,0.0,0.0,0.0,0.0,0.0,0.0,0.0,0.0,0.0,0.0,0.0,-0.6542,-0.7035,-0.7091,-0.711,-0.7136,-0.7146,-0.7509,-0.7867,-0.812,-0.8912,-0.9441,-0.9636,-0.9729,-0.9995,-1.0449,0.0,0.0,0.0,0.0,0.0,0.0,-0.8288,-0.7871,-0.7277,-0.5362,0.0,0.0,-0.4707,-0.4713,0.0,0.0,0.0,0.0,0.0,-0.6034,-0.6987,0.0,-0.7555,-0.879,0.0,0.0,0.0,0.0,0.0,0.0,-0.9698,0.0,0.0,0.0,0.0,0.0,0.0,0.0,0.0,-0.9803,-0.9319,-0.8953,-0.8953,-0.8773,-0.8862,-0.9706,-1.0375,-1.0804,-1.0931,-1.1324,-1.1437,-1.101,-1.0931,-1.0931,-1.0931,-1.0608,-1.0465,0.0,-1.0518,-1.0727,-1.1507,-1.1709,-1.1533,-1.1012,-1.1123,-1.1087,-1.085,-1.1885,-1.2478,-1.2624,-1.3502,-1.4001,-1.4149,-1.4149,-1.4214,-1.4342,-1.4342,-1.4728,-1.5403,-1.5559,-1.5838,-1.6248,-1.7071,-1.7497,-1.776,-1.8423,-1.893,-1.9244,0.0,0.0,0.0,0.0,0.0,0.0,-0.4626,0.0,0.0,0.0,0.0,0.0,0.0,0.0,-0.676,-0.6716,-0.6764,-0.6744,-0.6589,-0.6868,-0.7147,-0.738,-0.8017,-0.8516,-0.8753,-0.8955,-0.9278,-0.9764,0.0,0.0,0.0,0.0,0.0,0.0,0.0,0.0,0.0,0.0,0.0,0.0,-0.538,0.0,0.0,-0.5281,-0.5218,0.0,0.0,0.0,-0.6779,-0.6268,-0.717,0.0,0.0,0.0,0.0,0.0,0.0,0.0,0.0,0.0,0.0,0.0,0.0,0.0,-1.0474,-1.0348,-1.0135,0.0,-0.9266,-0.8844,-0.8953,-0.8816,-0.8828,-0.9328,-0.9956,-1.0383,-1.0383,-1.056,-1.059,-1.0393,-1.0383,-1.0383,-1.0383,-1.0094,-0.997,-1.0185,-1.0021,-1.0315,-1.1294,-1.1605,-1.1532,-1.1085,-1.1071,-1.1001,-1.0897,-1.1875,-1.2346,-1.232,-1.3578,-1.4128,-1.4097,-1.4391,-1.4676,-1.4941,-1.4941,-1.5339,-1.5918,-1.5918,-1.6124,-1.6508,-1.7412,-1.8085,-1.8594,-1.9254,-1.9793,-2.0243,0.0,0.0,0.0,-0.445,-0.4489,-0.4513,-0.4576,0.0,-0.4337,0.0,0.0,0.0,0.0,0.0,0.0,-0.6296,-0.6189,-0.6113,-0.6066,-0.6074,-0.6005,-0.5922,-0.6498,-0.6944,-0.7218,-0.7823,-0.8368,-0.8887,0.0,0.0,0.0,0.0,0.0,0.0,0.0,0.0,0.0,0.0,0.0,-0.71,-0.6411,-0.6353,0.0,0.0,-0.6116,-0.6211,-0.5982,-0.6154,-0.6427,-0.6129,-0.6619,0.0,0.0,0.0,0.0,0.0,-0.8689,0.0,0.0,0.0,0.0,0.0,0.0,0.0,-1.0299,-1.0298,-1.026,0.0,-0.9357,-0.8953,-0.9212,-0.9266,-0.9331,-0.9475,-0.9712,-0.9867,-0.9841,-0.9607,-0.9555,-0.9828,-0.988,-0.9905,-0.9905,-0.9905,-0.9905,-0.9905,-0.9931,-1.0223,-1.0873,-1.1437,-1.1615,-1.1363,-1.1363,-1.1242,-1.0991,-1.1665,-1.1948,-1.1834,-1.3095,-1.3668,-1.3595,-1.4268,-1.4962,-1.5628,-1.5689,-1.6154,-1.6789,-1.6789,-1.6853,-1.703,-1.825,-1.8969,-1.9419,-2.0118,-2.0649,-2.0991,-0.4044,0.0,0.0,-0.4795,-0.5024,-0.5134,-0.5134,0.0,0.0,0.0,0.0,0.0,0.0,0.0,0.0,0.0,-0.6354,-0.6382,-0.6477,-0.6443,-0.6635,-0.7194,-0.7017,-0.7054,-0.743,-0.7171,-0.7409,-0.8202,0.0,0.0,0.0,0.0,0.0,0.0,0.0,0.0,0.0,0.0,0.0,-0.746,-0.7099,0.0,-0.635,-0.6106,-0.5719,-0.5351,-0.5283,-0.5694,-0.6389,-0.7215,-0.7348,-0.7293,0.0,0.0,0.0,-0.8521,0.0,0.0,0.0,0.0,0.0,0.0,0.0,0.0,-1.0148,-1.0072,-0.997,0.0,-0.9542,-0.9357,-0.9623,-0.9725,-0.9867,-1.0161,-0.9944,-0.9673,-0.9528,-0.9659,-0.9724,-0.9528,-0.9738,-0.9905,-0.9905,-0.9905,-0.9905,-0.9905,-1.0135,-1.0483,-1.0873,-1.1219,-1.149,-1.1703,-1.1703,-1.1681,-1.1615,-1.2287,-1.2612,-1.2588,-1.3399,-1.3882,-1.4071,-1.4803,-1.5329,-1.5704,-1.6297,-1.6644,-1.6789,-1.6789,-1.6802,-1.6948,-1.8332,-1.8926,-1.9158,-2.0401,-2.0926,-2.0991,-0.41,0.0,0.0,-0.4919,-0.5118,-0.524,-0.5375,-0.54,0.0,0.0,0.0,0.0,0.0,0.0,0.0,0.0,0.0,-0.6408,-0.632,-0.6539,-0.6804,-0.6987,-0.685,-0.6715,-0.6591,-0.643,-0.67,-0.7403,0.0,0.0,0.0,0.0,0.0,0.0,0.0,0.0,0.0,0.0,-0.8223,-0.8202,-0.7461,0.0,-0.6676,-0.6112,-0.5564,-0.5108,-0.5108,-0.5343,-0.5827,-0.7017,-0.7235,0.0,0.0,-0.8603,-0.8787,0.0,-0.9063,-0.9329,0.0,0.0,0.0,-0.9591,0.0,0.0,0.0,-0.9905,-0.9828,-0.9764,-0.9867,-0.9944,-0.9995,-1.011,-1.0236,-1.0374,-1.0135,-0.9919,-0.9816,-0.953,-0.9357,-0.9396,-0.9555,-0.9724,-0.9867,-0.9905,-0.9905,-0.9905,-1.021,-1.0556,-1.0873,-1.115,-1.1445,-1.1805,-1.1805,-1.1805,-1.1805,-1.2471,-1.2705,-1.2521,-1.3892,-1.4523,-1.4499,-1.5562,-1.6196,-1.6532,-1.6889,-1.7126,-1.7288,-1.7288,-1.7288,-1.7412,-1.8474,-1.9248,-1.9829,-2.09,-2.1446,-2.1661,-0.4098,0.0,0.0,-0.4933,-0.5064,-0.5246,-0.553,-0.5325,0.0,0.0,0.0,0.0,0.0,0.0,0.0,0.0,0.0,-0.6516,0.0,0.0,-0.6823,-0.6612,-0.6547,-0.6296,-0.5874,-0.5871,-0.6176,-0.6764,0.0,0.0,0.0,0.0,0.0,0.0,0.0,0.0,0.0,0.0,0.0,-0.8512,0.0,-0.7281,-0.731,-0.6429,-0.5773,-0.5323,-0.5254,-0.5333,-0.5621,-0.6686,-0.7102,-0.7347,-0.8329,-0.888,0.0,0.0,0.0,0.0,0.0,0.0,0.0,0.0,0.0,-0.9802,0.0,0.0,0.0,0.0,0.0,0.0,0.0,0.0,0.0,0.0,0.0,0.0,0.0,-0.955,0.0,-0.9583,-0.9542,-0.9633,-0.9995,-0.9944,-0.9919,-0.9983,-1.0217,-1.0542,-1.0954,-1.1173,-1.1445,-1.1805,-1.1848,-1.1891,-1.1891,-1.2606,-1.2823,-1.251,-1.4179,-1.4869,-1.4681,-1.5974,-1.6773,-1.7121,-1.7405,-1.7715,-1.7949,-1.7905,-1.7878,-1.7952,-1.8624,-1.9519,-2.0494,-2.1238,-2.184,-2.231,-0.3828,-0.4117,0.0,0.0,-0.506,-0.5418,-0.5798,-0.5761,0.0,0.0,0.0,0.0,0.0,0.0,0.0,0.0,0.0,0.0,-0.7085,0.0,0.0,-0.7283,-0.6558,-0.6262,-0.6491,-0.5815,-0.5848,-0.6619,0.0,0.0,0.0,0.0,0.0,0.0,-0.8839,0.0,0.0,0.0,-0.8434,0.0,-0.7462,-0.7732,0.0,-0.7391,-0.6728,-0.6118,-0.5822,-0.6181,-0.6866,0.0,-0.7689,-0.7984,0.0,-0.9264,-0.985,-0.9255,0.0,0.0,0.0,0.0,0.0,0.0,-0.9788,0.0,0.0,0.0,-0.9814,-1.0148,0.0,0.0,0.0,0.0,0.0,0.0,0.0,0.0,-0.9862,-1.016,-1.0387,-1.0376,-1.0059,-1.0021,-1.047,-1.0093,-0.9953,-1.032,-1.028,-1.052,-1.1222,-1.1273,-1.1445,-1.1805,-1.2024,-1.2149,-1.2149,-1.311,-1.3573,-1.3535,-1.3754,-1.4088,-1.4454,-1.5339,-1.598,-1.6484,-1.7872,-1.8471,-1.8489,-1.8249,-1.8146,-1.8211,-1.8697,-1.937,-2.0153,-2.0955,-2.1691,-2.231,-0.3899,-0.4227,0.0,0.0,-0.5106,-0.5428,-0.5624,-0.5835,0.0,0.0,0.0,0.0,0.0,0.0,0.0,0.0,0.0,-0.814,0.0,0.0,0.0,0.0,-0.7274,0.0,-0.705,-0.6197,-0.5991,-0.6475,-0.6837,0.0,0.0,0.0,0.0,0.0,-0.8572,0.0,-0.888,0.0,-0.9377,0.0,0.0,0.0,0.0,-0.7414,-0.6608,-0.6376,-0.6452,-0.6725,-0.7111,0.0,-0.8403,0.0,0.0,0.0,0.0,-1.0303,0.0,0.0,0.0,0.0,0.0,0.0,0.0,0.0,-0.9903,0.0,-0.9788,0.0,0.0,0.0,0.0,0.0,0.0,0.0,-0.9982,0.0,0.0,0.0,-1.1505,0.0,0.0,0.0,-1.0861,-1.0253,-0.9875,-0.9947,-1.0135,-1.0626,-1.149,-1.1672,-1.1921,-1.2256,-1.2376,-1.2641,-1.3072,-1.3483,-1.3852,-1.4112,-1.4546,-1.5018,-1.5523,-1.6289,-1.701,-1.7684,-1.8321,-1.8585,-1.8566,-1.831,-1.8187,-1.8201,-1.8245,-1.8954,-2.0086,-2.0889,-2.1667,-2.231,-0.4009,0.0,0.0,0.0,0.0,0.0,-0.5617,0.0,0.0,0.0,0.0,0.0,-0.8472,-0.8582,0.0,0.0,-0.8806,-0.8905,0.0,0.0,-0.8219,0.0,0.0,0.0,0.0,-0.691,-0.6606,-0.6825,0.0,0.0,0.0,0.0,0.0,0.0,0.0,-0.8571,-0.8918,0.0,0.0,-0.9286,-0.9438,-0.9515,-0.9315,-0.7662,-0.6966,-0.6927,-0.7239,-0.747,-0.776,-0.8391,-0.9029,0.0,-1.0652,0.0,-1.118,0.0,0.0,0.0,-1.1464,0.0,0.0,0.0,0.0,0.0,0.0,0.0,0.0,0.0,0.0,0.0,0.0,0.0,0.0,0.0,0.0,-1.023,0.0,-1.1712,0.0,0.0,0.0,0.0,0.0,-1.0178,-0.97,-0.974,-1.0036,-1.0765,-1.2029,-1.2238,-1.2427,-1.2673,-1.2706,-1.3002,-1.3583,-1.3854,-1.4307,-1.4933,-1.5465,-1.6062,-1.6687,-1.7257,-1.7861,-1.8485,-1.8699,-1.8753,-1.8697,-1.841,-1.827,-1.8184,-1.8126,-1.887,-2.0069,-2.0653,-2.1481,-2.231,-0.411,-0.4258,0.0,0.0,0.0,0.0,0.0,0.0,0.0,0.0,0.0,0.0,0.0,0.0,0.0,0.0,0.0,-0.9127,-0.8558,0.0,-0.8197,0.0,0.0,-0.8369,0.0,0.0,-0.783,-0.7858,0.0,0.0,0.0,0.0,0.0,0.0,0.0,-0.9042,-0.9756,-0.9529,-0.9236,-0.8887,-0.8655,-0.8421,-0.8298,0.0,-0.8414,-0.8152,-0.8152,0.0,0.0,-0.9372,-0.9528,0.0,0.0,0.0,0.0,0.0,0.0,0.0,0.0,0.0,0.0,-1.1576,0.0,0.0,0.0,0.0,-1.0148,0.0,0.0,0.0,0.0,0.0,0.0,0.0,0.0,0.0,0.0,0.0,0.0,0.0,0.0,0.0,0.0,-0.965,-0.9464,-1.0044,-1.0045,-1.0935,-1.3042,-1.2965,-1.2871,-1.2898,-1.2946,-1.3086,-1.3312,-1.4281,-1.5262,-1.6251,-1.6269,-1.6757,-1.7651,-1.7736,-1.7915,-1.8159,-1.8944,-1.9166,-1.8966,-1.8697,-1.843,-1.8236,-1.8688,-1.9333,-2.0002,-2.0018,-2.0981,-2.231,0.0,0.0,0.0,0.0,0.0,0.0,0.0,-0.7103,0.0,0.0,0.0,0.0,0.0,-1.0206,-1.0045,0.0,0.0,-0.9864,-0.9891,-0.9111,0.0,0.0,0.0,-0.8896,0.0,0.0,0.0,0.0,0.0,0.0,0.0,0.0,0.0,0.0,0.0,-0.9015,0.0,0.0,0.0,0.0,0.0,-0.9636,-0.9868,0.0,-0.847,-0.8623,-0.8899,-0.9174,0.0,-0.9672,-1.0104,-1.0653,-1.1094,-1.1513,-1.1967,-1.2494,-1.2753,-1.298,0.0,0.0,-1.3796,-1.3291,0.0,0.0,0.0,0.0,0.0,0.0,0.0,0.0,0.0,0.0,0.0,0.0,0.0,0.0,0.0,0.0,0.0,0.0,0.0,0.0,0.0,0.0,-0.9373,-0.9311,-0.8784,-0.878,-0.9463,-1.2169,-1.3693,-1.3686,-1.3503,-1.3731,-1.4425,-1.5193,-1.587,-1.6445,-1.698,-1.7503,-1.7975,-1.799,-1.8328,-1.8904,-1.9041,-1.9069,-1.8966,-1.8508,-1.829,-1.8253,-1.8722,-1.935,-2.0052,-2.0602,-2.1431,-2.231,-0.4917,0.0,0.0,0.0,0.0,0.0,0.0,0.0,0.0,0.0,-0.9833,0.0,-1.1597,0.0,-1.0792,0.0,-1.0313,-1.0164,-1.0418,-0.9576,0.0,-1.0846,-0.9803,0.0,0.0,0.0,0.0,0.0,0.0,-0.8262,0.0,0.0,0.0,0.0,0.0,-0.924,-0.9301,0.0,-0.9437,0.0,0.0,-1.0485,0.0,0.0,-0.9505,-0.9694,0.0,-1.0079,-0.9985,-1.0139,-1.0499,-1.0975,-1.1442,-1.1755,-1.2134,-1.32,-1.3465,-1.3599,-1.4414,-1.4774,0.0,-1.45,-1.4471,0.0,-1.3147,0.0,-1.2787,0.0,0.0,0.0,0.0,0.0,0.0,0.0,0.0,0.0,0.0,-1.1242,0.0,0.0,0.0,0.0,0.0,0.0,-1.0022,-0.9847,-0.8573,-0.8483,-1.0047,-1.2627,-1.4118,-1.4192,-1.3763,-1.4044,-1.5137,-1.5497,-1.6141,-1.7074,-1.7597,-1.8073,-1.8537,-1.8537,-1.8812,-1.9289,-1.9166,-1.9,-1.8825,-1.8489,-1.8229,-1.8121,-1.8965,-1.9587,-2.0086,-2.0889,-2.1667,-2.231,0.0,0.0,0.0,0.0,-0.7029,0.0,0.0,0.0,-1.1185,0.0,-1.1699,-1.1788,-1.3541,-1.183,-1.0598,-1.0788,-1.0347,-1.0071,-1.0111,-0.9884,0.0,0.0,-1.0241,-0.9938,-0.9251,0.0,0.0,0.0,0.0,0.0,0.0,0.0,0.0,0.0,-0.9609,0.0,-0.9631,-0.9545,-0.9405,-0.9372,-1.0365,-1.0897,-1.1127,-1.1475,-1.1513,-1.1347,-1.1534,-1.1362,-1.1023,-1.0806,-1.0731,-1.0844,-1.145,-1.1656,-1.1979,-1.3474,-1.4214,-1.4596,-1.4876,-1.5225,-1.5448,-1.5104,-1.5074,0.0,0.0,0.0,-1.3448,0.0,0.0,0.0,0.0,0.0,0.0,0.0,0.0,0.0,0.0,0.0,-1.1747,0.0,0.0,0.0,0.0,-1.1171,-1.1166,-1.1535,-0.954,-1.0196,0.0,-1.4299,-1.4186,-1.4478,-1.3851,-1.4146,-1.547,-1.5317,-1.6211,-1.8096,-1.8151,-1.8555,-1.9305,-1.9305,-1.9305,-1.9289,-1.9289,-1.9031,-1.8622,-1.8585,-1.827,-1.7963,-1.9427,-2.0052,-2.0204,-2.0957,-2.1701,-2.231,-0.5107,-0.5357,-0.5623,0.0,-0.7332,-0.8541,0.0,0.0,0.0,0.0,-1.1731,-1.1576,-1.2829,-1.1804,-1.0886,-1.0533,-1.0797,0.0,0.0,0.0,0.0,-1.0747,-1.1025,-1.0723,-0.9797,-0.9897,0.0,-1.0377,0.0,0.0,-1.0179,0.0,0.0,0.0,0.0,0.0,-1.0092,-0.9609,-0.9855,-1.0603,-1.1432,-1.1837,-1.1961,0.0,-1.238,-1.2781,-1.19,-1.1676,-1.1763,-1.1462,-1.1362,-1.1462,-1.2027,-1.2385,-1.2874,-1.4015,-1.4627,-1.5043,-1.5448,-1.5639,-1.5668,-1.5477,-1.5448,-1.5374,0.0,0.0,0.0,0.0,0.0,0.0,0.0,0.0,0.0,0.0,0.0,0.0,0.0,0.0,0.0,-1.1933,0.0,0.0,-1.1675,-0.9683,-0.9474,-1.2127,-1.2644,-1.3428,-1.485,0.0,-1.5029,-1.5647,-1.5252,-1.5515,-1.6506,-1.6914,-1.7433,-1.8115,-1.8702,-1.9087,-1.9305,-1.9305,-1.9305,-1.9289,-1.9134,-1.9018,-1.8878,-1.8469,-1.8229,-1.8216,-1.9508,-2.0694,-2.1725,-2.1938,-2.2141,-2.231,-0.5319,0.0,0.0,-0.6425,0.0,0.0,-0.9204,-1.0375,0.0,-1.3203,-1.2342,0.0,-1.3051,-1.2194,-1.1438,-1.1136,-1.1293,0.0,-1.1451,0.0,0.0,-1.116,-1.1211,-1.0906,-1.0156,-1.061,0.0,-1.0827,0.0,0.0,-1.0504,0.0,0.0,0.0,0.0,-0.997,0.0,-0.9702,-1.0334,-1.1638,-1.1977,-1.2348,0.0,-1.2592,-1.1711,-1.0644,-1.1857,-1.2429,-1.2529,-1.209,-1.1952,-1.2002,-1.2316,-1.2685,-1.32,-1.4182,-1.4783,-1.5195,-1.5668,-1.5799,-1.5845,-1.6025,-1.6069,-1.6039,-1.5859,-1.5676,-1.5272,0.0,-1.3827,-1.3308,0.0,0.0,0.0,0.0,0.0,0.0,0.0,0.0,0.0,0.0,-1.1681,0.0,-1.2194,-1.0634,-1.0609,-1.3063,-1.4036,-1.4634,-1.4933,0.0,-1.5225,-1.6035,-1.6005,-1.6438,-1.7422,-1.8058,-1.8458,-1.8629,-1.9069,-1.9305,-1.9305,-1.9305,-1.9305,-1.9308,-1.9547,-1.9611,-1.9506,-1.9194,-1.9132,-1.9295,-2.0186,-2.1262,-2.231,-2.231,-2.231,-2.231,0.0,0.0,0.0,0.0,0.0,0.0,0.0,-1.1075,0.0,-1.4073,0.0,-1.2622,-1.3652,-1.2721,-1.1984,-1.1984,0.0,-1.1951,-1.2366,-1.1631,-1.1348,-1.1676,-1.1376,-1.0945,-1.0403,-1.1549,-1.1813,0.0,0.0,0.0,0.0,0.0,0.0,0.0,0.0,0.0,0.0,-1.0145,-1.1069,-1.2472,-1.2309,-1.2634,-1.3198,-1.3198,-1.0806,-0.7964,-1.1821,-1.3198,-1.3123,-1.2647,-1.2484,-1.2484,-1.2484,-1.2801,-1.3307,-1.421,-1.4783,-1.5195,-1.5668,-1.5799,-1.5933,-1.6443,-1.6577,-1.6547,-1.6347,-1.6285,-1.5939,-1.4918,-1.4352,-1.3869,-1.3441,0.0,0.0,0.0,0.0,0.0,0.0,0.0,0.0,0.0,0.0,0.0,-1.2764,-1.2606,-1.2922,-1.402,-1.4337,-1.4608,-1.4894,0.0,-1.5189,-1.6145,-1.6447,-1.7191,-1.8408,-1.8922,-1.9269,-1.9455,-1.9375,-1.932,-1.9305,-1.9305,-1.9305,-1.9326,-2.0042,-2.0293,-2.0246,-2.021,-2.0408,-2.0755,-2.1173,-2.1725,-2.2349,-2.2349,-2.2321,-2.231,0.0,0.0,0.0,0.0,0.0,-1.1193,-1.0558,-1.1179,-1.2319,-1.3841,-1.3064,-1.2675,-1.3471,-1.2633,-1.1984,-1.1984,-1.2424,0.0,0.0,0.0,0.0,-1.2753,-1.273,-1.2143,-1.0888,-1.1549,-1.1802,0.0,0.0,0.0,0.0,0.0,0.0,0.0,0.0,0.0,-1.0677,-1.2031,0.0,-1.3048,-1.3023,-1.3085,-1.3198,-1.3198,-1.2722,-1.2146,-1.2922,-1.3198,-1.3185,-1.3085,-1.3048,-1.3048,-1.3048,-1.336,-1.3853,-1.4333,-1.4783,-1.5195,-1.5668,-1.5799,-1.5829,-1.5933,-1.5978,-1.5949,-1.5905,-1.5624,-1.5106,-1.437,-1.3895,-1.3401,-1.2707,0.0,0.0,0.0,0.0,0.0,0.0,0.0,0.0,0.0,0.0,-1.2182,0.0,-1.2898,-1.3177,-1.4034,-1.4302,-1.4566,-1.4875,0.0,-1.5651,0.0,-1.7135,-1.8111,0.0,0.0,-1.9775,-2.028,-1.9785,-1.9471,-1.9305,-1.9305,-1.9305,-1.9323,-1.9436,-1.9879,-2.0418,-2.0264,-2.0849,-2.1834,-2.1907,-2.2227,-2.2634,-2.2634,-2.2473,-2.231,0.0,0.0,0.0,0.0,0.0,0.0,0.0,-1.2449,-1.3151,-1.3669,-1.2862,-1.2556,-1.3419,-1.2974,-1.2723,-1.2948,-1.3045,-1.3266,-1.3736,-1.3565,-1.3293,-1.3002,-1.3037,-1.2628,-1.1751,-1.2241,-1.2471,-1.2387,0.0,0.0,0.0,0.0,0.0,0.0,0.0,-1.0754,0.0,0.0,0.0,-1.3198,-1.3198,-1.3198,-1.3198,-1.3198,-1.3198,-1.3198,-1.3198,-1.3198,-1.3198,-1.3198,-1.3198,-1.3198,-1.3198,-1.3514,-1.4,-1.4374,-1.4783,-1.5195,-1.5668,-1.5799,-1.5799,-1.5799,-1.5926,-1.6011,-1.5856,-1.5596,-1.5273,-1.4767,-1.4344,-1.3859,-1.3199,-1.2522,0.0,0.0,0.0,0.0,0.0,0.0,-1.2422,0.0,0.0,0.0,0.0,0.0,0.0,0.0,0.0,0.0,0.0,0.0,-1.6078,0.0,0.0,0.0,-1.9457,0.0,-2.0233,-2.003,-1.9727,-1.9499,-1.9305,-1.9305,-1.9305,-1.9308,-1.9748,-2.0409,-2.1218,-2.1787,-2.1882,-2.1756,-2.2407,-2.2663,-2.2695,-2.2755,-2.2571,-2.231,0.0,-0.8799,0.0,0.0,-1.1551,0.0,-1.2704,-1.3521,-1.3955,-1.3489,-1.2797,-1.2631,-1.3374,-1.3301,-1.3357,-1.3702,-1.348,-1.3682,-1.4438,-1.3847,-1.3421,-1.3329,-1.3391,-1.3218,-1.273,-1.3128,-1.331,0.0,0.0,0.0,0.0,0.0,0.0,0.0,0.0,0.0,0.0,0.0,-1.2606,-1.3198,-1.3198,-1.3198,-1.3198,-1.3198,-1.3198,-1.3198,-1.3198,-1.3198,-1.3198,-1.3198,-1.3198,-1.3198,-1.3198,-1.3459,-1.3835,-1.4246,-1.4658,-1.5074,-1.5551,-1.5712,-1.5827,-1.5885,-1.6108,-1.6246,-1.6067,-1.5863,-1.559,-1.5177,-1.4656,-1.4111,-1.3576,-1.2959,0.0,0.0,0.0,0.0,0.0,0.0,0.0,0.0,0.0,0.0,-1.3625,0.0,0.0,0.0,0.0,0.0,-1.5244,0.0,0.0,0.0,0.0,-1.9501,-1.9028,0.0,-2.0465,-1.9843,-1.9697,-1.9523,-1.9305,-1.9305,-1.9305,-1.9341,-1.9968,-2.0739,-2.1603,-2.2806,-2.2654,-2.1765,-2.2765,-2.3047,-2.2923,-2.2958,-2.2738,-2.2388,0.0,0.0,0.0,0.0,0.0,0.0,-1.2746,-1.3422,-1.3896,-1.3295,-1.3148,-1.3135,-1.3232,-1.3198,-1.3232,-1.3267,-1.3615,-1.4019,-1.447,-1.4758,-1.4729,-1.4387,-1.4729,-1.453,-1.3789,-1.3809,-1.3888,0.0,0.0,-1.1971,0.0,0.0,0.0,0.0,0.0,0.0,0.0,-1.2808,-1.3135,-1.3198,-1.3198,-1.3198,-1.3198,-1.3198,-1.3198,-1.3198,-1.3198,-1.3198,-1.3198,-1.3198,-1.3198,-1.3198,-1.3198,-1.3232,-1.3357,-1.3835,-1.4246,-1.4658,-1.5043,-1.5477,-1.5885,-1.6163,-1.6274,-1.6367,-1.6633,-1.618,-1.5519,-1.4881,-1.3889,-1.3067,-1.2835,-1.3031,-1.3159,0.0,0.0,0.0,0.0,0.0,-1.3613,-1.471,0.0,0.0,-1.4375,-1.447,-1.4546,-1.4632,-1.4616,0.0,0.0,0.0,0.0,-1.8441,-1.8697,-1.9449,-2.0747,-2.0318,-2.0301,-2.0681,-2.007,-1.9606,-1.9305,-1.9305,-1.9305,-1.9289,-1.9381,-1.9877,-2.0686,-2.1603,-2.2319,-2.285,-2.2959,-2.326,-2.3628,-2.3628,-2.3206,-2.2643,0.0,0.0,0.0,0.0,0.0,0.0,0.0,-1.3825,-1.3883,-1.3273,-1.291,-1.2835,-1.316,-1.2897,-1.2968,-1.3589,-1.3514,-1.3769,-1.447,-1.4658,-1.4658,-1.4501,-1.4876,-1.4845,-1.4278,-1.4246,-1.4214,0.0,0.0,0.0,0.0,0.0,0.0,0.0,0.0,-1.2584,-1.283,-1.3479,-1.338,-1.2791,-1.2791,-1.2615,-1.2401,-1.2685,-1.2791,-1.2838,-1.3094,-1.3198,-1.3198,-1.3198,-1.3198,-1.3198,-1.3198,-1.3198,-1.3301,-1.3769,-1.4181,-1.4596,-1.4982,-1.5448,-1.5885,-1.6219,-1.6448,-1.6633,-1.6763,-1.6198,-1.5501,-1.5054,-1.4103,-1.3378,-1.3409,-1.3522,-1.3756,-1.4187,0.0,0.0,0.0,0.0,0.0,-1.5841,0.0,-1.4935,-1.5697,-1.5188,-1.5244,-1.6252,0.0,0.0,0.0,0.0,0.0,-1.8028,0.0,-1.9438,-1.9011,-1.979,-1.9926,-1.9414,-1.968,-1.9619,-1.9305,-1.9305,-1.9305,-1.9341,-1.9803,-1.9932,-1.9877,-2.1235,-2.1675,-2.1585,-2.2593,-2.2992,-2.304,-2.3512,-2.3392,-2.2996,-1.1532,0.0,-1.1704,0.0,-1.2968,-1.3214,-1.357,-1.3738,-1.3672,-1.3248,-1.2722,-1.2584,-1.3135,-1.2847,-1.2926,-1.3643,-1.3514,-1.3682,-1.4278,-1.4438,-1.4438,-1.4342,-1.4814,0.0,-1.4342,-1.4564,-1.447,-1.4019,-1.4084,0.0,0.0,0.0,0.0,0.0,-1.2152,-1.2556,-1.2894,-1.3277,-1.2987,-1.2282,-1.2282,-1.2102,-1.1847,-1.2318,-1.2508,-1.2544,-1.3012,-1.3198,-1.3198,-1.3198,-1.3198,-1.3198,-1.3198,-1.3198,-1.3301,-1.3769,-1.4181,-1.4596,-1.4982,-1.5492,-1.6039,-1.6367,-1.6712,-1.6952,-1.7068,-1.6559,-1.5863,-1.5235,-1.4538,-1.3998,-1.392,-1.3913,-1.4119,-1.4741,0.0,0.0,0.0,-1.6034,0.0,-1.6431,-1.5893,-1.5872,-1.6778,-1.6143,-1.6189,-1.7366,0.0,0.0,0.0,0.0,0.0,0.0,0.0,0.0,-1.8093,-1.9511,-1.964,-1.8512,-1.9336,-1.9585,-1.9305,-1.9305,-1.9305,-1.9326,-1.9895,-1.9822,-1.9396,-2.059,-2.0978,-2.0996,-2.2189,-2.2794,-2.3073,-2.3637,-2.3631,-2.3346,-1.2554,-1.2986,-1.3237,-1.3184,-1.3651,-1.3643,-1.2675,-1.2908,-1.321,-1.3198,-1.2722,-1.2584,-1.3135,-1.3185,-1.3198,-1.3198,-1.3648,-1.3901,-1.3901,-1.4278,-1.431,0.0,0.0,-1.4721,-1.3934,-1.469,-1.469,-1.3901,0.0,0.0,-1.1302,0.0,-1.0814,-1.169,-1.1583,-1.1638,-1.1822,-1.1822,-1.1822,-1.1811,-1.1811,-1.1811,-1.1847,-1.2318,-1.2508,-1.2544,-1.3012,-1.3198,-1.3198,-1.3198,-1.3198,-1.3198,-1.3198,-1.3198,-1.3301,-1.3769,-1.4181,-1.4596,-1.4982,-1.5681,-1.6367,-1.6712,-1.7052,-1.7368,-1.7704,-1.7435,-1.669,-1.5367,-1.5092,-1.4843,-1.4055,-1.4051,-1.4188,-1.4206,0.0,0.0,0.0,-1.5703,0.0,-1.6219,-1.6497,-1.6886,-1.7441,-1.754,0.0,0.0,0.0,0.0,0.0,0.0,0.0,-2.0172,-2.0186,0.0,-1.9001,-1.9657,-1.9495,-1.8512,-1.9251,-1.9499,-1.9305,-1.9305,-1.9305,-1.9305,-1.9323,-1.9323,-1.9289,-1.9323,-2.0315,-2.1803,-2.1821,-2.2776,-2.419,-2.419,-2.3976,-2.3692,-1.278,-1.2942,-1.2924,-1.2658,-1.3012,-1.3134,-1.2591,-1.2908,-1.3198,-1.3198,-1.3048,-1.2998,-1.3185,-1.286,-1.2785,0.0,-1.3323,-1.3425,0.0,-1.3835,-1.4019,-1.3901,-1.4771,-1.4962,-1.4324,-1.5223,-1.5237,-1.431,0.0,0.0,0.0,-1.1319,-1.1116,-1.1195,-1.189,-1.2167,-1.2178,-1.2913,-1.2828,-1.2135,-1.1855,-1.1726,-1.1733,-1.1934,-1.221,-1.2544,-1.3012,-1.3425,-1.3682,-1.3682,-1.3868,-1.4084,-1.4084,-1.3901,-1.3769,-1.4181,-1.4596,-1.4984,-1.533,-1.5851,-1.6448,-1.7002,-1.7224,-1.7439,-1.7954,-1.7718,-1.7135,-1.6297,-1.6109,-1.5919,-1.5251,-1.5741,-1.6053,-1.5464,-1.6653,0.0,-1.5957,0.0,-1.6477,-1.6417,-1.6668,-1.7282,-1.8421,-1.8536,0.0,0.0,0.0,0.0,0.0,0.0,0.0,0.0,-2.0214,0.0,-1.8059,-1.9344,-1.917,-1.7557,-1.8938,-1.9499,-1.9305,-1.9305,-1.9305,-1.9305,-1.9305,-1.9305,-1.9326,-1.9895,-2.0427,-2.1033,-2.2171,-2.2942,-2.3456,-2.4006,-2.4113,-2.4036,-1.2881,-1.2754,-1.2496,-1.2108,-1.2289,-1.2392,-1.1997,-1.2496,-1.2943,-1.2943,-1.3094,-1.3198,-1.3198,-1.2897,0.0,-1.3173,-1.3198,-1.3198,-1.3198,-1.3459,-1.3702,-1.3901,-1.4849,-1.5219,-1.4879,-1.5773,0.0,-1.4879,-1.4488,-1.3708,-1.2612,-1.2087,-1.1697,-1.151,-1.1988,-1.23,-1.2431,-1.2932,-1.2817,-1.2378,-1.1916,-1.1733,-1.1767,-1.196,-1.2246,-1.2567,-1.3242,-1.3648,-1.3934,-1.4052,-1.4278,-1.4533,-1.469,-1.4631,-1.454,-1.4676,-1.497,-1.5375,-1.5764,-1.6266,-1.6773,-1.7199,-1.7469,-1.7788,-1.8353,-1.8269,-1.7892,-1.7288,-1.7169,-1.699,-1.6368,-1.6785,-1.7034,-1.6536,-1.739,-1.7785,-1.6861,0.0,-1.7271,0.0,0.0,-1.8432,0.0,-1.94,-1.9638,0.0,0.0,0.0,0.0,0.0,-1.9616,-2.015,-2.0125,-1.9448,-1.8066,-1.9256,-1.9066,-1.7566,-1.8864,-1.9409,-1.9305,-1.9305,-1.9455,-1.9748,-1.9748,-1.9932,-2.0278,-2.0776,-2.118,-2.153,-2.2575,-2.318,-2.3511,-2.4006,-2.419,-2.419,-1.2929,-1.2557,-1.2116,-1.1689,-1.1675,-1.1554,-1.112,-1.1872,-1.2508,-1.2544,-1.2943,-1.3198,-1.3198,-1.3198,-1.3198,-1.3198,0.0,0.0,-1.3198,-1.3198,-1.3438,-1.3921,-1.497,-1.5521,-1.5569,-1.6378,-1.6364,-1.5533,-1.4444,-1.3851,-1.3789,-1.2901,-1.2469,-1.2374,-1.2047,-1.2152,-1.2557,-1.2129,-1.2208,-1.2591,-1.2095,-1.1892,-1.1929,-1.2365,-1.2567,-1.2708,-1.3622,-1.3967,-1.4052,-1.4424,-1.4582,-1.4676,-1.509,-1.5433,-1.562,-1.5285,-1.5433,-1.579,-1.6243,-1.685,-1.7327,-1.7368,-1.781,-1.8391,-1.8896,-1.9001,-1.8851,-1.8291,-1.8203,-1.802,-1.7398,-1.7345,-1.7412,-1.7406,-1.7473,-1.7539,-1.7598,-1.804,-1.846,-1.8782,0.0,0.0,-2.0022,-2.0078,-2.0161,0.0,0.0,0.0,0.0,0.0,-2.0069,-2.026,-1.9952,-1.9468,-1.8793,-1.9307,-1.9178,-1.839,-1.8996,-1.9305,-1.9305,-1.9305,-1.9711,-2.0411,-2.0484,-2.096,-2.1729,-2.1839,-2.2318,-2.3015,-2.307,-2.3547,-2.419,-2.419,-2.419,-2.419,-1.3063,0.0,-1.2614,-1.182,-1.1704,-1.1683,-1.1619,-1.2102,-1.2615,-1.2978,-1.3129,-1.3198,-1.3198,-1.3198,-1.3198,-1.3198,-1.3198,-1.3198,-1.3198,-1.3198,-1.3616,-1.4536,-1.5283,-1.5842,-1.6264,-1.7147,-1.7069,-1.5974,-1.5173,-1.4452,-1.3819,-1.3563,-1.3101,-1.2411,-1.2631,-1.2613,-1.2463,-1.3014,-1.3106,-1.2873,-1.2777,-1.2745,-1.2808,-1.2911,-1.3213,-1.3622,-1.4181,-1.4564,-1.4876,-1.5227,-1.5564,-1.5938,-1.6282,-1.6443,-1.647,-1.6105,-1.6254,-1.6602,-1.696,-1.7335,-1.7665,-1.7919,-1.8393,-1.8843,-1.8966,-1.9117,-1.9191,-1.9051,-1.9132,-1.9016,-1.8261,-1.8779,-1.8954,-1.7754,-1.8701,-1.9134,-1.786,-1.8333,-1.887,0.0,-1.9127,-1.9511,-2.0175,-2.0241,-2.0241,0.0,0.0,-2.0152,-2.0152,-1.9899,-1.9828,-1.9909,-1.9843,-1.9378,-1.85,-1.9225,-1.9421,-1.9074,-1.9228,-1.9305,-1.9305,-1.9305,-1.9399,-1.962,-2.0228,-2.0613,-2.0923,-2.2189,-2.2832,-2.307,-2.3676,-2.4025,-2.419,-2.419,-2.419,-2.419,-1.3407,-1.3055,-1.2657,-1.2152,-1.152,-1.109,-1.1109,-1.1726,-1.2282,-1.2544,-1.2943,-1.3301,-1.348,-1.3514,-1.3581,-1.3769,-1.3648,-1.3514,-1.3514,-1.3984,-1.46,-1.5351,-1.6312,-1.7036,-1.7522,-1.7996,-1.7661,-1.6371,-1.5726,-1.5219,-1.4846,-1.4538,-1.4332,-1.4275,-1.3846,-1.3871,-1.4188,-1.4086,-1.4063,-1.4024,-1.376,-1.3699,-1.3734,-1.3754,-1.3914,-1.4246,-1.4788,-1.5152,-1.5404,-1.5961,-1.632,-1.6554,-1.6738,-1.6917,-1.7002,-1.6825,-1.6969,-1.7263,-1.7412,-1.7798,-1.8177,-1.8489,-1.8789,-1.9018,-1.9135,-1.9212,-1.932,-1.9427,-1.9527,-1.95,-1.9201,-1.9618,-1.9745,-1.8964,-1.9296,-1.9484,-1.8958,-1.8924,-1.9108,-1.9542,-1.9581,-1.9773,-2.0254,-2.0312,-2.0277,-2.0241,-2.0535,0.0,-2.0125,-2.0259,-2.0198,-1.989,-1.9676,-1.938,-1.8957,-1.9291,-1.9413,-1.9305,-1.938,-1.938,-1.9305,-1.9413,-1.9601,-1.9877,-2.0301,-2.0924,-2.1713,-2.2612,-2.3235,-2.3602,-2.4025,-2.419,-2.419,-2.419,-2.419,-2.419,-1.3822,-1.3237,-1.2688,-1.2548,-1.1395,-1.0544,-1.0621,-1.1367,-1.192,-1.1993,-1.2791,-1.3459,-1.3868,-1.3967,-1.4117,-1.447,-1.4246,-1.4052,-1.4,-1.4935,-1.574,-1.6329,-1.7461,-1.837,-1.894,-1.8691,-1.7981,-1.6861,-1.6188,-1.6025,-1.6279,-1.5785,-1.5932,-1.6626,-1.5384,-1.5357,-1.618,-1.5119,-1.4924,-1.5291,-1.4903,-1.4724,-1.4648,-1.4662,-1.4693,-1.4833,-1.5491,-1.5734,-1.5902,-1.6628,-1.6892,-1.6892,-1.6942,-1.715,-1.7368,-1.7368,-1.7591,-1.7825,-1.7798,-1.8217,-1.8734,-1.8984,-1.9052,-1.9102,-1.9259,-1.932,-1.938,-1.9555,-1.9636,-1.9726,-1.9963,-2.0022,-2.0087,-2.0241,-1.9622,-1.9375,-2.0153,0.0,-1.9422,-2.0208,-2.0312,-2.0312,-2.0312,-2.0312,-2.035,-2.0465,-2.089,-2.0871,-2.027,-2.0682,-2.0641,-2.0022,-1.9587,-1.9467,-1.9636,-1.9467,-1.9394,-1.9394,-1.9536,-1.9523,-1.935,-1.9527,-1.993,-2.0503,-2.0503,-2.1438,-2.2997,-2.2997,-2.3474,-2.419,-2.419,-2.419,-2.419,-2.419,-2.419,-2.419,-1.4067,-1.3906,-1.3548,-1.2668,-1.1986,-1.17,-1.2102,-1.2282,-1.2544,-1.2943,-1.3446,-1.3835,-1.3901,-1.4214,-1.4438,-1.4501,-1.4752,-1.4783,-1.4438,-1.51,-1.6061,-1.7384,-1.7886,-1.8688,-2.0008,-1.8619,-1.7742,-1.7533,-1.6663,-1.6558,-1.7204,-1.738,-1.7479,-1.7486,-1.6755,-1.6316,-1.602,-1.5609,-1.5433,-1.5492,-1.5805,-1.5689,-1.5358,-1.5418,-1.5649,-1.5973,-1.6145,-1.6378,-1.668,-1.7085,-1.7224,-1.7272,-1.7566,-1.7681,-1.7726,-1.7726,-1.8065,-1.8413,-1.8191,-1.8528,-1.9001,-1.9196,-1.9243,-1.9259,-1.9289,-1.9423,-1.9555,-1.9582,-1.9786,-1.9944,-1.9984,-2.0143,-2.0233,-2.0133,-2.009,-2.0088,-2.0133,0.0,-2.0142,-2.0285,-2.0312,-2.0312,-2.0312,-2.0312,-2.0581,-2.1254,-2.0776,-2.0691,-2.1248,-2.0566,-2.0126,-2.0012,-1.9824,-1.975,-1.9774,-1.9731,-1.9719,-1.9719,-1.9743,-1.9688,-1.9555,-1.9601,-1.993,-2.0503,-2.0503,-2.1438,-2.2997,-2.2997,-2.3474,-2.419,-2.419,-2.419,-2.419,-2.419,-2.419,-2.419,-1.4464,-1.403,-1.3509,-1.3007,-1.2286,-1.1884,-1.2102,-1.2531,-1.2904,-1.3123,-1.3776,-1.431,-1.4533,-1.4721,-1.4907,-1.5165,-1.5359,-1.5389,-1.5195,-1.5787,-1.6603,-1.7657,-1.8178,-1.8753,-1.9417,-1.8459,-1.779,-1.7486,-1.6865,-1.6943,-1.7634,-1.7812,-1.8113,-1.8494,-1.7915,-1.7715,-1.7768,-1.6893,-1.6866,-1.734,-1.6748,-1.6642,-1.6741,-1.6386,-1.6358,-1.656,-1.6757,-1.6952,-1.7126,-1.7455,-1.7687,-1.7827,-1.7954,-1.8103,-1.8229,-1.8229,-1.841,-1.8623,-1.8753,-1.8964,-1.9182,-1.9274,-1.962,-1.9963,-2.0082,-2.0503,-2.0821,-2.057,-2.0606,-2.0585,-2.0229,-2.0241,-2.0277,-2.0214,-2.0205,-2.0197,-2.0205,-2.0205,-2.0214,-2.0285,-2.0312,-2.0312,-2.0312,-2.0312,-2.0446,-2.0831,-2.0908,-2.0927,-2.0869,-2.0819,-2.0601,-2.018,-1.9931,-1.979,-1.979,-1.979,-1.979,-1.979,-1.988,-2.0035,-2.0248,-2.0324,-2.042,-2.0521,-2.0996,-2.1382,-2.1676,-2.2171,-2.2832,-2.3547,-2.3547,-2.3823,-2.419,-2.419,-2.419,-2.419,-1.4629,-1.4036,-1.347,-1.3448,-1.2782,-1.2366,-1.2531,-1.3128,-1.3572,-1.3644,-1.4373,-1.5016,-1.533,-1.5433,-1.5623,-1.6011,-1.5955,-1.5913,-1.5913,-1.6263,-1.6833,-1.7604,-1.8366,-1.8682,-1.8582,-1.8284,-1.7834,-1.7308,-1.7046,-1.7352,-1.8205,-1.8324,-1.8888,-1.9735,-1.9153,-1.9184,-1.9563,-1.8147,-1.8103,-1.8871,-1.7555,-1.7367,-1.7799,-1.7161,-1.6968,-1.7068,-1.7248,-1.7344,-1.7479,-1.7794,-1.8035,-1.8208,-1.827,-1.843,-1.8585,-1.8585,-1.8822,-1.9076,-1.9248,-1.9305,-1.936,-1.9586,-2.0102,-2.068,-2.1064,-2.1657,-2.2034,-2.1687,-2.1635,-2.1436,-2.0719,-2.0581,-2.0515,-2.0288,0.0,-2.0169,-2.0241,-2.0197,-2.0178,-2.0285,-2.0312,-2.0312,-2.0312,-2.0312,-2.0389,-2.0562,-2.0985,-2.1023,-2.06,-2.0985,-2.0946,-2.0331,-2.006,-1.9909,-1.9909,-1.9909,-1.9909,-1.9909,-2.0212,-2.0549,-2.0931,-2.1243,-2.1309,-2.1213,-2.1713,-2.175,-2.1528,-2.1756,-2.2442,-2.3308,-2.2886,-2.3217,-2.3896,-2.3712,-2.3639,-2.3639,-1.415,-1.4099,-1.3981,-1.3892,-1.3782,-1.3992,-1.4654,-1.4838,-1.496,-1.5271,-1.5758,-1.6095,-1.6111,-1.6454,-1.6686,-1.6712,-1.6448,-1.6274,-1.6274,-1.6,-1.6318,-1.7381,-1.8361,-1.8695,-1.8254,-1.7974,-1.7669,-1.7308,-1.7265,-1.7979,-1.9398,-1.9696,-2.0411,-2.1376,-2.073,-2.0418,-2.034,-1.8913,-1.8543,-1.8839,-1.8047,-1.7777,-1.7765,-1.7384,-1.7455,-1.7681,-1.7392,-1.7502,-1.7794,-1.8082,-1.8187,-1.8249,-1.8489,-1.8585,-1.8585,-1.8585,-1.9434,-2.0202,-1.9488,-1.9305,-1.9516,-2.0462,-2.0728,-2.1026,-2.1966,-2.2379,-2.2558,-2.2522,-2.2595,-2.2438,-2.1581,-2.1408,-2.1133,-2.0267,0.0,0.0,-2.0133,-2.0205,-2.0285,-2.0304,-2.0312,-2.0312,-2.0312,-2.0312,-2.0619,-2.137,-2.0773,-2.0696,-2.137,-2.0754,-2.0369,-2.0312,-2.0277,-2.0269,-2.0269,-2.0269,-2.0269,-2.0269,-2.1026,-2.1349,-2.1287,-2.2119,-2.2771,-2.3248,-2.2563,-2.3097,-2.435,-2.2686,-2.293,-2.4219,-2.2551,-2.2373,-2.3015,-2.2244,-2.1986,-2.1986,-1.4835,-1.4572,-1.4319,-1.4287,-1.4428,-1.4682,-1.4973,-1.5432,-1.5803,-1.5912,-1.63,-1.656,-1.656,-1.6722,-1.6789,-1.6789,-1.6686,-1.6607,-1.6607,-1.6474,-1.6706,-1.7306,-1.7853,-1.8098,-1.7956,-1.786,-1.7855,-1.799,-1.8203,-1.8809,-1.9831,-2.0449,-2.082,-2.0924,-2.1134,-2.0953,-2.0447,-1.9948,-2.0049,-2.0467,-1.9224,-1.9428,-2.0336,-1.903,-1.9051,-1.973,-1.9396,-1.9171,-1.914,-1.972,-1.9383,-1.8787,-1.9397,-1.9344,-1.9064,-1.9178,-1.9914,-2.0648,-2.0479,-2.0787,-2.1119,-2.1016,-2.1744,-2.2607,-2.3106,-2.369,-2.3976,-2.3601,-2.3582,-2.3167,-2.1754,-2.1504,-2.1227,-2.0356,0.0,-2.0285,-2.0241,-2.0277,-2.0312,-2.0312,-2.0312,-2.0312,-2.0312,-2.0312,-2.0427,-2.0735,-2.0465,-2.0427,-2.0735,-2.0465,-2.0312,-2.0312,-2.0312,-2.0312,-2.0312,-2.0792,-2.1043,-2.1062,-2.1908,-2.2499,-2.2844,-2.2634,-2.2897,-2.3458,-2.2607,-2.262,-2.3156,-2.1894,-2.2004,-2.2834,-2.1643,-2.1627,-2.2208,-2.1913,-2.1803,-2.1803,-1.5245,-1.491,-1.4693,-1.4833,-1.5048,-1.5257,-1.5534,-1.6123,-1.6564,-1.6693,-1.6944,-1.7117,-1.7117,-1.7117,-1.7117,-1.7117,-1.7018,-1.6968,-1.6968,-1.6866,-1.6945,-1.7286,-1.7475,-1.7593,-1.7641,-1.7747,-1.8016,-1.8383,-1.8749,-1.9401,-2.0399,-2.0923,-2.1143,-2.1093,-2.1591,-2.1582,-2.1189,-2.0927,-2.1199,-2.1633,-2.0363,-2.0617,-2.1622,-2.0328,-2.0322,-2.0972,-2.0736,-2.0445,-2.0261,-2.0914,-2.0351,-1.9488,-2.01,-1.9886,-1.9516,-2.0247,-2.0877,-2.1406,-2.1536,-2.2391,-2.3034,-2.217,-2.2773,-2.3644,-2.3845,-2.4326,-2.4585,-2.4188,-2.3879,-2.334,-2.212,-2.1677,-2.1235,-2.0427,-2.0312,-2.0312,-2.0312,-2.0312,-2.0312,-2.0312,-2.0312,-2.0312,-2.0312,-2.0312,-2.0312,-2.0312,-2.0312,-2.0312,-2.0312,-2.0312,-2.0312,-2.0312,-2.0312,-2.0312,-2.0312,-2.085,-2.1254,-2.1504,-2.237,-2.3036,-2.3482,-2.3157,-2.3103,-2.3239,-2.2645,-2.241,-2.2388,-2.1472,-2.1482,-2.2009,-2.1152,-2.1211,-2.1784,-2.1492,-2.1432,-2.1445,-1.5065,-1.5019,-1.5139,-1.5548,-1.5605,-1.5874,-1.667,-1.7076,-1.7415,-1.7766,-1.7811,-1.7811,-1.7811,-1.7811,-1.7811,-1.7811,-1.7502,-1.7304,-1.732,-1.7002,-1.6952,-1.7296,-1.7296,-1.7296,-1.732,-1.7635,-1.8004,-1.8442,-1.8766,-1.973,-2.1221,-2.1221,-2.1583,-2.231,-2.231,-2.2436,-2.2643,-2.1923,-2.1803,-2.203,-2.1313,-2.1031,-2.1031,-2.1031,-2.1031,-2.1031,-2.1031,-2.1031,-2.1072,-2.1327,-2.0897,-2.0246,-2.0453,-2.0107,-1.9972,-2.1758,-2.2429,-2.2618,-2.2598,-2.3917,-2.5052,-2.4055,-2.3812,-2.3864,-2.4063,-2.411,-2.411,-2.4091,-2.3417,-2.2812,-2.2793,-2.2081,-2.1235,-2.0427,-2.0312,-2.0312,-2.0312,-2.0312,-2.0312,-2.0312,-2.0312,-2.0312,-2.0312,-2.0312,-2.0312,-2.0312,-2.0312,-2.0312,-2.0312,-2.0312,-2.0312,-2.0312,-2.0312,-2.0312,-2.0312,-2.0312,-2.0716,-2.1504,-2.237,-2.2793,-2.2831,-2.3687,-2.3629,-2.2812,-2.2793,-2.2793,-2.2726,-2.1703,-2.1688,-2.2198,-2.1195,-2.1211,-2.1711,-2.0831,-2.0646,-2.0681,-1.6278,-1.6251,-1.6305,-1.6427,-1.6648,-1.6862,-1.7109,-1.7432,-1.7681,-1.7789,-1.7811,-1.7811,-1.7811,-1.7811,-1.7811,-1.7811,-1.7704,-1.7732,-1.7915,-1.801,-1.8115,-1.8214,-1.7406,-1.7404,-1.8397,-1.8293,-1.9018,-2.0651,-2.0569,-2.1114,-2.2255,-2.2255,-2.2349,-2.2573,-2.2832,-2.2691,-2.2295,-2.2611,-2.27,-2.2628,-2.2354,-2.2831,-2.3584,-2.2769,-2.2986,-2.3607,-2.3235,-2.2941,-2.284,-2.3393,-2.2734,-2.1676,-2.1751,-2.1642,-2.1513,-2.1593,-2.2471,-2.3337,-2.2882,-2.3996,-2.5091,-2.4236,-2.4437,-2.4716,-2.4216,-2.4543,-2.462,-2.3428,-2.3475,-2.334,-2.21,-2.1677,-2.1235,-2.0427,-2.0312,-2.0312,-2.0312,-2.0312,-2.0312,-2.0312,-2.0312,-2.0312,-2.0312,-2.0312,-2.0312,-2.0312,-2.0312,-2.0312,-2.0312,-2.0312,-2.0312,-2.0312,-2.0312,-2.0312,-2.0312,-2.0869,-2.1254,-2.1504,-2.237,-2.2793,-2.2793,-2.2447,-2.2793,-2.361,-2.1812,-2.2062,-2.3543,-2.147,-2.127,-2.2211,-2.1311,-2.1358,-2.1919,-2.1659,-2.1311,-2.1061,-1.7318,-1.7142,-1.7027,-1.7142,-1.7231,-1.7296,-1.7296,-1.7572,-1.7811,-1.7811,-1.7811,-1.7811,-1.7811,-1.7811,-1.7839,-1.7949,-1.8057,-1.8187,-1.8351,-1.8508,-1.8585,-1.8585,-1.7885,-1.7907,-1.8758,-1.8876,-1.9728,-2.1307,-2.1489,-2.2027,-2.2898,-2.2898,-2.2898,-2.2923,-2.3117,-2.3033,-2.2754,-2.3218,-2.3389,-2.3401,-2.3382,-2.3874,-2.4613,-2.3926,-2.4117,-2.4756,-2.4416,-2.415,-2.3971,-2.447,-2.3813,-2.2785,-2.288,-2.2664,-2.2479,-2.2783,-2.336,-2.3908,-2.3813,-2.4524,-2.5168,-2.4697,-2.4947,-2.5101,-2.4283,-2.4485,-2.4543,-2.3524,-2.3186,-2.2851,-2.2139,-2.1466,-2.0869,-2.0389,-2.0312,-2.0312,-2.0312,-2.0312,-2.0312,-2.0312,-2.0312,-2.0312,-2.0312,-2.0312,-2.0427,-2.0754,-2.0485,-2.0446,-2.0754,-2.0465,-2.0446,-2.0754,-2.0773,-2.0946,-2.1293,-2.1773,-2.1831,-2.1504,-2.2023,-2.2293,-2.2274,-2.1735,-2.1908,-2.2504,-2.0966,-2.1177,-2.2504,-2.1273,-2.1225,-2.1926,-2.2047,-2.2299,-2.2576,-2.2576,-2.2198,-2.173,-1.8058,-1.7686,-1.7459,-1.763,-1.7541,-1.7422,-1.7422,-1.7664,-1.7833,-1.7833,-1.7811,-1.7811,-1.7811,-1.7833,-1.7927,-1.8166,-1.8469,-1.8641,-1.8641,-1.8642,-1.866,-1.866,-1.866,-1.866,-1.866,-1.9477,-2.0312,-2.1164,-2.1852,-2.2562,-2.3236,-2.3236,-2.3259,-2.3264,-2.3305,-2.3504,-2.3801,-2.3801,-2.3979,-2.4247,-2.4266,-2.4374,-2.4543,-2.4559,-2.4685,-2.4847,-2.4814,-2.4716,-2.4575,-2.476,-2.4298,-2.3689,-2.3885,-2.3422,-2.3157,-2.4726,-2.4716,-2.436,-2.5005,-2.5245,-2.5303,-2.5303,-2.5303,-2.5101,-2.4283,-2.4168,-2.4168,-2.4014,-2.2716,-2.1831,-2.2543,-2.1389,-2.0312,-2.0312,-2.0312,-2.0312,-2.0312,-2.0312,-2.0312,-2.0312,-2.0312,-2.0331,-2.0408,-2.0485,-2.0831,-2.1562,-2.0946,-2.085,-2.1581,-2.0927,-2.0869,-2.16,-2.162,-2.2004,-2.2793,-2.2793,-2.235,-2.1504,-2.1504,-2.1466,-2.1389,-2.1389,-2.1023,-2.0408,-2.0331,-2.035,-2.0465,-2.1196,-2.1454,-2.1566,-2.3168,-2.3733,-2.3636,-2.3636,-2.3202,-2.2653,-1.768,-1.7972,-1.8141,-1.7551,-1.7934,-1.8333,-1.8333,-1.8191,-1.8103,-1.8103,-1.7927,-1.7811,-1.7811,-1.7992,-1.8125,-1.8187,-1.8641,-1.8914,-1.8914,-1.9049,-1.9164,-1.9164,-1.9164,-1.9164,-1.9164,-2.0149,-2.1462,-2.3084,-2.3008,-2.3186,-2.3588,-2.3588,-2.3681,-2.3832,-2.41,-2.4353,-2.457,-2.457,-2.4604,-2.4685,-2.4776,-2.4839,-2.4911,-2.5072,-2.5149,-2.5171,-2.5018,-2.4937,-2.4898,-2.4937,-2.4939,-2.4924,-2.4955,-2.4869,-2.4668,-2.4428,-2.4678,-2.4947,-2.4485,-2.4812,-2.5303,-2.5303,-2.5303,-2.5101,-2.4283,-2.4582,-2.4678,-2.3351,-2.2774,-2.237,-2.187,-2.0966,-2.0312,-2.0312,-2.0312,-2.0312,-2.0312,-2.0312,-2.0312,-2.0312,-2.0312,-2.0562,-2.1177,-2.185,-2.2331,-2.2504,-2.235,-2.2331,-2.2504,-2.235,-2.2331,-2.2504,-2.2524,-2.2601,-2.2793,-2.2793,-2.235,-2.1504,-2.1504,-2.1177,-2.0562,-2.0562,-2.0812,-2.1196,-2.0581,-2.0658,-2.1254,-2.1427,-2.179,-2.2326,-2.3385,-2.4155,-2.4676,-2.4676,-2.4274,-2.3756,-1.8372,-1.8449,-1.8499,-1.82,-1.8412,-1.8585,-1.8585,-1.8489,-1.8391,-1.8391,-1.827,-1.8187,-1.8187,-1.831,-1.845,-1.8566,-1.893,-1.9182,-1.9277,-1.9365,-1.9438,-1.9438,-1.9808,-1.9985,-1.9877,-2.1297,-2.2281,-2.2789,-2.348,-2.3925,-2.408,-2.4174,-2.4281,-2.4383,-2.4554,-2.47,-2.4804,-2.4804,-2.4746,-2.467,-2.4836,-2.485,-2.479,-2.5053,-2.5152,-2.5152,-2.5152,-2.5152,-2.5141,-2.5034,-2.5122,-2.5303,-2.5303,-2.5303,-2.5207,-2.4793,-2.4966,-2.5207,-2.4793,-2.4986,-2.5303,-2.5303,-2.5303,-2.5187,-2.4774,-2.5005,-2.5053,-2.4178,-2.3697,-2.3148,-2.2274,-2.1773,-2.1235,-2.0427,-2.0619,-2.0735,-2.035,-2.0312,-2.0312,-2.0312,-2.0639,-2.1196,-2.2043,-2.2524,-2.2966,-2.3398,-2.3024,-2.2985,-2.3398,-2.3024,-2.2985,-2.3417,-2.3417,-2.3601,-2.3985,-2.3985,-2.337,-2.212,-2.1696,-2.1081,-2.0312,-2.0312,-2.0542,-2.0908,-2.0485,-2.0754,-2.1523,-2.1947,-2.2325,-2.2766,-2.4049,-2.4577,-2.4615,-2.5037,-2.4964,-2.462,-1.9094,-1.889,-1.8753,-1.8837,-1.8789,-1.8716,-1.8716,-1.8679,-1.8678,-1.8678,-1.8641,-1.8585,-1.8585,-1.8623,-1.877,-1.9035,-1.9196,-1.9398,-1.9601,-1.9614,-1.967,-1.9801,-2.0439,-2.0778,-2.0721,-2.2377,-2.2854,-2.2056,-2.3735,-2.4543,-2.4543,-2.4716,-2.4818,-2.4828,-2.4828,-2.4842,-2.4888,-2.4888,-2.4771,-2.4588,-2.4799,-2.4756,-2.462,-2.4937,-2.5046,-2.5057,-2.5253,-2.5207,-2.5062,-2.4866,-2.493,-2.512,-2.5264,-2.5303,-2.5303,-2.5303,-2.5303,-2.5303,-2.5303,-2.5303,-2.5303,-2.5303,-2.5303,-2.5303,-2.5303,-2.5303,-2.5303,-2.5303,-2.4659,-2.3879,-2.3167,-2.2889,-2.235,-2.0946,-2.1293,-2.1446,-2.0619,-2.0639,-2.0619,-2.0331,-2.1139,-2.2062,-2.2928,-2.3139,-2.3524,-2.4245,-2.3639,-2.3543,-2.4264,-2.362,-2.3562,-2.4283,-2.4322,-2.462,-2.5284,-2.5149,-2.4409,-2.3004,-2.2139,-2.1293,-2.0504,-2.0658,-2.0735,-2.0716,-2.0581,-2.0966,-2.1773,-2.2513,-2.2898,-2.3206,-2.4783,-2.4985,-2.4433,-2.5139,-2.537,-2.5207,-1.839,-1.8767,-1.8992,-1.8346,-1.877,-1.9212,-1.9212,-1.9067,-1.8949,-1.8949,-1.8752,-1.8585,-1.8585,-1.8807,-1.9017,-1.9227,-1.9274,-1.9398,-1.9601,-1.9614,-1.9899,-2.0606,-2.0736,-2.1056,-2.1619,-2.2555,-2.3065,-2.3103,-2.4219,-2.476,-2.476,-2.479,-2.4869,-2.4974,-2.4974,-2.5065,-2.5233,-2.5233,-2.5118,-2.4949,-2.5141,-2.5118,-2.4962,-2.5182,-2.5264,-2.5264,-2.5284,-2.4851,-2.4226,-2.4033,-2.4107,-2.4379,-2.5082,-2.5303,-2.5303,-2.5303,-2.5303,-2.5303,-2.5303,-2.5303,-2.5303,-2.5303,-2.5303,-2.5303,-2.5303,-2.5303,-2.5303,-2.5303,-2.4659,-2.4052,-2.3956,-2.3321,-2.2735,-2.2504,-2.2543,-2.2312,-2.1466,-2.1985,-2.1927,-2.0465,-2.1677,-2.2966,-2.3841,-2.4543,-2.5014,-2.5139,-2.5034,-2.5014,-2.5139,-2.5034,-2.5014,-2.5139,-2.5139,-2.5187,-2.5303,-2.4601,-2.4149,-2.3918,-2.3043,-2.2177,-2.137,-2.212,-2.2466,-2.2408,-2.1658,-2.1831,-2.2639,-2.281,-2.333,-2.4119,-2.5099,-2.5418,-2.531,-2.5367,-2.539,-2.537,-1.8391,-1.9007,-1.9468,-1.9113,-1.9281,-1.9471,-1.9471,-1.9308,-1.9166,-1.9166,-1.9066,-1.8981,-1.8981,-1.9099,-1.9261,-1.9456,-1.9365,-1.9398,-1.9601,-2.001,-2.042,-2.0774,-2.1652,-2.2023,-2.1803,-2.3139,-2.365,-2.33,-2.4198,-2.4623,-2.4639,-2.4746,-2.4828,-2.4891,-2.4891,-2.4949,-2.4993,-2.451,-2.4518,-2.4828,-2.4091,-2.3942,-2.4201,-2.4502,-2.4552,-2.4539,-2.511,-2.4774,-2.4159,-2.4513,-2.4399,-2.4245,-2.5063,-2.5303,-2.5303,-2.5303,-2.5303,-2.5303,-2.5303,-2.5303,-2.5303,-2.5303,-2.5303,-2.5303,-2.5303,-2.5303,-2.5303,-2.5303,-2.5024,-2.462,-2.4187,-2.4139,-2.3889,-2.2947,-2.3206,-2.3225,-2.235,-2.2562,-2.2716,-2.2447,-2.309,-2.3851,-2.4697,-2.5101,-2.5303,-2.5303,-2.5303,-2.5303,-2.5303,-2.5303,-2.5322,-2.5341,-2.537,-2.537,-2.5409,-2.5063,-2.4649,-2.4205,-2.4283,-2.3581,-2.2235,-2.2667,-2.2868,-2.2849,-2.2494,-2.2819,-2.3642,-2.3664,-2.3906,-2.4348,-2.5222,-2.5557,-2.554,-2.5485,-2.5468,-2.5447]}]]